     2              OBSERVATION DATA    GPS                 RINEX VERSION / TYPE
teqc 2000Feb29 20020409 20:43:56UTC                         PGM / RUN BY / DATE
                                                            COMMENT
L2: 1 -> 1; 150 -> 5; 250 -> 9                              COMMENT
L2: 1 -> 1; 150 -> 5; 250 -> 9                              COMMENT
L2: 1 -> 1; 150 -> 5; 250 -> 9                              COMMENT
L2: 1 -> 1; 150 -> 5; 250 -> 9                              COMMENT
L2: 1 -> 1; 150 -> 5; 250 -> 9                              COMMENT
Original Marker Name: RMGU                                  COMMENT
Campaign Name: Northern Baja                                COMMENT
4-Character Station Name: RMGU                              COMMENT
6-Character Antenna Code: DMRCHT                            COMMENT
Vertical Measurement Point: BCR                             COMMENT
Vertical Offset to Rinex Ref. Point: 0.0348                 COMMENT
Radial Measurement Point: ECF                               COMMENT
Radial Offset to Rinex Ref. Point: 0.1897                   COMMENT
Antenna Height from Field Measurement: 1.1943 m             COMMENT
Additional Antenna Identification Info.:                    COMMENT
Turborogue and Ashtech Choke Ring                           COMMENT
Original XYZ: -2649070.2454 -4921466.0438 3062524.9119      COMMENT
New XYZ position is based on association with SCEC monument COMMENT
D5S5Z3N0+0011. Position of that monument is believed to be  COMMENT
valid to within 1 m horizontally; vertical accuracy         COMMENT
should be no worse than 3-times this value.                 COMMENT
                                                            COMMENT
Revised Rinex header created by UCSD GPS archive for        COMMENT
GSAC on 27-Jun-2003 (2003:178) 15:29:57 GMT                 COMMENT
For assistance contact dagnew@ucsd.edu                      COMMENT
or anderson@python.ucsd.edu                                 COMMENT
                                                            COMMENT
RED MAREOGRAFICA                                            MARKER NAME
JGG CICESE (ENSENADA)                                       OBSERVER / AGENCY
734 ASHTECH Z-XII3 CC00                                     REC # / TYPE / VERS
05003 DORNE-MARGOL. TYPE T                                  ANT # / TYPE
 -2649063.6338 -4921428.5939  3062508.7327                  APPROX POSITION XYZ
        1.1443        0.0000        0.0000                  ANTENNA: DELTA H/E/N
     1     1     0                                          WAVELENGTH FACT L1/2
     7    C1    L1    L2    P1    P2    S1    S2            # / TYPES OF OBSERV
     0                                                      INTERVAL
  2002     3    20    13    59    0.000000                  TIME OF FIRST OBS
  2002     3    20    17    51   30.000000                  TIME OF LAST OBS
                                                            END OF HEADER
 02  3 20 13 59  0.0000000  0  6G28G27G 7G 8G11G13
  21221470.448     -104640.41849    -75905.03147  21221469.582    21221475.617
       244.000         211.000
  21520461.531      -16813.93049    -12167.60547  21520461.205    21520469.611
       241.000         205.000
  21696621.221     -305409.49249   -216693.94247  21696620.542    21696629.403
       236.000         196.000
  20450791.981     -145341.75949   -106298.70248  20450791.791    20450799.460
       245.000         213.000
  24162464.686     -186281.94449   -130946.99645  24162465.014    24162474.605
       221.000         160.000
  24340567.535      197402.28249    138708.99345  24340566.736    24340576.260
       213.000         143.000
 02  3 20 13 59 29.9990000  0  6G28G27G 7G 8G11G13
  20914861.519     -140466.44349   -103821.45647  20914860.114    20914865.832
       245.000         211.000
  21219717.123      -21814.04249    -16063.90047  21219717.625    21219726.033
       241.000         205.000
  21375616.138     -416882.86549   -303556.34047  21375616.059    21375624.254
       238.000         197.000
  20142083.766     -192198.22449   -142810.29148  20142083.236    20142091.027
       245.000         213.000
  23849907.229     -253364.88149   -183219.48946  23849906.793    23849916.921
       222.000         165.000
  24054505.190      269556.11349    194932.52845  24054505.762    24054514.245
       212.000         147.000
 02  3 20 14  0  0.0000000  0  6G28G27G 7G 8G11G13
  20984907.590    -1347789.61949  -1044592.79747  20984906.382    20984912.254
       244.000         211.000
  21295660.652    -1198152.21549   -932691.16247  21295660.511    21295668.589
       240.000         205.000
  21431300.906    -1699679.37249  -1303138.06047  21431300.320    21431308.673
       238.000         198.000
  20210053.932    -1410431.84649  -1092083.29648  20210053.261    20210061.211
       244.000         213.000
  23914035.629    -1491788.81349  -1148225.20846  23914035.548    23914044.967
       222.000         165.000
  24145074.484     -829916.00649   -661799.20945  24145074.263    24145084.513
       212.000         146.000
 02  3 20 14  0 30.0000000  0  6G28G27G 7G 8G11G13
  20985406.573    -1345165.48849  -1042548.07547  20985405.416    20985412.030
       243.000         210.000
  21302086.398    -1164383.92249   -906378.28847  21302086.203    21302094.500
       241.000         205.000
  21417472.526    -1772348.04049  -1359763.02547  21417472.183    21417480.084
       238.000         198.000
  20208500.505    -1418595.29449  -1098444.48748  20208500.276    20208507.685
       245.000         213.000
  23908647.337    -1520104.63249  -1170289.54845  23908646.359    23908657.057
       220.000         162.000
  24166070.889     -719576.50849   -575820.61845  24166071.547    24166081.927
       212.000         146.000
 02  3 20 14  1  0.0000000  0  6G28G27G 7G 8G11G13
  20985941.786    -1342352.00049  -1040355.79247  20985941.145    20985947.022
       243.000         210.000
  21308579.341    -1130264.35549   -879791.72847  21308578.838    21308587.427
       241.000         205.000
  21403714.729    -1844645.74649  -1416098.92047  21403714.317    21403722.314
       239.000         199.000
  20207007.011    -1426444.25649  -1104560.61747  20207006.500    20207013.961
       244.000         212.000
  23903326.055    -1548067.68649  -1192079.01045  23903325.972    23903334.439
       218.000         160.000
  24187078.628     -609182.05349   -489799.21445  24187080.343    24187089.393
       212.000         144.000
 02  3 20 14  1 30.0000000  0  6G28G27G 7G 8G11G13
  20986513.351    -1339348.57349  -1038015.50147  20986512.610    20986518.734
       243.000         209.000
  21315139.343    -1095791.24649   -852929.67347  21315139.166    21315146.950
       240.000         204.000
  21390028.155    -1916569.28149  -1472143.26547  21390027.472    21390036.034
       238.000         200.000
  20205573.909    -1433975.62549  -1110429.27547  20205573.582    20205580.577
       246.000         211.000
  23898072.615    -1575674.46049  -1213590.82945  23898072.679    23898080.919
       217.000         157.000
  24208096.797     -498733.57349   -403735.71245  24208096.693    24208105.750
       209.000         140.000
 02  3 20 14  2  0.0000000  0  6G28G27G 7G 8G11G13
  20987120.200    -1336159.30249  -1035530.40647  20987119.689    20987125.968
       243.000         209.000
  21321766.243    -1060966.72449   -825793.78447  21321765.989    21321774.459
       241.000         204.000
  21376412.503    -1988119.66249  -1527896.84047  21376411.888    21376420.369
       237.000         200.000
  20204201.048    -1441190.96149  -1116051.67747  20204200.773    20204207.821
       246.000         211.000
  23892886.877    -1602925.91349  -1234825.80645  23892886.659    23892896.911
       216.000         155.000
  24229124.151     -388236.73449   -317634.52345  24229124.736    24229134.957
       208.000         137.000
 02  3 20 14  2 30.0000000  0  6G28G27G 7G 8G11G13
  20987763.021    -1332781.10449  -1032898.09347  20987762.444    20987768.896
       242.000         208.000
  21328460.962    -1025786.34149   -798380.61547  21328460.774    21328469.087
       241.000         204.000
  21362868.910    -2059291.26849  -1583355.25747  21362868.434    21362877.115
       239.000         200.000
  20202889.220    -1448084.88749  -1121423.63247  20202888.491    20202896.221
       245.000         211.000
  23887770.063    -1629815.61249  -1255778.89345  23887769.531    23887780.061
       214.000         154.000
  24250160.422     -277690.03449   -231494.53345  24250160.753    24250170.136
       204.000         136.000
 02  3 20 14  3  0.0000000  0  6G28G27G 7G 8G11G13
  20988441.322    -1329216.58649  -1030120.60147  20988440.995    20988447.193
       242.000         208.000
  21335223.155     -990250.78849   -770690.68447  21335223.642    21335231.518
       241.000         204.000
  21349397.680    -2130083.65049  -1638518.18347  21349397.170    21349405.504
       238.000         200.000
  20201638.371    -1454657.47349  -1126545.20047  20201637.787    20201645.142
       243.000         211.000
  23882722.066    -1656343.25649  -1276449.85045  23882722.315    23882732.140
       214.000         152.000
  24271205.464     -167097.40349   -145318.74745  24271204.235    24271214.808
       202.000         134.000
 02  3 20 14  3 30.0000000  0  6G28G27G 7G 8G11G13
  20989154.925    -1325466.75149  -1027198.69447  20989154.441    20989160.387
       241.000         207.000
  21342053.293     -954359.16849   -742723.30347  21342053.004    21342061.788
       241.000         204.000
  21335998.790    -2200495.07449  -1693384.25547  21335998.006    21336006.667
       237.000         199.000
  20200449.059    -1460907.25949  -1131415.22747  20200448.930    20200455.669
       244.000         210.000
  23877743.301    -1682506.49149  -1296836.85245  23877743.122    23877753.765
       212.000         151.000
  24292258.848      -56461.26049    -59109.07345  24292260.578    24292269.259
       209.000         134.000
 02  3 20 14  4  0.0000000  0  6G28G27G 7G 8G11G13
  20989903.508    -1321533.18049  -1024133.62347  20989903.142    20989909.102
       241.000         205.000
  21348951.195     -918111.50849   -714478.48847  21348951.768    21348959.355
       242.000         204.000
  21322672.575    -2270524.42449  -1747952.61047  21322671.901    21322680.853
       238.000         199.000
  20199321.508    -1466833.18049  -1136032.89047  20199321.201    20199328.636
       244.000         211.000
  23872834.159    -1708303.88749  -1316938.77945  23872834.441    23872844.639
       213.000         151.000
  24313320.382       54215.37749     27132.19045  24313322.317    24313330.557
       209.000         136.000
 02  3 20 14  4 30.0000000  0  6G28G27G 7G 8G11G13
  20990687.134    -1317414.98049  -1020924.68847  20990686.470    20990693.087
       240.000         205.000
  21355917.235     -881505.52449   -685954.46547  21355916.637    21355925.408
       239.000         204.000
  21309419.741    -2340168.24949  -1802220.55447  21309419.096    21309427.937
       238.000         199.000
  20198256.188    -1472432.17849  -1140395.80447  20198255.888    20198263.473
       244.000         212.000
  23867995.189    -1733731.74149  -1336752.79345  23867995.341    23868006.399
       213.000         153.000
  24334389.500      164931.51649    113404.20145  24334389.902    24334399.721
       212.000         140.000
 02  3 20 14  5  0.0000000  0  7G28G27G26G 7G 8G11G13
  20991505.478    -1313114.58449  -1017573.78747  20991505.443    20991511.951
       242.000         206.000
  21362950.995     -844541.93149   -657151.76847  21362951.027    21362959.750
       239.000         202.000
                   -914280.47349   -693014.73343
       208.000          74.000
  21296240.379    -2409426.07349  -1856187.73047  21296240.070    21296248.462
       238.000         199.000
  20197253.021    -1477704.26149  -1144503.97348  20197252.513    20197260.389
       245.000         213.000
  23863227.004    -1758789.41849  -1356278.34545  23863227.262    23863237.180
       216.000         154.000
  24355465.149      275683.25849    199703.94545  24355465.492    24355476.092
       210.000         142.000
 02  3 20 14  5 30.0000000  0  7G28G27G26G 7G 8G11G13
  20992358.143    -1308634.21949  -1014082.65047  20992357.903    20992364.479
       241.000         206.000
  21370053.130     -807221.08549   -628070.70247  21370053.560    21370060.477
       241.000         202.000
                   -993865.07049   -755028.67944                  23943942.356
       209.000         122.000
  21283134.515    -2478297.54649  -1909853.84847  21283134.193    21283142.829
       239.000         200.000
  20196312.092    -1482649.12849  -1148357.17448  20196311.674    20196319.218
       245.000         213.000
  23858529.535    -1783475.85649  -1375514.61145  23858529.993    23858538.986
       217.000         154.000
  24376546.745      386467.18949    286028.78645  24376547.857    24376557.109
       211.000         143.000
 02  3 20 14  6  0.0000000  0  7G28G27G26G 7G 8G11G13
  20993245.088    -1303973.21649  -1010450.76047  20993244.509    20993251.443
       240.000         206.000
  21377223.536     -769541.11549   -598709.79247  21377223.666    21377231.162
       240.000         201.000
  23928854.470    -1073106.42349   -816775.24545  23928854.109    23928863.981
       211.000         142.000
  21270102.960    -2546779.37649  -1963216.34647  21270102.574    21270111.456
       238.000         201.000
  20195433.959    -1487263.93249  -1151953.18448  20195433.342    20195441.418
       245.000         213.000
  23853903.193    -1807787.88549  -1394459.14645  23853903.356    23853913.167
       218.000         156.000
  24397634.075      497282.12949    372377.80645  24397633.070    24397643.601
       212.000         142.000
 02  3 20 14  6 30.0000000  0  7G28G27G26G 7G 8G11G13
  20994167.445    -1299126.22549  -1006673.94547  20994166.911    20994173.580
       241.000         205.000
  21384463.681     -731494.72949   -569063.37747  21384463.114    21384471.416
       239.000         201.000
  23913843.267    -1151995.31749   -878247.16345  23913843.561    23913851.168
       216.000         148.000
  21257147.009    -2614863.54549  -2016268.98347  21257146.654    21257155.552
       239.000         201.000
  20194620.122    -1491540.65049  -1155285.76448  20194619.976    20194627.614
       246.000         214.000
  23849349.688    -1831716.77549  -1413105.14245  23849349.209    23849360.136
       218.000         156.000
  24418728.356      608131.68249    458753.76945  24418728.086    24418739.976
       209.000         141.000
 02  3 20 14  7  0.0000000  0  7G28G27G26G 7G 8G11G13
  20995124.502    -1294096.95949  -1002755.08747  20995124.658    20995130.657
       242.000         206.000
  21391773.046     -693084.02549   -539133.07647  21391772.924    21391781.202
       239.000         201.000
  23898898.318    -1230532.16649   -939444.80145  23898898.667    23898905.367
       220.000         153.000
  21244266.634    -2682550.88349  -2069012.40447  21244266.550    21244274.974
       239.000         201.000
  20193870.526    -1495480.65049  -1158355.95548  20193869.985    20193878.020
       246.000         215.000
  23844868.900    -1855263.29149  -1431453.16945  23844869.320    23844878.463
       217.000         156.000
  24439828.030      719011.04349    545152.93445  24439829.578    24439839.984
       209.000         142.000
 02  3 20 14  7 30.0000000  0  7G28G27G26G 7G 8G11G13
  20996114.949    -1288892.90949   -998700.04347  20996114.812    20996121.121
       243.000         206.000
  21399150.523     -654315.01849   -508923.58247  21399150.247    21399159.216
       238.000         201.000
  23884019.673    -1308721.07449  -1000371.29645  23884019.847    23884027.210
       221.000         158.000
  21231460.786    -2749846.49349  -2121450.57847  21231460.556    21231469.331
       239.000         202.000
  20193183.839    -1499089.08849  -1161167.78848  20193183.280    20193191.468
       246.000         214.000
  23840459.867    -1878432.14549  -1449506.92445  23840459.403    23840470.775
       217.000         156.000
  24460931.759      829911.10749    631568.25445  24460933.288    24460942.809
       208.000         142.000
 02  3 20 14  8  0.0000000  0  7G28G27G26G 7G 8G11G13
  20997138.207    -1283515.97649   -994510.30047  20997137.674    20997144.063
       242.000         206.000
  21406596.175     -615188.10049   -478435.19347  21406595.862    21406604.651
       238.000         200.000
  23869207.273    -1386560.84349  -1061025.71045  23869207.132    23869215.546
       221.000         162.000
  21218729.617    -2816749.74749  -2173583.01047  21218729.149    21218737.822
       239.000         202.000
  20192560.354    -1502365.58449  -1163720.96948  20192559.952    20192567.613
       246.000         215.000
  23836122.929    -1901222.20849  -1467265.50045  23836121.976    23836133.750
       215.000         155.000
  24482038.722      940828.30849    717996.94245  24482039.517    24482049.382
       207.000         140.000
 02  3 20 14  8 30.0000000  0  7G28G27G26G 7G 8G11G13
  20998194.230    -1277966.47149   -990186.07847  20998194.023    20998200.452
       242.000         206.000
  21414110.306     -575701.76249   -447666.73647  21414110.610    21414119.086
       237.000         200.000
  23854461.903    -1464047.99349  -1121405.35246  23854461.810    23854470.024
       222.000         165.000
  21206073.494    -2883258.12549  -2225407.76247  21206073.141    21206081.644
       239.000         202.000
  20192000.534    -1505307.81349  -1166013.68548  20192000.269    20192007.826
       247.000         215.000
  23831858.652    -1923630.74949  -1484726.79245  23831858.328    23831868.734
       217.000         155.000
  24503148.602     1051761.05549    804437.72845  24503149.882    24503161.287
       207.000         137.000
 02  3 20 14  9  0.0000000  0  7G28G27G26G 7G 8G11G13
  20999283.319    -1272243.76949   -985726.89747  20999283.349    20999288.946
       244.000         207.000
  21421693.057     -535854.13449   -416616.74747  21421692.511    21421701.402
       236.000         199.000
  23839784.353    -1541178.80649  -1181507.33846  23839784.031    23839792.709
       219.000         167.000
  21193493.156    -2949368.57849  -2276922.44047  21193493.160    21193501.571
       240.000         203.000
  20191504.849    -1507912.99349  -1168043.75948  20191504.232    20191512.277
       245.000         216.000
  23827667.848    -1945654.40949  -1501888.19545  23827667.679    23827678.747
       217.000         157.000
  24524261.833     1162708.31949    890889.80245  24524263.995    24524273.092
       212.000         139.000
 02  3 20 14  9 30.0000000  0  7G28G27G26G 7G 8G11G13
  21000405.311    -1266348.39849   -981133.16847  21000405.082    21000411.073
       244.000         208.000
  21429344.708     -495644.16849   -385284.43347  21429344.803    21429352.765
       237.000         197.000
  23825175.065    -1617950.43149  -1241329.43646  23825174.605    23825183.475
       218.000         166.000
  21180989.010    -3015078.97849  -2328125.38047  21180988.817    21180997.460
       240.000         203.000
  20191073.604    -1510179.25049  -1169809.73748  20191073.311    20191081.213
       246.000         216.000
  23823550.616    -1967290.79849  -1518747.81845  23823550.719    23823561.101
       217.000         157.000
  24545377.451     1273667.96849    977351.51145  24545378.858    24545388.025
       211.000         139.000
 02  3 20 14 10  0.0000000  0  7G28G27G26G 7G 8G11G13
  21001559.682    -1260282.36249   -976406.45347  21001559.613    21001565.353
       245.000         209.000
  21437065.445     -455072.39049   -353670.19447  21437065.119    21437074.381
       236.000         197.000
  23810634.358    -1694361.51949  -1300870.59546  23810634.251    23810643.257
       218.000         166.000
  21168560.966    -3080388.93249  -2379016.28947  21168560.321    21168569.150
       239.000         203.000
  20190706.969    -1512106.27249  -1171311.38448  20190706.605    20190714.465
       246.000         216.000
  23819507.340    -1988538.94549  -1535304.91145  23819507.238    23819517.660
       217.000         157.000
  24566494.543     1384636.75749   1063820.35745  24566495.849    24566505.928
       206.000         138.000
 02  3 20 14 10 30.0000000  0  7G28G27G26G 7G 8G11G13
  21002746.796    -1254044.88249   -971546.13947  21002746.881    21002752.891
       245.000         210.000
  21444855.291     -414136.66749   -321772.34247  21444856.125    21444864.058
       238.000         197.000
  23796163.127    -1770408.07049  -1360127.71946  23796163.239    23796171.595
       219.000         167.000
  21156209.670    -3145295.14949  -2429592.60547  21156209.021    21156217.969
       240.000         203.000
  20190405.393    -1513691.06349  -1172546.35148  20190404.804    20190412.899
       245.000         216.000
  23815538.608    -2009395.58349  -1551556.92445  23815539.035    23815548.989
       218.000         157.000
  24587612.459     1495613.76549   1150295.59145  24587613.859    24587623.634
       206.000         135.000
 02  3 20 14 11  0.0000000  0  7G28G27G26G 7G 8G11G13
  21003966.459    -1247636.15649   -966552.38947  21003965.927    21003972.364
       245.000         211.000
  21452714.926     -372835.50449   -289589.73047  21452715.214    21452723.931
       238.000         198.000
  23781762.003    -1846086.79649  -1419098.23546  23781762.229    23781770.776
       220.000         168.000
  21143935.719    -3209795.30549  -2479852.50747  21143935.068    21143944.053
       239.000         203.000
  20190169.408    -1514931.30249  -1173512.83848  20190169.197    20190177.015
       246.000         216.000
  23811644.721    -2029857.88149  -1567501.64445  23811644.132    23811654.947
       217.000         157.000
  24608732.251     1606597.21949   1236775.86045  24608735.257    24608744.147
       208.000         134.000
 02  3 20 14 11 30.0000000  0  7G28G27G26G 7G 8G11G13
  21005217.910    -1241059.83049   -961428.04747  21005217.650    21005223.528
       244.000         211.000
  21460643.551     -331171.26749   -257124.22647  21460643.735    21460651.834
       236.000         197.000
  23767430.793    -1921398.11949  -1477782.45246  23767430.800    23767439.484
       221.000         167.000
  21131738.735    -3273890.47449  -2529796.82747  21131738.402    21131747.350
       239.000         203.000
  20189998.780    -1515828.38349  -1174211.93248  20189998.735    20190006.502
       246.000         216.000
  23807825.736    -2049926.71649  -1583139.78945  23807825.166    23807836.574
       214.000         156.000
  24629852.622     1717581.89849   1323257.12045  24629854.137    24629865.883
       206.000         133.000
 02  3 20 14 12  0.0000000  0  7G28G27G26G 7G 8G11G13
  21006501.496    -1234314.97749   -956172.38747  21006501.362    21006507.266
       245.000         210.000
  21468641.619     -289141.51049   -224373.89947  21468641.029    21468650.922
       235.000         197.000
  23753170.251    -1996337.87149  -1536177.12446  23753170.033    23753178.207
       218.000         167.000
  21119619.588    -3337577.41149  -2579423.04447  21119619.412    21119627.685
       240.000         204.000
  20189894.054    -1516379.12049  -1174641.15348  20189894.077    20189901.708
       245.000         216.000
  23804082.343    -2069598.36449  -1598468.43045  23804081.597    23804092.618
       213.000         155.000
  24650972.616     1828567.33349   1409738.85845  24650975.055    24650984.895
       205.000         132.000
 02  3 20 14 12 30.0000000  0  7G28G27G26G 7G 8G11G13
  21007816.971    -1227402.23549   -950785.89847  21007816.641    21007823.023
       245.000         211.000
  21476709.333     -246745.59349   -191338.23547  21476709.254    21476718.484
       236.000         197.000
  23738980.966    -2070903.39349  -1594280.19146  23738981.485    23738989.734
       215.000         165.000
  21107578.438    -3400854.36849  -2628729.80647  21107578.338    21107586.863
       241.000         204.000
  20189855.599    -1516581.94549  -1174799.26548  20189855.464    20189863.310
       246.000         216.000
  23800415.041    -2088870.83849  -1613486.02045  23800415.675    23800425.457
       216.000         154.000
  24672092.385     1939551.23349   1496219.45445  24672095.374    24672104.551
       208.000         134.000
 02  3 20 14 13  0.0000000  0  7G28G27G26G 7G 8G11G13
  21009163.856    -1220324.73049   -945271.02947  21009163.639    21009170.348
       245.000         212.000
  21484846.319     -203985.22949   -158018.59447  21484846.310    21484855.387
       236.000         197.000
  23724862.999    -2145094.67549  -1652091.61945  23724863.629    23724870.737
       212.000         161.000
  21095615.277    -3463721.95649  -2677717.56047  21095614.880    21095623.667
       240.000         205.000
  20189883.193    -1516437.40049  -1174686.70548  20189882.655    20189890.952
       244.000         216.000
  23796823.874    -2107744.40149  -1628192.77645  23796824.042    23796834.409
       215.000         155.000
  24693211.102     2050528.91949   1582695.27345  24693212.635    24693222.087
       208.000         133.000
 02  3 20 14 13 30.0000000  0  7G28G27G26G 7G 8G11G13
  21010542.219    -1213081.59349   -939627.10147  21010541.425    21010548.807
       244.000         212.000
  21493053.261     -160857.98449   -124413.06847  21493053.159    21493062.500
       235.000         197.000
  23710817.023    -2218907.41449  -1709608.07445  23710817.692    23710825.806
       207.000         156.000
  21083730.519    -3526176.72449  -2726383.64347  21083730.057    21083738.949
       241.000         205.000
  20189977.319    -1515942.49149  -1174301.12848  20189976.730    20189984.965
       244.000         215.000
  23793309.172    -2126215.12249  -1642585.61045  23793309.065    23793319.287
       214.000         154.000
  24714328.254     2161500.14349   1669166.01044  24714328.996    24714340.083
       205.000         129.000
 02  3 20 14 14  0.0000000  0  7G28G27G26G 7G 8G11G13
  21011951.668    -1205674.54149   -933855.43047  21011951.319    21011958.189
       244.000         211.000
  21501330.030     -117364.21249    -90521.94847  21501329.889    21501338.891
       236.000         197.000
  23696843.132    -2292339.95349  -1766828.26745  23696842.357    23696852.391
       205.000         150.000
  21071924.446    -3588218.15549  -2774727.64947  21071924.021    21071932.692
       242.000         205.000
  20190138.212    -1515096.60849  -1173642.07448  20190137.988    20190146.018
       243.000         214.000
  23789871.000    -2144282.35549  -1656664.02845  23789870.865    23789881.462
       214.000         154.000
  24735443.630     2272461.51349   1755629.07745  24735445.178    24735454.314
       209.000         132.000
 02  3 20 14 14 30.0000000  0  6G28G27G26G 7G 8G11
  21013392.999    -1198100.56549   -927953.69747  21013392.541    21013399.476
       243.000         211.000
  21509677.195      -73499.77949    -56342.00247  21509677.340    21509686.228
       235.000         196.000
  23682942.843    -2365386.41449  -1823747.60745  23682944.489    23682951.654
       209.000         148.000
  21060198.058    -3649841.00049  -2822745.48647  21060197.788    21060206.303
       241.000         205.000
  20190367.047    -1513894.84449  -1172705.70348  20190367.030    20190375.118
       245.000         214.000
  23786510.849    -2161940.62749  -1670423.77645  23786509.562    23786522.948
       214.000         155.000
 02  3 20 14 15  0.0000000  0  6G28G27G26G 7G 8G11
  21014865.430    -1190362.60449   -921924.18447  21014865.212    21014872.059
       243.000         211.000
  21518094.732      -29266.10349    -21874.31947  21518094.163    21518104.111
       234.000         196.000
  23669116.283    -2438046.46349  -1880365.89845  23669117.011    23669124.134
       214.000         148.000
  21048551.137    -3711045.79049  -2870437.56747  21048550.821    21048559.726
       240.000         205.000
  20190663.679    -1512337.43949  -1171492.20748  20190663.045    20190671.254
       244.000         214.000
  23783228.404    -2179189.89449  -1683864.82645  23783227.764    23783238.779
       213.000         154.000
 02  3 20 14 15 30.0000000  0  6G28G27G26G 7G 8G11
  21016368.236    -1182465.69849   -915770.81947  21016368.011    21016374.927
       242.000         211.000
  21526581.575       15333.05049     12878.13947  21526581.078    21526591.219
       233.000         194.000
  23655362.891    -2510321.85349  -1936684.45245  23655363.403    23655370.711
       215.000         146.000
  21036983.340    -3771835.11649  -2917805.90747  21036983.270    21036991.611
       241.000         205.000
  20191027.194    -1510427.29349  -1170003.85948  20191026.723    20191034.340
       244.000         214.000
  23780023.300    -2196032.51049  -1696988.99145  23780023.103    23780033.720
       214.000         153.000
 02  3 20 14 16  0.0000000  0  6G28G27G26G 7G 8G11
  21017901.172    -1174410.44749   -909494.06647  21017900.850    21017908.105
       242.000         211.000
  21535138.294       60298.43749     47915.96747  21535138.864    21535147.508
       236.000         194.000
  23641683.089    -2582209.87949  -1992701.20945  23641682.014    23641690.833
       217.000         146.000
  21025495.003    -3832207.29949  -2964849.20747  21025494.473    21025503.087
       240.000         205.000
  20191458.059    -1508162.87849  -1168239.45648  20191457.435    20191465.944
       244.000         213.000
  23776896.102    -2212466.77849  -1709794.97545  23776896.057    23776906.414
       215.000         152.000
 02  3 20 14 16 30.0000000  0  6G28G27G26G 7G 8G11
  21019464.414    -1166195.36149   -903092.76547  21019463.758    21019471.414
       242.000         211.000
  21543765.335      105632.65249     83241.22347  21543765.452    21543773.990
       235.000         194.000
  23628077.834    -2653706.19549  -2048412.71745  23628077.372    23628085.929
       219.000         148.000
  21014086.478    -3892158.75349  -3011564.66347  21014085.721    21014095.099
       239.000         204.000
  20191957.069    -1505540.63349  -1166196.21948  20191956.469    20191964.760
       243.000         213.000
  23773847.304    -2228488.52949  -1722279.50145  23773846.269    23773858.859
       215.000         151.000
 02  3 20 14 17  0.0000000  0  6G28G27G26G 7G 8G11
  21021057.688    -1157822.67349   -896568.66747  21021057.455    21021064.329
       241.000         210.000
  21552462.120      151334.70349    118853.08247  21552462.311    21552471.608
       235.000         193.000
  23614547.289    -2724809.85949  -2103818.24345  23614547.709    23614556.552
       220.000         152.000
  21002758.120    -3951689.50549  -3057952.30047  21002757.823    21002766.597
       240.000         205.000
  20192524.166    -1502560.51949  -1163874.13348  20192524.366    20192532.117
       246.000         214.000
  23770877.138    -2244097.37349  -1734442.30445  23770877.304    23770888.316
       215.000         152.000
 02  3 20 14 17 30.0000000  0  6G28G27G26G 7G 8G11
  21022680.917    -1149292.42349   -889921.77947  21022680.501    21022687.330
       241.000         208.000
  21561229.504      197405.78149    154752.49747  21561229.711    21561238.853
       235.000         193.000
  23601091.906    -2795517.73949  -2158915.37745  23601091.794    23601100.253
       222.000         158.000
  20991510.323    -4010797.17149  -3104010.25347  20991509.580    20991518.884
       239.000         205.000
  20193159.952    -1499220.34449  -1161271.47248  20193159.716    20193167.580
       245.000         215.000
  23767986.004    -2259290.87449  -1746281.44745  23767985.476    23767997.011
       216.000         152.000
 02  3 20 14 18  0.0000000  0  6G28G27G26G 7G 8G11
  21024334.123    -1140605.13849   -883152.52247  21024334.036    21024340.639
       241.000         208.000
  21570066.856      243846.45249    190939.89147  21570066.694    21570074.670
       234.000         192.000
  23587712.434    -2865827.25749  -2213702.09946  23587713.166    23587721.524
       225.000         164.000
  20980343.254    -4069480.21249  -3149737.33247  20980342.941    20980352.216
       240.000         205.000
  20193864.426    -1495518.51849  -1158386.99748  20193863.959    20193871.818
       246.000         214.000
  23765174.239    -2274066.99949  -1757795.37845  23765174.502    23765184.036
       217.000         153.000
 02  3 20 14 18 30.0000000  0  6G28G27G26G 7G 8G11
  21026017.194    -1131761.51049   -876261.45447  21026016.831    21026023.879
       241.000         208.000
  21578974.820      290657.32049    227415.76747  21578974.697    21578984.176
       235.000         192.000
  23574409.422    -2935735.95549  -2268176.50346  23574410.295    23574418.230
       224.000         166.000
  20969257.431    -4127737.08849  -3195132.33547  20969257.065    20969265.813
       241.000         206.000
  20194638.012    -1491453.54849  -1155219.56848  20194637.633    20194645.476
       246.000         213.000
  23762442.279    -2288424.06049  -1768982.74445  23762442.343    23762452.241
       216.000         154.000
 02  3 20 14 19  0.0000000  0  6G28G27G26G 7G 8G11
  21027729.363    -1122764.02149   -869250.48847  21027728.736    21027735.934
       240.000         207.000
  21587952.997      337837.16049    264179.14647  21587953.061    21587963.026
       235.000         193.000
  23561182.638    -3005243.35449  -2322338.20446  23561181.893    23561191.197
       223.000         166.000
  20958252.546    -4185568.15649  -3240195.53247  20958251.984    20958261.017
       240.000         207.000
  20195480.526    -1487025.92649  -1151769.54648  20195479.990    20195488.175
       245.000         213.000
  23759790.005    -2302361.74849  -1779843.34045  23759789.630    23759801.592
       218.000         153.000
 02  3 20 14 19 30.0000000  0  6G28G27G26G 7G 8G11
  21029470.832    -1113612.48149   -862119.48347  21029470.560    21029477.675
       240.000         207.000
  21597001.393      385387.21749    301231.00747  21597000.618    21597010.325
       233.000         191.000
  23548032.802    -3074346.12249  -2376184.60346  23548032.876    23548042.860
       222.000         167.000
  20947329.160    -4242971.02649  -3284925.07947  20947328.926    20947337.746
       242.000         208.000
  20196392.540    -1482233.31149  -1148035.11348  20196392.139    20196400.153
       245.000         213.000
  23757218.102    -2315877.84249  -1790375.43645  23757219.269    23757229.252
       219.000         153.000
 02  3 20 14 20  0.0000000  0  6G28G27G26G 7G 8G11
  21031241.492    -1104307.97349   -854869.27847  21031241.345    21031248.456
       241.000         208.000
  21606120.293      433307.48849    338571.35047  21606120.634    21606128.966
       235.000         190.000
  23534960.338    -3143042.51649  -2429714.34446  23534961.055    23534969.781
       221.000         167.000
  20936487.502    -4299944.78549  -3329320.25247  20936487.202    20936495.991
       241.000         208.000
  20197374.272    -1477074.55549  -1144015.37948  20197374.019    20197382.260
       245.000         213.000
  23754726.762    -2328970.78749  -1800577.79145  23754727.005    23754738.245
       219.000         151.000
 02  3 20 14 20 30.0000000  0  6G28G27G26G 7G 8G11
  21033040.972    -1094852.10949   -847501.13847  21033040.909    21033047.856
       242.000         208.000
  21615309.996      481597.91249    376200.10447  21615309.692    21615318.871
       233.000         190.000
  23521965.639    -3211330.49149  -2482925.82246  23521965.592    23521974.602
       219.000         167.000
  20925727.639    -4356488.46249  -3373380.29947  20925727.770    20925736.057
       242.000         208.000
  20198425.845    -1471548.85749  -1139709.72247  20198425.571    20198433.601
       245.000         212.000
  23752316.058    -2341639.33049  -1810449.47545  23752315.174    23752327.478
       217.000         151.000
 02  3 20 14 21  0.0000000  0  6G28G27G26G 7G 8G11
  21034869.448    -1085243.92449   -840014.30447  21034869.193    21034876.152
       241.000         208.000
  21624570.058      530260.19049    414118.61347  21624570.282    21624579.362
       234.000         190.000
  23509049.156    -3279206.63349  -2535816.38546  23509048.764    23509057.195
       217.000         165.000
  20915050.217    -4412599.44049  -3417103.16847  20915049.972    20915059.113
       242.000         209.000
  20199547.710    -1465653.59249  -1135116.07548  20199547.364    20199555.716
       246.000         213.000
  23749986.575    -2353880.73949  -1819988.30345  23749986.177    23749998.260
       216.000         150.000
 02  3 20 14 21 30.0000000  0  6G28G27G26G 7G 8G11
  21036726.179    -1075486.62249   -832411.28547  21036725.688    21036733.075
       240.000         206.000
  21633900.832      579292.33849    452325.35047  21633901.082    21633910.082
       234.000         191.000
  23496211.139    -3346670.90449  -2588386.00945  23496210.992    23496220.256
       215.000         161.000
  20904454.823    -4468278.73549  -3460489.66947  20904454.587    20904463.399
       242.000         210.000
  20200739.734    -1459389.86349  -1130235.31848  20200739.009    20200747.490
       245.000         213.000
  23747738.326    -2365695.61149  -1829194.79345  23747737.853    23747748.690
       217.000         150.000
 02  3 20 14 22  0.0000000  0  6G28G27G26G 7G 8G11
  21038611.440    -1065579.63249   -824691.62047  21038611.023    21038618.248
       241.000         206.000
  21643302.233      628696.02049    490821.60047  21643301.914    21643311.633
       234.000         192.000
  23483452.303    -3413719.75349  -2640631.92845  23483453.234    23483460.568
       215.000         159.000
  20893942.107    -4523523.70649  -3503537.72947  20893941.525    20893950.636
       241.000         210.000
  20202002.434    -1452754.72649  -1125065.16547  20202002.005    20202010.115
       245.000         212.000
  23745571.930    -2377080.89249  -1838066.52945  23745571.523    23745583.694
       215.000         150.000
 02  3 20 14 22 30.0000000  0  6G28G27G26G 7G 8G11
  21040524.734    -1055525.78549   -816857.51947  21040524.928    21040531.233
       243.000         207.000
  21652773.833      678469.36449    529605.86947  21652773.557    21652782.676
       233.000         191.000
  23470772.742    -3480353.08749  -2692554.07745  23470773.092    23470781.457
       216.000         160.000
  20883511.789    -4578335.32449  -3546248.11747  20883511.716    20883520.570
       242.000         210.000
  20203335.531    -1445749.29249  -1119606.45947  20203335.212    20203343.316
       245.000         212.000
  23743487.199    -2388037.38349  -1846604.13445  23743488.175    23743498.146
       215.000         149.000
 02  3 20 14 23  0.0000000  0  6G28G27G26G 7G 8G11
  21042466.293    -1045323.72949   -808907.93047  21042466.174    21042472.657
       243.000         207.000
  21662316.271      728614.60349    568679.94647  21662315.951    21662325.388
       232.000         191.000
  23458172.779    -3546566.96149  -2744149.35945  23458173.145    23458181.849
       216.000         161.000
  20873164.653    -4632710.31749  -3588618.27247  20873164.049    20873173.322
       242.000         210.000
  20204739.740    -1438370.24549  -1113856.62747  20204739.440    20204747.585
       245.000         212.000
  23741484.436    -2398561.46549  -1854804.82145  23741484.272    23741495.373
       213.000         148.000
 02  3 20 14 23 30.0000000  0  6G28G27G26G 7G 8G11
  21044435.862    -1034973.94349   -800843.22847  21044435.480    21044442.370
       242.000         206.000
  21671929.447      779132.60349    608044.47647  21671929.425    21671939.308
       233.000         190.000
  23445653.157    -3612358.43949  -2795415.50246  23445653.032    23445662.572
       219.000         164.000
  20862900.835    -4686646.96749  -3630646.86647  20862900.385    20862909.597
       243.000         210.000
  20206215.446    -1430615.58049  -1107814.11747  20206215.498    20206223.148
       246.000         212.000
  23739564.682    -2408650.89549  -1862666.80745  23739565.391    23739575.540
       213.000         148.000
 02  3 20 14 24  0.0000000  0  6G28G27G26G 7G 8G11
  21046432.797    -1024479.94349   -792666.15747  21046432.578    21046439.569
       242.000         206.000
  21681613.373      830020.88949    647697.54347  21681613.621    21681623.142
       234.000         191.000
  23433213.840    -3677727.97749  -2846352.87346  23433214.823    23433222.776
       221.000         165.000
  20852720.192    -4740146.59649  -3672334.92747  20852719.703    20852728.639
       242.000         210.000
  20207762.430    -1422486.86849  -1101480.11548  20207762.247    20207770.676
       245.000         213.000
  23737727.287    -2418307.29449  -1870191.36645  23737726.254    23737738.326
       213.000         149.000
 02  3 20 14 24 30.0000000  0  6G28G27G26G 7G 8G11
  21048457.324    -1013840.90049   -784376.06347  21048457.046    21048464.063
       243.000         207.000
  21691367.946      881280.88049    687640.23747  21691367.459    21691377.505
       231.000         191.000
  23420855.455    -3742672.23649  -2896958.88846  23420855.819    23420864.540
       223.000         165.000
  20842623.118    -4793206.87149  -3713680.63047  20842622.812    20842631.704
       242.000         210.000
  20209380.980    -1413981.56449  -1094852.67048  20209380.347    20209389.268
       245.000         213.000
  23735972.928    -2427527.43849  -1877376.00445  23735972.768    23735984.392
       213.000         148.000
 02  3 20 14 25  0.0000000  0  6G28G27G26G 7G 8G11
  21050509.505    -1003057.02249   -775973.11347  21050509.366    21050516.339
       243.000         207.000
  21701193.041      932913.08549    727872.99947  21701193.576    21701202.583
       233.000         189.000
  23408578.423    -3807188.80349  -2947231.62746  23408578.388    23408587.447
       221.000         165.000
  20832610.043    -4845826.19749  -3754682.73147  20832609.924    20832618.678
       244.000         211.000
  20211071.570    -1405098.06349  -1087930.52948  20211071.446    20211079.435
       246.000         213.000
  23734301.914    -2436309.50549  -1884219.28145  23734301.665    23734312.025
       214.000         148.000
 02  3 20 14 25 30.0000000  0  6G28G27G26G 7G 8G11
  21052589.051     -992129.34849   -767458.12847  21052588.666    21052595.540
       242.000         206.000
  21711089.493      984917.60449    768395.85447  21711089.575    21711099.322
       234.000         190.000
  23396383.016    -3871275.90349  -2997169.70646  23396382.591    23396392.781
       221.000         165.000
  20822681.010    -4898003.94249  -3795340.74947  20822680.588    20822689.619
       244.000         211.000
  20212834.389    -1395835.40349  -1080712.93948  20212834.166    20212841.870
       246.000         213.000
  23732714.282    -2444652.65649  -1890720.52045  23732714.354    23732725.633
       213.000         149.000
 02  3 20 14 26  0.0000000  0  6G28G27G26G 7G 8G11
  21054695.382     -981060.71949   -758833.29447  21054695.428    21054702.283
       244.000         206.000
  21721056.362     1037292.84349    809207.57647  21721056.326    21721066.101
       232.000         189.000
  23384269.596    -3934933.00349  -3046772.72446  23384270.317    23384279.413
       220.000         166.000
  20812835.888    -4949740.25049  -3835654.78947  20812835.584    20812844.468
       245.000         211.000
  20214669.245    -1386193.95549  -1073200.19548  20214669.106    20214676.796
       245.000         214.000
  23731210.085    -2452556.84949  -1896879.72345  23731210.055    23731221.070
       214.000         149.000
 02  3 20 14 26 30.0000000  0  6G28G27G26G 7G 8G11
  21056829.011     -969849.21449   -750097.13447  21056828.811    21056835.817
       244.000         207.000
  21731094.200     1090041.41249    850310.19847  21731094.366    21731103.805
       232.000         189.000
  23372238.788    -3998155.52949  -3096037.09946  23372238.206    23372248.828
       219.000         168.000
  20803075.449    -5001031.90049  -3875622.34247  20803075.391    20803084.079
       246.000         212.000
  20216576.720    -1376170.28049  -1065389.60848  20216575.936    20216584.402
       244.000         213.000
  23729790.215    -2460018.47449  -1902694.08045  23729790.208    23729801.773
       213.000         149.000
 02  3 20 14 27  0.0000000  0  6G28G27G26G 7G 8G11
  21058989.367     -958496.57249   -741251.00147  21058989.295    21058996.185
       245.000         207.000
  21741202.854     1143162.46949    891703.09447  21741203.008    21741213.143
       232.000         190.000
  23360290.665    -4060942.48249  -3144962.07546  23360291.117    23360300.365
       221.000         169.000
  20793399.803    -5051878.77349  -3915243.31648  20793399.649    20793408.460
       246.000         213.000
  20218556.892    -1365764.13449  -1057280.99248  20218556.784    20218564.795
       245.000         213.000
  23728454.735    -2467037.25949  -1908163.33745  23728453.793    23728465.435
       217.000         149.000
 02  3 20 14 27 30.0000000  0  6G28G27G26G 7G 8G11
  21061176.247     -947005.38549   -732296.91147  21061176.281    21061182.693
       245.000         208.000
  21751382.128     1196654.29349    933384.88047  21751381.772    21751391.508
       231.000         188.000
  23348425.757    -4123293.63149  -3193547.46246  23348425.901    23348435.467
       222.000         170.000
  20783808.482    -5102281.81749  -3954518.45248  20783808.089    20783817.028
       246.000         213.000
  20220609.932    -1354976.14549  -1048874.83848  20220609.463    20220617.569
       245.000         214.000
  23727203.462    -2473613.72049  -1913287.93845  23727202.969    23727213.278
       215.000         149.000
 02  3 20 14 28  0.0000000  0  6G28G27G26G 7G 8G11
  21063389.630     -935374.71549   -723234.11747  21063389.199    21063396.177
       245.000         208.000
  21761632.221     1250518.66449    975356.97846  21761632.545    21761642.061
       231.000         187.000
  23336644.558    -4185205.23249  -3241790.33446  23336645.227    23336653.839
       221.000         170.000
  20774302.217    -5152237.83249  -3993445.24848  20774301.970    20774310.769
       246.000         213.000
  20222736.131    -1343803.47649  -1040168.94048  20222735.801    20222743.677
       245.000         214.000
  23726036.809    -2479744.77649  -1918065.46345  23726036.986    23726047.247
       216.000         147.000
 02  3 20 14 28 30.0000000  0  6G28G27G26G 7G 8G11
  21065629.111     -923606.17549   -714063.89947  21065628.709    21065635.816
       244.000         207.000
  21771953.156     1304754.71549   1017618.68947  21771953.650    21771963.478
       232.000         188.000
  23324947.130    -4246676.36849  -3289689.97546  23324946.935    23324956.252
       219.000         168.000
  20764880.981    -5201747.15449  -4032023.96348  20764880.452    20764889.416
       246.000         213.000
  20224935.555    -1332245.98749  -1031163.17648  20224935.049    20224943.257
       245.000         214.000
  23724955.043    -2485429.37649  -1922495.12045  23724954.945    23724966.371
       215.000         145.000
 02  3 20 14 29  0.0000000  0  6G28G27G26G 7G 8G11
  21067894.757     -911700.14849   -704786.55647  21067894.330    21067901.632
       244.000         207.000
  21782344.865     1359362.66649   1060170.17747  21782344.966    21782355.766
       232.000         189.000
  23313333.824    -4307704.66749  -3337244.55846  23313333.755    23313342.647
       221.000         167.000
  20755544.921    -5250808.50749  -4070253.62448  20755544.645    20755553.445
       246.000         213.000
  20227208.458    -1320302.27049  -1021856.45648  20227208.135    20227216.411
       245.000         214.000
  23723958.562    -2490666.63649  -1926576.17345  23723958.285    23723969.524
       214.000         143.000
 02  3 20 14 29 30.0000000  0  6G28G27G26G 7G 8G11
  21070186.110     -899659.08549   -695403.99147  21070185.764    21070192.978
       244.000         207.000
  21792807.106     1414341.03549   1103010.31247  21792807.783    21792817.764
       234.000         190.000
  23301804.834    -4368289.85549  -3384453.86146  23301805.176    23301814.381
       222.000         168.000
  20746294.006    -5299422.41949  -4108134.62148  20746293.440    20746302.462
       246.000         213.000
  20229554.715    -1307972.97049  -1012249.28548  20229554.041    20229562.586
       244.000         214.000
  23723047.159    -2495456.93549  -1930308.94445  23723047.396    23723059.334
       215.000         142.000
 02  3 20 14 30  0.0000000  0  6G28G27G26G 7G 8G11
  21072503.492     -887481.56949   -685915.09247  21072503.399    21072510.323
       245.000         208.000
  21803340.361     1469692.13749   1146140.86847  21803341.201    21803350.385
       234.000         190.000
  23290361.142    -4428427.77149  -3431314.63546  23290361.109    23290370.043
       222.000         168.000
  20737128.832    -5347585.72649  -4145664.50048  20737128.605    20737137.297
       246.000         213.000
  20231974.968    -1295254.48449  -1002338.85148  20231974.206    20231982.748
       244.000         214.000
  23722221.346    -2499796.53249  -1933690.54545  23722222.307    23722232.832
       212.000         139.000
 02  3 20 14 30 30.0000000  0  6G28G27G26G 7G 8G11
  21074846.629     -875168.90349   -676320.88747  21074846.547    21074853.357
       244.000         208.000
  21813944.196     1525415.05249   1189561.17447  21813943.991    21813954.194
       232.000         189.000
  23279002.669    -4488117.19849  -3477825.95846  23279003.111    23279011.508
       223.000         168.000
  20728049.465    -5395298.53949  -4182843.34848  20728048.970    20728057.805
       245.000         213.000
  20234469.287    -1282146.76049   -992125.11948  20234468.779    20234477.064
       244.000         213.000
  23721481.185    -2503685.33749  -1936720.84245  23721480.861    23721492.460
       212.000         139.000
 02  3 20 14 31  0.0000000  0  6G28G27G26G 7G 8G11
  21077215.288     -862722.03649   -666622.10747  21077214.938    21077222.374
       244.000         209.000
  21824618.737     1581509.75449   1233271.17347  21824619.181    21824629.051
       232.000         188.000
  23267729.905    -4547356.25649  -3523986.32846  23267731.095    23267738.100
       224.000         168.000
  20719055.849    -5442559.64549  -4219670.21847  20719055.406    20719064.336
       245.000         212.000
  20237037.916    -1268648.55049   -981607.11748  20237037.610    20237045.671
       244.000         214.000
  23720827.282    -2507122.20449  -1939399.02145  23720827.763    23720839.001
       212.000         137.000
 02  3 20 14 31 30.0000000  0  6G28G27G26G 7G 8G11
  21079609.305     -850141.75149   -656819.37047  21079609.020    21079616.558
       243.000         209.000
  21835364.048     1637975.85649   1277270.56746  21835363.922    21835373.773
       231.000         187.000
  23256543.205    -4606143.28049  -3569794.47946  23256543.320    23256552.010
       224.000         167.000
  20710148.477    -5489368.66149  -4256144.80747  20710148.123    20710157.074
       245.000         212.000
  20239681.003    -1254759.18449   -970784.30848  20239680.491    20239688.947
       245.000         214.000
  23720259.694    -2510105.93049  -1941724.08045  23720261.305    23720271.596
       207.000         135.000
 02  3 20 14 32  0.0000000  0  6G28G27G26G 7G 8G11
  21082028.411     -837429.27349   -646913.61847  21082028.136    21082035.376
       243.000         208.000
  21846179.881     1694812.79649   1321558.93146  21846179.804    21846190.277
       230.000         187.000
  23245442.723    -4664477.02549  -3615249.40146  23245443.235    23245450.143
       221.000         166.000
  20701327.161    -5535725.16649  -4292266.78948  20701326.640    20701335.860
       245.000         213.000
  20242398.584    -1240478.02449   -959656.20748  20242398.049    20242406.498
       245.000         214.000
  23719778.030    -2512636.14849  -1943695.74045  23719777.110    23719790.284
       208.000         133.000
 02  3 20 14 32 30.0000000  0  6G28G27G26G 7G 8G11
  21084472.726     -824584.72949   -636904.95647  21084472.493    21084479.664
       244.000         208.000
  21857066.373     1752021.32749   1366136.84046  21857066.228    21857076.554
       230.000         187.000
  23234428.844    -4722354.87249  -3660349.07946  23234429.459    23234438.526
       220.000         165.000
  20692592.230    -5581627.65949  -4328034.99648  20692592.216    20692600.840
       246.000         213.000
  20245191.043    -1225803.60149   -948221.67348  20245190.646    20245199.313
       245.000         215.000
  23719383.200    -2514711.04949  -1945312.63744  23719383.183    23719397.839
       202.000         130.000
 02  3 20 14 33  0.0000000  0  6G28G27G26G 7G 8G11
  21086942.087     -811608.72649   -626793.86347  21086942.154    21086948.988
       244.000         209.000
  21868023.377     1809601.46049   1411004.31146  21868022.743    21868034.608
       230.000         186.000
  23223502.295    -4779774.86949  -3705091.99046  23223501.904    23223510.662
       220.000         163.000
  20683943.925    -5627075.21649  -4363448.71048  20683943.594    20683952.720
       246.000         213.000
  20248058.683    -1210734.59749   -936479.67348  20248058.341    20248066.686
       246.000         215.000
  23719075.503    -2516329.18049  -1946573.60644  23719074.037    23719085.199
       204.000         128.000
 02  3 20 14 33 30.0000000  0  6G28G27G26G 7G 8G11
  21089436.461     -798501.30849   -616580.35747  21089436.307    21089443.189
       244.000         209.000
  21879051.313     1867553.67049   1456161.71846  21879050.608    21879060.893
       226.000         185.000
  23212663.244    -4836734.52049  -3749476.19746  23212663.268    23212673.045
       221.000         165.000
  20675382.470    -5672066.30849  -4398506.73048  20675382.031    20675391.194
       245.000         213.000
  20251001.708    -1195269.48449   -924429.01648  20251001.403    20251009.888
       247.000         215.000
  23718854.617    -2517489.13949  -1947477.56744  23718854.289    23718866.675
       205.000         128.000
 02  3 20 14 34  0.0000000  0  6G28G27G26G 7G 8G11
  21091955.245     -785265.24349   -606266.60947  21091954.624    21091961.892
       243.000         208.000
  21890149.549     1925875.91449   1501607.45646  21890149.195    21890160.220
       227.000         183.000
  23201911.786    -4893234.06449  -3793501.86346  23201912.500    23201921.709
       224.000         171.000
  20666907.536    -5716602.28849  -4433210.12247  20666907.138    20666915.985
       244.000         212.000
  20254019.896    -1179409.02349   -912070.29348  20254019.684    20254027.982
       247.000         215.000
  23718721.249    -2518191.79249  -1948025.15844  23718720.731    23718733.215
       201.000         128.000
 02  3 20 14 34 30.0000000  0  6G28G27G26G 7G 8G11
  21094498.543     -771900.27949   -595852.42647  21094498.123    21094505.172
       242.000         207.000
  21901318.573     1984568.68849   1547341.91946  21901319.642    21901329.843
       230.000         185.000
  23191248.383    -4949271.06949  -3837167.11646  23191248.193    23191258.169
       223.000         174.000
  20658519.500    -5760681.72649  -4467557.77047  20658519.185    20658528.122
       244.000         212.000
  20257113.652    -1163151.94249   -899402.52148  20257113.362    20257121.904
       247.000         215.000
  23718674.926    -2518435.54249  -1948215.17844  23718673.694    23718685.924
       201.000         126.000
 02  3 20 14 35  0.0000000  0  6G28G27G26G 7G 8G11
  21097066.028     -758407.90949   -585338.95847  21097065.725    21097072.843
       242.000         207.000
  21912558.102     2043631.23449   1593364.52546  21912559.761    21912569.329
       232.000         186.000
  23180673.041    -5004844.41449  -3880471.07846  23180673.074    23180682.582
       224.000         175.000
  20650218.368    -5804304.55249  -4501549.61247  20650217.842    20650227.072
       243.000         212.000
  20260282.931    -1146497.62149   -886425.20948  20260282.588    20260291.166
       247.000         216.000
  23718715.995    -2518219.76049  -1948047.10644  23718715.695    23718728.260
       203.000         126.000
 02  3 20 14 35 30.0000000  0  6G28G27G26G 7G 8G11
  21099657.724     -744788.33149   -574726.36547  21099657.071    21099664.478
       241.000         206.000
  21923868.045     2103063.86449   1639675.49646  21923868.202    21923878.561
       230.000         186.000
  23170186.715    -5059951.83649  -3923411.99846  23170187.443    23170196.257
       224.000         175.000
  20642004.409    -5847469.51149  -4535184.67847  20642004.038    20642012.992
       244.000         212.000
  20263528.074    -1129444.77649   -873137.35348  20263527.662    20263536.510
       246.000         215.000
  23718844.695    -2517542.99749  -1947519.83244  23718843.616    23718853.218
       204.000         123.000
 02  3 20 14 36  0.0000000  0  6G28G27G26G 7G 8G11
  21102273.345     -731042.88549   -564015.68947  21102272.821    21102280.382
       241.000         206.000
  21935248.059     2162865.81149   1686274.23946  21935247.184    21935259.182
       229.000         185.000
  23159788.953    -5114592.20749  -3965988.95646  23159788.932    23159798.629
       222.000         174.000
  20633877.620    -5890176.38849  -4568462.79247  20633877.294    20633886.243
       243.000         212.000
  20266849.004    -1111993.04749   -859538.67748  20266848.942    20266857.325
       247.000         215.000
  23719061.369    -2516405.00749  -1946633.17344  23719063.394    23719074.352
       201.000         122.000
 02  3 20 14 36 30.0000000  0  6G28G27G26G 7G 8G11
  21104912.895     -717171.95149   -553207.24247  21104912.673    21104919.841
       242.000         207.000
  21946698.488     2223037.12649   1733160.80346  21946698.657    21946709.830
       230.000         186.000
  23149480.620    -5168763.58249  -4008200.47046  23149481.168    23149490.153
       220.000         172.000
  20625838.029    -5932424.52949  -4601383.45547  20625837.580    20625846.541
       243.000         211.000
  20270246.229    -1094141.13649   -845628.18848  20270246.011    20270254.578
       247.000         215.000
  23719366.019    -2514804.50649  -1945386.11744  23719362.317    23719379.060
       202.000         123.000
 02  3 20 14 37  0.0000000  0  6G28G27G26G 7G 8G11
  21107576.554     -703174.57849   -542300.26347  21107576.179    21107583.871
       242.000         208.000
  21958219.402     2283579.30849   1780336.36246  21958219.801    21958230.625
       231.000         186.000
  23139262.105    -5222462.46049  -4050043.80546  23139262.442    23139272.176
       218.000         170.000
  20617886.315    -5974211.37549  -4633944.65947  20617885.645    20617894.687
       244.000         211.000
  20273719.971    -1075886.50349   -831403.87248  20273719.166    20273728.166
       246.000         214.000
  23719759.005    -2512739.01049  -1943776.74244  23719760.801    23719770.040
       203.000         123.000
 02  3 20 14 37 30.0000000  0  6G28G27G26G 7G 8G11
  21110263.640     -689054.17249   -531297.42047  21110263.489    21110271.003
       242.000         209.000
  21969810.337     2344489.11449   1827798.38246  21969810.047    21969821.424
       230.000         186.000
  23129133.135    -5275690.27349  -4091520.07146  23129132.964    23129141.929
       219.000         167.000
  20610021.832    -6015539.39149  -4666148.34047  20610021.399    20610030.375
       243.000         211.000
  20277269.759    -1057231.36649   -816867.47948  20277269.698    20277278.208
       248.000         214.000
  23720240.262    -2510210.68749  -1941806.73744  23720241.758    23720250.840
       201.000         124.000
 02  3 20 14 38  0.0000000  0  6G28G27G26G 7G 8G11
  21112974.714     -674807.79049   -520196.42147  21112974.602    21112982.008
       242.000         209.000
  21981471.751     2405770.03849   1875549.58946  21981471.494    21981483.213
       229.000         186.000
  23119094.782    -5328441.60349  -4132625.08646  23119095.074    23119104.383
       221.000         167.000
  20602245.491    -6056404.15249  -4697991.04547  20602244.993    20602253.829
       243.000         211.000
  20280897.041    -1038171.02849   -802015.34848  20280896.767    20280905.184
       247.000         214.000
  23720810.649    -2507214.68249  -1939472.26244  23720807.497    23720819.441
       202.000         124.000
 02  3 20 14 38 30.0000000  0  6G28G27G26G 7G 8G11
  21115709.202     -660438.70249   -508999.80147  21115709.219    21115716.716
       242.000         208.000
  21993203.215     2467418.90049   1923587.48446  21993203.032    21993214.031
       230.000         185.000
  23109147.117    -5380717.47549  -4173359.61646  23109147.300    23109156.607
       224.000         171.000
  20594556.976    -6096807.86849  -4729474.48747  20594556.305    20594565.718
       242.000         211.000
  20284600.931    -1018707.26749   -786848.86448  20284600.403    20284609.250
       246.000         214.000
  23721469.324    -2503753.21149  -1936775.09544  23721468.059    23721480.799
       199.000         122.000
 02  3 20 14 39  0.0000000  0  6G28G27G26G 7G 8G11
  21118466.781     -645947.80149   -497708.24747  21118466.230    21118473.744
       241.000         207.000
  22005004.567     2529435.59249   1971912.00646  22005005.142    22005015.420
       230.000         185.000
  23099290.164    -5432516.36949  -4213722.44946  23099290.364    23099300.120
       225.000         174.000
  20586956.211    -6136749.98849  -4760598.23747  20586955.817    20586965.038
       242.000         211.000
  20288381.752     -998839.35849   -771367.45448  20288381.506    20288390.706
       246.000         214.000
  23722216.773    -2499825.25348  -1933714.41844  23722213.703    23722227.383
       192.000         120.000
 02  3 20 14 39 30.0000000  0  6G28G27G26G 7G 8G11
  21121247.817     -631333.33849   -486320.41647  21121247.465    21121254.937
       242.000         207.000
  22016876.514     2591821.95049   2020524.58546  22016877.133    22016888.059
       231.000         186.000
  23089524.702    -5483834.41849  -4253710.61246  23089525.494    23089534.216
       225.000         175.000
  20579443.813    -6176227.77449  -4791360.18047  20579443.348    20579452.848
       241.000         211.000
  20292240.181     -978564.23849   -755568.74048  20292239.835    20292248.956
       246.000         214.000
  23723053.395    -2495427.87948  -1930287.99844  23723054.021    23723068.094
       193.000         117.000
 02  3 20 14 40  0.0000000  0  6G28G27G26G 7G 8G11
  21124051.643     -616599.24049   -474839.35947  21124051.334    21124058.845
       241.000         206.000
  22028818.179     2654574.55049   2069422.56946  22028818.346    22028829.425
       230.000         187.000
  23079850.499    -5534673.23849  -4293325.32946  23079850.592    23079859.581
       222.000         175.000
  20572019.263    -6215243.77749  -4821762.28547  20572018.808    20572028.372
       242.000         211.000
  20296175.470     -957884.09249   -739454.40948  20296175.330    20296184.277
       246.000         213.000
  23723978.873    -2490563.17348  -1926497.44544  23723973.275    23723988.372
       192.000         113.000
 02  3 20 14 40 30.0000000  0  6G28G27G26G 7G 8G11
  21126878.564     -601743.70249   -463263.67247  21126878.227    21126885.821
       242.000         207.000
  22040829.876     2717695.40349   2118607.47346  22040831.000    22040841.039
       232.000         186.000
  23070268.127    -5585028.80949  -4332563.47346  23070268.745    23070277.609
       220.000         173.000
  20564683.232    -6253795.14749  -4851802.34347  20564683.006    20564692.132
       242.000         211.000
  20300188.455     -936795.95349   -723022.17648  20300188.232    20300197.045
       245.000         213.000
  23724994.000    -2485228.22748  -1922340.44944  23724993.109
       189.000         108.000
 02  3 20 14 41  0.0000000  0  6G28G27G26G 7G 8G11
  21129728.004     -586770.51249   -451596.32147  21129728.024    21129735.338
       243.000         208.000
  22052910.996     2781180.87349   2168076.51446  22052911.197    22052922.678
       230.000         187.000
  23060777.435    -5634902.80849  -4371426.37246  23060777.586    23060786.475
       220.000         172.000
  20557435.088    -6291884.59249  -4881482.45547  20557434.804    20557444.024
       242.000         211.000
  20304278.662     -915302.09649   -706273.78748  20304278.181    20304287.126
       245.000         213.000
  23726098.241    -2479425.40948  -1917818.91644  23726098.384    23726108.350
       191.000         107.000
 02  3 20 14 41 30.0000000  0  6G28G27G26G 7G 8G11
  21132600.415     -571676.66349   -439834.95047  21132600.425    21132608.288
       244.000         209.000
  22065061.912     2845034.37549   2217832.31746  22065060.886    22065073.314
       229.000         186.000
  23051379.414    -5684290.11049  -4409910.02946  23051379.812    23051389.042
       221.000         171.000
  20550275.571    -6329507.98449  -4910799.41047  20550275.250    20550284.356
       242.000         211.000
  20308446.773     -893398.16049   -689205.86147  20308446.225    20308455.172
       245.000         212.000
                  -2473150.55148  -1912929.48544  23727305.974
       190.000         107.000
 02  3 20 14 42  0.0000000  0  6G28G27G26G 7G 8G11
  21135495.211     -556465.21649   -427981.94047  21135495.011    21135502.490
       243.000         210.000
  22077282.385     2909253.01149   2267872.63846  22077282.256    22077292.752
       230.000         184.000
  23042073.784    -5733191.64349  -4448015.18646  23042073.804    23042082.460
       223.000         170.000
  20543204.453    -6366667.45849  -4939754.87247  20543204.465    20543212.991
       243.000         211.000
  20312692.726     -871085.74549   -671819.64747  20312692.665    20312701.293
       246.000         212.000
  23728576.108    -2466405.47448  -1907673.70644  23728573.171
       188.000         107.000
 02  3 20 14 42 30.0000000  0  6G28G27G26G 7G 8G11
  21138412.424     -541135.28749   -416036.62047  21138412.172    21138419.649
       242.000         209.000
  22089572.657     2973837.90549   2318198.36946  22089573.476    22089584.104
       231.000         185.000
  23032861.146    -5781604.47749  -4485739.57146  23032861.212    23032870.005
       224.000         167.000
  20536222.004    -6403360.99349  -4968347.25847  20536221.430    20536230.854
       243.000         211.000
  20317016.983     -848362.77749   -654113.52547  20317016.932    20317025.351
       245.000         212.000
  23729949.550    -2459187.75848  -1902049.67644  23729947.419
       184.000         105.000
 02  3 20 14 43  0.0000000  0  6G28G27G26G 7G 8G11
  21141351.878     -525688.44649   -404000.20147  21141351.367    21141359.487
       242.000         209.000
  22101932.541     3038787.65849   2368808.38747  22101933.050    22101943.865
       232.000         188.000
  23023741.804    -5829528.00849  -4523082.66546  23023741.855    23023750.662
       226.000         167.000
  20529327.938    -6439589.12549  -4996577.00247  20529327.792    20529336.650
       243.000         211.000
  20321419.276     -825229.20249   -636087.44847  20321418.485    20321427.877
       244.000         212.000
                  -2451497.87348  -1896057.69944
       187.000         104.000
 02  3 20 14 43 30.0000000  0  6G28G27G26G 7G 8G11
  21144313.166     -510126.66949   -391874.22047  21144313.017    21144321.030
       242.000         209.000
  22114361.401     3104100.40449   2419701.24547  22114361.396    22114373.183
       230.000         189.000
  23014715.525    -5876962.25549  -4560044.50046  23014716.154    23014724.837
       224.000         169.000
  20522522.445    -6475352.84849  -5024444.86447  20522522.054    20522530.737
       243.000         211.000
  20325899.298     -801685.91349   -617742.11547  20325899.123    20325908.025
       246.000         212.000
                  -2443336.49948   1785031.76843
       189.000          74.000
 02  3 20 14 44  0.0000000  0  6G28G27G26G 7G 8G11
  21147296.510     -494449.21349   -379658.09447  21147296.132    21147304.403
       242.000         209.000
  22126859.231     3169777.08749   2470877.70746  22126858.964    22126870.405
       229.000         187.000
  23005782.728    -5923904.42449  -4596622.86446  23005782.368    23005792.550
       223.000         171.000
  20515805.521    -6510650.46849  -5051949.53747  20515805.234    20515814.379
       243.000         211.000
  20330458.008     -777730.74049   -599075.82748  20330458.067    20330466.509
       245.000         213.000
                  -2434701.97948   1791715.17243
       187.000          74.000
 02  3 20 14 44 30.0000000  0  6G28G27G26G 7G 8G11
  21150302.146     -478654.92249   -367350.92847  21150301.971    21150309.548
       242.000         209.000
  22139426.528     3235819.23649   2522338.93746  22139427.223    22139438.145
       231.000         186.000
  22996944.321    -5970351.08749  -4632815.09446  22996944.487    22996954.222
       223.000         172.000
  20509177.794    -6545479.74949  -5079089.26447  20509177.572    20509186.651
       243.000         211.000
  20335095.480     -753360.97349   -580086.48547  20335095.077    20335104.077
       244.000         212.000
                  -2425591.38748   1798692.12443
       188.000          74.000
 02  3 20 14 45  0.0000000  0  6G28G27G26G 7G 8G11
  21153329.535     -462745.94249   -354954.39147  21153329.185    21153337.056
       243.000         209.000
  22152063.211     3302224.52049   2574083.13246  22152063.715    22152074.241
       230.000         185.000
  22988199.978    -6016302.69249  -4668621.57946  22988199.870    22988210.221
       222.000         174.000
  20502638.891    -6579842.13349  -5105865.17947  20502638.529    20502647.568
       243.000         211.000
  20339811.525     -728578.08349   -560775.22847  20339811.112    20339820.272
       245.000         212.000
                  -2416006.11748   1882784.29043
       184.000          74.000
 02  3 20 14 45 30.0000000  0  6G28G27G26G 7G 8G11
  21156378.904     -446721.63049   -342467.98947  21156378.674    21156386.980
       243.000         209.000
  22164769.026     3368993.49249   2626110.71646  22164769.070    22164780.348
       231.000         186.000
  22979550.304    -6061757.07149  -4704040.62446  22979550.678    22979559.113
       225.000         174.000
  20496189.091    -6613736.28249  -5132276.23547  20496188.614    20496197.832
       242.000         211.000
  20344606.566     -703380.06449   -541140.49247  20344605.663    20344615.295
       243.000         212.000
                  -2405944.40858   1890625.00243
       184.000          74.000
 02  3 20 14 46  0.0000000  0  6G28G27G26G 7G 8G11
  21159449.505     -430585.59749   -329894.53147  21159449.148    21159457.600
       244.000         209.000
  22177543.563     3436122.64049   2678418.95547  22177543.706    22177555.768
       231.000         188.000
  22970995.177    -6106715.67849  -4739073.38746  22970994.841    22971004.731
       225.000         175.000
  20489827.763    -6647164.99449  -5158324.61847  20489827.378    20489836.450
       242.000         210.000
  20349480.074     -677769.32449   -521184.16347  20349479.958    20349488.968
       244.000         212.000
                  -2395408.76848   1898835.74443
       182.000          74.000
 02  3 20 14 46 30.0000000  0  6G28G27G26G 7G 8G11
  21162542.031     -414334.80849   -317231.65447  21162541.837    21162549.840
       244.000         209.000
  22190387.020     3503614.92249   2731010.14946  22190387.235    22190399.138
       230.000         187.000
  22962535.076    -6151173.72449  -4773716.08846  22962535.837    22962544.508
       224.000         175.000
  20483555.773    -6680124.45649  -5184007.34847  20483555.510    20483564.751
       242.000         210.000
  20354433.041     -651741.80449   -500903.05847  20354432.829    20354441.863
       244.000         212.000
                  -2384395.07148   1980360.84743
       183.000          74.000
 02  3 20 14 47  0.0000000  0  6G28G27G26G 7G 8G11
  21165655.736     -397972.73049   -304482.05847  21165655.661    21165663.599
       244.000         208.000
  22203299.047     3571467.10649   2783881.77646  22203299.925    22203309.894
       231.000         187.000
  22954170.050    -6195132.50049  -4807969.74846  22954169.709    22954179.626
       225.000         175.000
  20477372.622    -6712617.07049  -5209326.29847  20477372.230    20477381.699
       242.000         211.000
  20359464.967     -625299.33549   -480298.61547  20359464.636    20359473.887
       245.000         212.000
                  -2372905.84448   1989313.25643
       186.000          74.000
 02  3 20 14 47 30.0000000  0  6G28G27G26G 7G 8G11
  21168790.908     -381497.89649   -291644.60447  21168790.921    21168798.702
       245.000         208.000
  22216279.928     3639680.89549   2837035.20246  22216280.219    22216291.623
       231.000         187.000
  22945900.788    -6238588.66449  -4841831.76946  22945900.594    22945910.395
       226.000         176.000
  20471278.837    -6744640.32749  -5234279.51847  20471278.559    20471287.890
       242.000         211.000
  20364576.393     -598439.26049   -459368.77548  20364575.857    20364585.223
       243.000         213.000
                  -2360938.62448   1998636.98143
       185.000          74.000
 02  3 20 14 48  0.0000000  0  6G28G27G26G 7G 8G11
  21171947.053     -364913.03049   -278721.40247  21171946.746    21171954.712
       244.000         207.000
  22229329.157     3708253.70049   2890468.36046  22229329.375    22229340.426
       231.000         186.000
  22937726.759    -6281543.15549  -4875302.85246  22937727.861    22937736.183
       226.000         176.000
  20465273.968    -6776196.36749  -5258868.67447  20465273.536    20465282.586
       242.000         211.000
  20369766.815     -571163.25549   -438114.82548  20369766.584    20369775.805
       244.000         213.000
                  -2348495.058 8   2008002.759 1
       180.000
 02  3 20 14 48 30.0000000  0  6G28G27G26G 7G 8G11
  21175124.236     -348216.92049   -265711.52547  21175123.707    21175131.649
       243.000         206.000
  22242446.660     3777186.60149   2944182.10046  22242446.405    22242458.309
       228.000         185.000
  22929648.922    -6323992.71749  -4908380.51146  22929649.264    22929658.894
       226.000         177.000
  20459358.354    -6807283.11849  -5283092.15747  20459358.421    20459367.365
       243.000         212.000
  20375036.992     -543468.84049   -416534.84548  20375036.786    20375046.225
       245.000         213.000
                  -2335573.17348   2087829.72043
       177.000          74.000
 02  3 20 14 49  0.0000000  0  6G28G27G26G 7G 8G11
  21178322.324     -331410.49249   -252615.67947  21178322.013    21178330.119
       244.000         206.000
  22255632.410     3846478.16849   2998175.34746  22255632.146    22255644.029
       230.000         185.000
  22921667.228    -6365937.01049  -4941064.42946  22921667.560    22921677.492
       225.000         177.000
  20453532.050    -6837901.18849  -5306950.42847  20453531.954    20453541.023
       243.000         212.000
  20380386.721     -515356.14349   -394628.92048  20380386.702    20380396.010
       246.000         214.000
                  -2322172.78448   2098296.07143
       185.000          74.000
 02  3 20 14 49 30.0000000  0  6G28G27G26G 7G 8G11
  21181541.719     -314492.97849   -239433.28347  21181541.694    21181549.261
       244.000         206.000
  22268886.745     3916128.85249   3052448.40946  22268886.331    22268898.608
       228.000         184.000
  22913782.062    -6407373.92949  -4973352.97346  22913782.478    22913791.998
       225.000         176.000
  20447795.069    -6868049.52049  -5330442.66847  20447794.886    20447803.940
       243.000         212.000
  20385816.376     -486823.79649   -372396.00348  20385816.123    20385825.560
       245.000         214.000
                  -2308292.79148   2109136.16043
       179.000          74.000
 02  3 20 14 50  0.0000000  0  6G28G27G26G 7G 8G11
  21184781.686     -297466.65649   -226166.07747  21184781.371    21184788.986
       244.000         206.000
  22282208.939     3986136.69349   3106999.77846  22282209.078    22282221.371
       229.000         184.000
  22905993.581    -6448303.38249  -5005246.12246  22905994.500    22906003.726
       227.000         175.000
  20442147.226    -6897729.29949  -5353569.79747  20442146.556    20442156.236
       242.000         212.000
  20391325.713     -457872.50449   -349836.63048  20391325.079    20391334.717
       246.000         214.000
                  -2293933.83048   2186172.03543
       182.000          74.000
 02  3 20 14 50 30.0000000  0  6G28G27G26G 7G 8G11
  21188042.362     -280332.16349   -212814.59647  21188042.274    21188049.943
       245.000         206.000
  22295599.050     4056500.98049   3161828.89046  22295599.068    22295610.700
       228.000         184.000
  22898301.807    -6488724.49749  -5036743.15646  22898301.376    22898312.036
       227.000         175.000
  20436588.500    -6926940.28149  -5376331.63147  20436588.104    20436597.602
       242.000         211.000
  20396914.771     -428501.73549   -326950.40048  20396914.410    20396923.636
       245.000         214.000
                  -2279096.12648   2197705.83943
       183.000          74.000
 02  3 20 14 51  0.0000000  0  6G28G27G26G 7G 8G11
  21191323.543     -263090.24949   -199379.41347  21191323.592    21191331.448
       245.000         207.000
  22309056.586     4127220.62649   3216934.89946  22309056.961    22309067.995
       228.000         182.000
  22890706.750    -6528636.39749  -5067843.40646  22890707.363    22890717.111
       227.000         176.000
  20431118.992    -6955682.88349  -5398728.49447  20431118.421    20431128.007
       240.000         211.000
  20402583.742     -398711.41649   -303737.25148  20402583.665    20402592.660
       246.000         214.000
                  -2263779.48948   2209612.86343
       178.000          74.000
 02  3 20 14 51 30.0000000  0  5G28G27G26G 7G 8
  21194625.767     -245737.45249   -185857.82347  21194625.806    21194633.354
       245.000         208.000
  22322582.360     4198299.20349   3272320.60346  22322583.177    22322593.844
       228.000         181.000
  22883209.775    -6568033.78549  -5098542.72246  22883209.883    22883218.624
       226.000         176.000
  20425739.339    -6983952.87049  -5420757.08747  20425738.795    20425748.104
       241.000         210.000
  20408333.528     -368496.77849   -280193.46248  20408333.115    20408342.396
       246.000         214.000
 02  3 20 14 52  0.0000000  0  5G28G27G26G 7G 8
  21197948.656     -228276.26649   -172251.77847  21197948.376    21197956.345
       245.000         208.000
  22336176.217     4269733.62249   3327983.57746  22336176.577    22336188.049
       229.000         182.000
  22875810.333    -6606918.01849  -5128842.17946  22875810.166    22875819.988
       223.000         175.000
  20420449.251    -7011752.51149  -5442419.16747  20420448.538    20420458.609
       240.000         210.000
  20414163.577     -337859.82349   -256320.58648  20414163.059    20414172.663
       247.000         215.000
 02  3 20 14 52 30.0000000  0  5G28G27G26G 7G 8
  21201291.440     -210710.35249   -158564.14347  21201291.212    21201298.730
       244.000         208.000
  22349836.905     4341519.97749   3383920.79346  22349836.260    22349849.781
       226.000         181.000
  22868508.020    -6645290.97549  -5158743.23246  22868508.181    22868518.662
       223.000         174.000
  20415247.943    -7039084.86549  -5463717.12747  20415247.468    20415257.212
       241.000         210.000
  20420073.597     -306803.07449   -232120.60948  20420073.227    20420082.482
       247.000         215.000
 02  3 20 14 53  0.0000000  0  5G28G27G26G 7G 8
  21204654.563     -193036.97349   -144792.75347  21204654.223    21204662.494
       245.000         208.000
  22363564.889     4413661.01949   3440134.36646  22363565.076    22363576.961
       225.000         179.000
  22861304.043    -6683148.40149  -5188242.58046  22861304.558    22861313.905
       223.000         175.000
  20410136.358    -7065946.72149  -5484648.47147  20410136.067    20410145.607
       241.000         211.000
  20426064.102     -275322.88549   -207590.68048  20426063.890    20426073.054
       246.000         215.000
 02  3 20 14 53 30.0000000  0  5G28G27G26G 7G 8
  21208037.486     -175259.75649   -130940.45247  21208036.902    21208044.798
       243.000         207.000
  22377359.649     4486152.88449   3496621.32846  22377359.726    22377371.801
       226.000         178.000
  22854197.673    -6720492.37549  -5217341.82746  22854197.528    22854208.196
       222.000         176.000
  20405113.783    -7092341.07949  -5505215.53447  20405113.584    20405122.855
       241.000         211.000
  20432134.735     -243421.96449   -182732.90248  20432134.178    20432143.700
       246.000         215.000
 02  3 20 14 54  0.0000000  0  5G28G27G26G 7G 8
  21211440.449     -157377.24949   -117006.10847  21211440.026    21211448.020
       244.000         206.000
  22391221.405     4558996.71849   3553382.55046  22391221.800    22391234.039
       226.000         177.000
  22847189.442    -6757319.89449  -5246038.65746  22847189.700    22847200.064
       224.000         176.000
  20400180.446    -7118266.19749  -5525416.95247  20400179.929    20400189.404
       241.000         211.000
  20438285.798     -211097.95249   -157545.44748  20438285.649    20438295.091
       247.000         215.000
 02  3 20 14 54 30.0000000  0  5G28G27G26G 7G 8
  21214863.167     -139390.83349   -102990.78947  21214862.816    21214871.219
       244.000         206.000
  22405149.995     4632190.52949   3610416.45846  22405150.037    22405162.418
       226.000         177.000
  22840279.889    -6793631.08149  -5274333.16346  22840280.743    22840290.631
       224.000         177.000
  20395336.113    -7143723.25149  -5545253.65347  20395335.523    20395345.392
       241.000         211.000
  20444517.443     -178351.56049   -132028.87048  20444517.435    20444526.519
       248.000         216.000
 02  3 20 14 55  0.0000000  0  5G28G27G26G 7G 8
  21218305.599     -121300.93749    -88894.83447  21218305.543    21218313.738
       244.000         206.000
  22419144.845     4705733.75949   3667722.66046  22419144.499    22419158.262
       223.000         175.000
  22833468.638    -6829425.10649  -5302224.66246  22833468.769    22833478.690
       223.000         176.000
  20390580.869    -7168712.11449  -5564725.52347  20390580.605    20390590.076
       242.000         211.000
  20450829.472     -145182.30549   -106182.78148  20450829.236    20450838.456
       246.000         216.000
 02  3 20 14 55 30.0000000  0  5G28G27G26G 7G 8
  21221768.005     -103106.32549    -74717.28947  21221767.906    21221776.012
       244.000         207.000
  22433206.477     4779627.53549   3725301.99646  22433207.733    22433218.883
       225.000         175.000
  22826756.160    -6864699.03749  -5329710.89946  22826756.265    22826767.139
       226.000         177.000
  20385915.185    -7193231.04049  -5583831.21847  20385914.935    20385924.205
       242.000         211.000
  20457222.353     -111588.02749    -80005.50948  20457221.860    20457231.052
       246.000         215.000
 02  3 20 14 56  0.0000000  0  5G28G27G26G 7G 8
  21225249.887      -84809.12249    -60459.80447  21225249.965    21225257.975
       244.000         207.000
  22447334.663     4853869.08649   3783152.31346  22447335.813    22447346.981
       227.000         176.000
  22820142.677    -6899453.84749  -5356792.63046  22820143.623    22820153.134
       227.000         180.000
  20381338.435    -7217282.04449  -5602572.29547  20381338.063    20381347.507
       241.000         211.000
  20463695.789      -77570.21349    -53498.21248  20463695.488    20463704.989
       247.000         215.000
 02  3 20 14 56 30.0000000  0  5G28G27G26G 7G 8
  21228751.253      -66409.77849    -46122.73747  21228750.762    21228759.707
       244.000         207.000
  22461528.595     4928457.57849   3841272.99546  22461529.427    22461540.542
       226.000         174.000
  22813628.077    -6933688.60749  -5383469.11846  22813628.324    22813638.512
       228.000         181.000
  20376850.678    -7240865.26749  -5620948.86747  20376850.320    20376859.877
       242.000         212.000
  20470249.944      -43128.47849    -26660.59048  20470249.431    20470259.135
       247.000         215.000
 02  3 20 14 57  0.0000000  0  5G28G27G26G 7G 8
  21232272.427      -47905.96749    -31704.26747  21232271.914    21232280.466
       243.000         207.000
  22475788.929     5003394.92349   3899665.50746  22475788.365    22475800.560
       223.000         173.000
  22807213.113    -6967399.66449  -5409737.53346  22807213.575    22807223.490
       228.000         181.000
  20372452.502    -7263978.03949  -5638958.85447  20372452.425    20372461.595
       243.000         212.000
  20476885.314       -8259.67349       509.81648  20476884.588    20476894.415
       246.000         215.000
 02  3 20 14 57 30.0000000  0  5G28G27G26G 7G 8
  21235812.778      -29301.47549    -17207.34347  21235812.313    21235820.832
       243.000         206.000
  22490114.638     5078676.66449   3958326.37646  22490114.608    22490126.389
       223.000         171.000
  22800897.272    -7000589.59649  -5435599.87646  22800897.517    22800907.976
       226.000         179.000
  20368143.201    -7286624.05049  -5656605.13747  20368142.908    20368152.509
       242.000         212.000
  20483601.315       27032.89649     28010.42048  20483601.018    20483610.689
       246.000         215.000
 02  3 20 14 58  0.0000000  0  5G28G27G26G 7G 8
  21239372.740      -10593.41649     -2629.71247  21239372.678    21239381.319
       243.000         205.000
  22504506.502     5154305.49949   4017257.69646  22504507.733    22504518.978
       225.000         173.000
  22794681.379    -7033254.09549  -5461052.78746  22794681.770    22794692.479
       228.000         178.000
  20363923.349    -7308799.88049  -5673885.03748  20363923.059    20363932.678
       242.000         213.000
  20490398.671       62752.95949     55844.13948  20490398.003    20490408.095
       245.000         214.000
 02  3 20 14 58 30.0000000  0  5G28G27G26G 7G 8
  21242952.252        8216.42349     12027.22847  21242951.661    21242960.492
       243.000         205.000
  22518964.132     5230279.16049   4076457.70946  22518965.105    22518976.519
       226.000         173.000
  22788565.485    -7065393.95349  -5486096.89146  22788567.203    22788575.505
       227.000         177.000
  20359792.652    -7330507.28449  -5690799.93048  20359792.249    20359801.893
       242.000         213.000
  20497277.089       98899.47749     84010.15048  20497276.950    20497286.497
       246.000         214.000
 02  3 20 14 59  0.0000000  0  5G28G27G26G 7G 8
  21246550.471       27125.06349     26761.14947  21246549.860    21246558.583
       241.000         205.000
  22533486.697     5306593.99049   4135923.57546  22533485.553    22533499.072
       225.000         174.000
  22782548.974    -7097011.06849  -5510733.65746  22782549.049    22782559.389
       226.000         175.000
  20355750.442    -7351749.26949  -5707352.16348  20355750.237    20355759.564
       243.000         213.000
  20504236.282      135469.92749    112506.50248  20504236.033    20504245.776
       246.000         214.000
 02  3 20 14 59 30.0000000  0  5G28G27G26G 7G 8
  21250168.143       46136.06249     41574.82147  21250168.025    21250176.309
       243.000         204.000
  22548074.330     5383253.05649   4195657.66546  22548073.633    22548087.749
       223.000         173.000
  22776632.948    -7128100.47449  -5534959.23646  22776633.335    22776643.135
       226.000         174.000
  20351797.659    -7372521.95749  -5723538.70148  20351797.234    20351806.769
       243.000         214.000
  20511277.078      172468.63749    141336.56748  20511276.539    20511286.802
       246.000         214.000
 02  3 20 15  0  0.0000000  0  5G28G27G26G 7G 8
  21253805.147       65248.41249     56467.46747  21253805.227    21253813.371
       243.000         205.000
  22562727.307     5460254.73049   4255658.73946  22562727.669    22562740.655
       224.000         173.000
  22770817.342    -7158662.17049  -5558773.59746  22770818.171    22770827.409
       225.000         173.000
  20347933.939    -7392826.31949  -5739360.31848  20347933.898    20347943.014
       243.000         214.000
  20518399.059      209895.07849    170499.91548  20518398.528    20518408.914
       244.000         213.000
 02  3 20 15  0 30.0000000  0  5G28G27G26G 7G 8
  21257460.904       84459.10649     71436.75347  21257460.266    21257469.313
       242.000         205.000
  22577445.023     5537595.33649   4315923.89246  22577445.770    22577457.822
       225.000         173.000
  22765101.681    -7188698.17449  -5582178.35446  22765102.298    22765111.108
       226.000         171.000
  20344158.711    -7412665.32249  -5754819.31448  20344158.342    20344167.931
       243.000         214.000
  20525602.051      247746.83249    199994.68348  20525601.642    20525611.758
       246.000         213.000
 02  3 20 15  1  0.0000000  0  5G28G27G26G 7G 8
  21261135.913      103771.06349     86484.93947  21261135.692    21261143.504
       243.000         205.000
  22592227.485     5615277.31349   4376455.06246  22592227.486    22592241.796
       223.000         173.000
  22759486.873    -7218204.43449  -5605170.32546  22759487.185    22759496.670
       225.000         171.000
  20340472.600    -7432035.91449  -5769913.31148  20340472.514    20340481.701
       244.000         214.000
  20532886.646      286027.39949    229823.59847  20532886.239    20532896.013
       245.000         212.000
 02  3 20 15  1 30.0000000  0  6G28G27G26G 4G 7G 8
  21264827.954      123172.33549    101602.72747  21264827.906    21264836.362
       244.000         204.000
  22607072.674     5693288.26849   4437242.54746  22607073.749    22607085.354
       226.000         174.000
  22753970.901    -7247191.76349  -5627757.93146  22753971.693    22753981.571
       227.000         174.000
  24525318.663    -2381464.94549  -1836934.99844  24525317.916    24525334.382
       204.000         123.000
  20336873.474    -7450950.08749  -5784651.66148  20336872.996    20336882.298
       244.000         214.000
  20540250.800      324725.47149    259977.82747  20540250.940    20540260.280
       247.000         212.000
 02  3 20 15  2  0.0000000  0  6G28G27G26G 4G 7G 8
  21268538.619      142671.32049    116796.65447  21268537.958    21268546.646
       242.000         203.000
  22621981.855     5771635.76149   4498292.31146  22621980.749    22621994.617
       222.000         172.000
  22748555.488    -7275650.99549  -5649934.01046  22748556.302    22748564.813
       229.000         176.000
  24507005.280    -2477703.35549  -1911926.06844  24507004.014    24507020.479
       201.000         122.000
  20333362.728    -7469399.26349  -5799027.68148  20333362.426    20333371.988
       244.000         215.000
  20547696.090      363849.83849    290464.24147  20547695.596    20547705.242
       245.000         212.000
 02  3 20 15  2 30.0000000  0  6G28G27G26G 4G 7G 8
  21272268.888      162274.08149    132071.45247  21272268.995    21272276.930
       244.000         203.000
  22636955.914     5850325.38349   4559608.62946  22636956.611    22636970.431
       223.000         170.000
  22743241.909    -7303574.94449  -5671692.98346  22743242.361    22743251.599
       229.000         178.000
  24488669.495    -2574057.10949  -1987006.97044  24488668.558    24488684.205
       197.000         122.000
  20329941.566    -7487377.55349  -5813036.77248  20329941.135    20329950.519
       244.000         215.000
  20555223.502      403407.18349    321288.05347  20555222.995    20555233.120
       245.000         211.000
 02  3 20 15  3  0.0000000  0  6G28G27G26G 4G 7G 8
  21276018.542      181977.81149    147424.92047  21276018.709    21276027.033
       245.000         204.000
  22651994.737     5929353.34949   4621188.58246  22651995.310    22652007.974
       222.000         170.000
  22738029.711    -7330965.60349  -5693036.40046  22738030.019    22738039.643
       229.000         180.000
  24470312.033    -2670526.20349  -2062177.74944  24470308.788    24470329.899
       195.000         118.000
  20326609.489    -7504887.60749  -5826681.00648  20326609.061    20326618.477
       243.000         215.000
  20562832.969      443394.95549    352447.24947  20562832.897    20562842.291
       245.000         211.000
 02  3 20 15  3 30.0000000  0  6G28G27G26G 4G 7G 8
  21279787.044      201780.65349    162855.61947  21279786.860    21279795.868
       244.000         205.000
  22667097.265     6008717.17649   4683030.25346  22667097.775    22667112.712
       221.000         170.000
  22732918.818    -7357823.84549  -5713964.94546  22732918.678    22732929.100
       229.000         182.000
  24451932.757    -2767109.34149  -2137437.45544  24451934.448    24451946.472
       200.000         120.000
  20323366.120    -7521931.55649  -5839962.04448  20323365.757    20323375.305
       243.000         215.000
  20570524.227      483811.88149    383940.86547  20570524.312    20570533.802
       245.000         210.000
 02  3 20 15  4  0.0000000  0  6G28G27G26G 4G 7G 8
  21283574.582      221683.86749    178364.52447  21283574.918    21283583.216
       246.000         206.000
  22682263.840     6088417.48149   4745134.11946  22682265.145    22682276.548
       225.000         170.000
  22727909.488    -7384147.57949  -5734476.98446  22727909.536    22727919.912
       230.000         183.000
  24433532.635    -2863802.28549  -2212782.76744  24433531.148    24433547.903
       201.000         125.000
  20320211.740    -7538508.21349  -5852878.96148  20320211.460    20320220.883
       243.000         215.000
  20578297.469      524659.69549    415770.22947  20578296.882    20578307.058
       244.000         210.000
 02  3 20 15  4 30.0000000  0  6G28G27G26G 4G 7G 8
  21287380.336      241682.59549    193947.85947  21287379.884    21287388.887
       244.000         205.000
  22697493.749     6168448.67649   4807495.81646  22697493.792    22697507.767
       223.000         169.000
  22723001.314    -7409940.78949  -5754575.64646  22723002.083    22723011.279
       231.000         185.000
  24415111.232    -2960607.19149  -2288215.28644  24415112.799    24415127.408
       206.000         130.000
  20317145.326    -7554622.54149  -5865435.62148  20317144.973    20317154.540
       243.000         215.000
  20586151.642      565933.62549    447931.62847  20586151.534    20586161.192
       244.000         210.000
 02  3 20 15  5  0.0000000  0  6G28G27G26G 4G 7G 8
  21291204.683      261779.48949    209607.68847  21291204.156    21291213.192
       243.000         205.000
  22712786.694     6248812.66149   4870116.84046  22712787.794    22712800.652
       222.000         169.000
  22718194.721    -7435200.00849  -5774258.21446  22718194.851    22718204.565
       230.000         184.000
  24396670.015    -3057518.15949  -2363730.33445  24396670.407    24396687.445
       206.000         136.000
  20314167.327    -7570271.97349  -5877630.01248  20314166.805    20314176.760
       243.000         216.000
  20594087.669      607636.94449    480427.62147  20594087.190    20594096.937
       244.000         210.000
 02  3 20 15  5 30.0000000  0  6G28G27G26G 4G 7G 8
  21295047.317      281972.85349    225342.68947  21295047.046    21295055.651
       244.000         204.000
  22728142.527     6329506.83049   4932995.14146  22728143.224    22728156.464
       225.000         169.000
  22713489.384    -7459926.19449  -5793525.43946  22713489.698    22713500.273
       229.000         182.000
  24378208.205    -3154534.22449  -2439327.29145  24378209.307    24378225.696
       206.000         140.000
  20311277.443    -7585458.59949  -5889463.79048  20311277.105    20311287.031
       244.000         216.000
  20602105.075      649768.26249    513257.11947  20602104.960    20602114.980
       245.000         209.000
 02  3 20 15  6  0.0000000  0  6G28G27G26G 4G 7G 8
  21298908.731      302264.22549    241154.06647  21298908.043    21298917.227
       243.000         204.000
  22743561.426     6410531.85349   4996131.24146  22743562.150    22743575.084
       223.000         171.000
  22708886.008    -7484117.21649  -5812375.64346  22708886.205    22708897.223
       230.000         182.000
  24359727.914    -3251650.89549  -2515002.65645  24359729.170    24359745.324
       213.000         144.000
  20308475.913    -7600180.98649  -5900935.81548  20308475.785    20308485.449
       244.000         216.000
  20610204.371      692329.11149    546421.31147  20610204.392    20610214.174
       246.000         210.000
 02  3 20 15  6 30.0000000  0  6G28G27G26G 4G 7G 8
  21302788.174      322650.32849    257039.25147  21302787.807    21302796.795
       243.000         204.000
  22759042.345     6491884.17649   5059522.37346  22759042.713    22759058.172
       223.000         171.000
  22704384.069    -7507775.10049  -5830810.42546  22704384.312    22704395.024
       229.000         183.000
  24341228.396    -3348868.04549  -2590756.28945  24341227.779    24341244.347
       209.000         144.000
  20305762.088    -7614442.35449  -5912048.60448  20305761.614    20305771.418
       244.000         216.000
  20618384.809      735317.22149    579918.44947  20618384.230    20618394.408
       243.000         209.000
 02  3 20 15  7  0.0000000  0  6G28G27G26G 4G 7G 8
  21306686.051      343133.32249    272999.94047  21306685.948    21306694.436
       243.000         204.000
  22774585.849     6573564.29649   5123168.93046  22774585.662    22774600.652
       221.000         172.000
  22699984.061    -7530897.48049  -5848827.92046  22699984.288    22699994.707
       228.000         182.000
  24322710.137    -3446180.93949  -2666584.57045  24322710.318    24322726.993
       209.000         143.000
  20303136.299    -7628240.97749  -5922800.81248  20303135.852    20303145.444
       244.000         216.000
  20626646.931      778734.56349    613750.04447  20626646.480    20626656.627
       244.000         209.000
 02  3 20 15  7 30.0000000  0  6G28G27G26G 4G 7G 8
  21310602.036      363711.59349    289034.87547  21310601.538    21310610.572
       243.000         203.000
  22790191.058     6655570.01949   5187069.20746  22790193.158    22790206.300
       225.000         172.000
  22695685.909    -7553485.15949  -5866428.77046  22695685.744    22695696.846
       225.000         180.000
  24304174.174    -3543588.13749  -2742486.27045  24304175.140    24304190.399
       211.000         145.000
  20300598.161    -7641578.83549  -5933193.98648  20300597.869    20300607.739
       245.000         217.000
  20634990.456      822579.76549    647915.03447  20634990.124    20634999.864
       244.000         209.000
 02  3 20 15  8  0.0000000  0  6G28G27G26G 4G 7G 8
  21314536.315      384386.50749    305145.11647  21314536.044    21314544.676
       243.000         203.000
  22805858.850     6737901.87649   5251223.60746  22805859.382    22805873.502
       224.000         172.000
  22691489.660    -7575536.27049  -5883611.47846  22691489.639    22691499.899
       224.000         177.000
  24285621.004    -3641085.27649  -2818458.01945  24285620.475    24285637.379
       208.000         146.000
  20298148.118    -7654454.72949  -5943227.18748  20298148.084    20298157.307
       245.000         217.000
  20643415.769      866854.47349    682414.69947  20643415.341    20643424.975
       243.000         208.000
 02  3 20 15  8 30.0000000  0  6G28G27G26G 4G 7G 8
  21318488.953      405157.24449    321330.02047  21318488.777    21318497.730
       244.000         203.000
  22821588.027     6820558.16749   5315630.83346  22821588.563    22821602.756
       224.000         172.000
  22687395.546    -7597050.93049  -5900376.22746  22687395.343    22687405.651
       225.000         174.000
  24267051.256    -3738670.13249  -2894498.15645  24267052.499    24267066.662
       213.000         147.000
  20295785.682    -7666869.92349  -5952901.40248  20295785.150    20295794.924
       244.000         217.000
  20651922.632      911557.98649    717248.50247  20651922.102    20651932.251
       243.000         207.000
 02  3 20 15  9  0.0000000  0  6G28G27G26G 4G 7G 8
  21322459.622      426022.98649    337588.96947  21322459.708    21322468.743
       245.000         204.000
  22837378.634     6903537.16049   5380289.45846  22837380.760    22837392.662
       226.000         172.000
  22683403.486    -7618029.37049  -5916723.11946  22683402.647    22683413.229
       225.000         173.000
  24248465.403    -3836340.65349  -2970605.03045  24248465.936    24248481.519
       214.000         148.000
  20293510.618    -7678825.47649  -5962217.45648  20293510.145    20293519.851
       245.000         217.000
  20660510.899      956689.84349    752416.07747  20660510.226    20660520.469
       242.000         207.000
 02  3 20 15  9 30.0000000  0  6G28G27G26G 4G 7G 8
  21326448.129      446981.91649    353920.51847  21326447.907    21326456.668
       245.000         204.000
  22853230.225     6986836.24249   5445197.54146  22853229.618    22853244.647
       221.000         171.000
  22679513.223    -7638472.83249  -5932653.17446  22679513.140    22679522.804
       226.000         174.000
  24229863.278    -3934095.74849  -3046777.83745  24229863.664    24229879.000
       214.000         147.000
  20291322.491    -7690323.75049  -5971177.18948  20291321.960    20291331.931
       244.000         217.000
  20669180.400     1002248.26249    787916.04147  20669179.745    20669190.307
       241.000         206.000
 02  3 20 15 10  0.0000000  0  6G28G27G26G 4G 7G 8
  21330454.693      468036.10949    370326.30047  21330453.974    21330462.552
       244.000         204.000
  22869142.639     7070456.20949   5510355.62246  22869142.992    22869157.600
       223.000         169.000
  22675725.226    -7658379.02549  -5948164.55346  22675724.932    22675735.337
       224.000         173.000
  24211246.137    -4031930.56849  -3123012.74445  24211246.703    24211261.471
       214.000         147.000
  20289221.772    -7701363.04949  -5979779.27948  20289221.554    20289230.868
       245.000         217.000
  20677931.489     1048235.53349    823750.15547  20677931.376    20677941.077
       243.000         207.000
 02  3 20 15 10 30.0000000  0  6G28G27G26G 4G 7G 8
  21334479.338      489185.72449    386806.44047  21334479.227    21334488.395
       244.000         204.000
  22885116.298     7154396.31249   5575763.16846  22885116.983    22885130.409
       221.000         167.000
  22672039.507    -7677747.16149  -5963256.66346  22672039.704    22672050.318
       226.000         175.000
  24192614.248    -4129841.65949  -3199307.05345  24192614.721    24192630.534
       213.000         150.000
  20287208.437    -7711943.53949  -5988023.85748  20287207.998    20287217.851
       245.000         217.000
  20686764.304     1094651.81249    859918.57347  20686763.292    20686773.851
       241.000         206.000
 02  3 20 15 11  0.0000000  0  6G28G27G26G 4G 7G 8
  21338521.830      510428.57749    403359.21847  21338521.689    21338530.108
       244.000         204.000
  22901150.102     7238653.35849   5641417.71546  22901150.933    22901165.067
       221.000         166.000
  22668456.146    -7696578.94149  -5977930.83546  22668455.685    22668466.941
       228.000         177.000
  24173967.846    -4227828.33649  -3275660.28745  24173968.380    24173983.748
       215.000         151.000
  20285281.854    -7722067.84949  -5995912.96848  20285281.652    20285291.071
       246.000         218.000
  20695678.132     1141495.10349    896419.71647  20695678.190    20695688.513
       242.000         206.000
 02  3 20 15 11 30.0000000  0  6G28G27G26G 4G 7G 8
  21342582.267      531765.93749    419985.64847  21342582.438    21342590.179
       244.000         203.000
  22917244.199     7323227.56049   5707319.37046  22917244.512    22917259.230
       220.000         165.000
  22664974.933    -7714872.65649  -5992185.74646  22664975.154    22664984.568
       230.000         179.000
  24155308.236    -4325886.33549  -3352069.05945  24155308.698    24155323.777
       212.000         149.000
  20283442.313    -7731735.19949  -6003446.00048  20283441.825    20283451.400
       245.000         218.000
  20704673.864     1188766.62249    933254.55747  20704673.613    20704684.129
       242.000         207.000
 02  3 20 15 12  0.0000000  0  6G28G27G26G 4G 7G 8
  21346660.727      553197.77249    436685.68447  21346660.664    21346668.885
       245.000         203.000
  22933398.400     7408117.83049   5773467.32146  22933399.248    22933414.165
       220.000         165.000
  22661596.360    -7732628.06749  -6006021.21146  22661596.883    22661606.671
       230.000         181.000
  24136635.329    -4424012.74549  -3428531.15845  24136635.135    24136651.028
       209.000         145.000
  20281689.571    -7740946.01049  -6010623.29848  20281689.539    20281698.618
       246.000         218.000
  20713751.003     1236466.48749    970423.16847  20713750.639    20713760.619
       243.000         206.000
 02  3 20 15 12 30.0000000  0  6G28G27G26G 4G 7G 8
  21350756.992      574723.36349    453458.78447  21350756.519    21350765.633
       244.000         204.000
  22949612.443     7493322.50349   5839860.25146  22949612.624    22949627.889
       219.000         166.000
  22658319.944    -7749845.45849  -6019437.42146  22658320.331    22658330.713
       227.000         182.000
  24117949.803    -4522205.33649  -3505044.84345  24117949.491    24117963.629
       210.000         142.000
  20280023.544    -7749701.75449  -6017445.99048  20280023.082    20280032.869
       246.000         219.000
  20722909.414     1284593.97249   1007924.98047  20722909.328    20722919.496
       241.000         205.000
 02  3 20 15 13  0.0000000  0  6G28G27G26G 4G 7G 8
  21354871.096      596342.87149    470305.04747  21354870.930    21354880.240
       244.000         204.000
  22965886.218     7578840.41749   5906497.24946  22965886.827    22965901.872
       221.000         166.000
  22655146.014    -7766524.49349  -6032434.12546  22655146.548    22655157.335
       229.000         182.000
  24099251.949    -4620461.07649  -3581607.71845  24099251.495    24099268.155
       202.000         140.000
  20278443.912    -7758002.83349  -6023914.41348  20278443.626    20278453.276
       246.000         219.000
  20732149.231     1333148.96449   1045759.91347  20732149.022    20732159.823
       241.000         206.000
 02  3 20 15 13 30.0000000  0  6G28G27G26G 4G 7G 8
  21359003.162      618056.61549    487224.75147  21359003.270    21359011.980
       245.000         204.000
  22982219.632     7664671.10549   5973377.97846  22982220.420    22982235.599
       220.000         166.000
  22652074.923    -7782664.46149  -6045010.78946  22652075.444    22652085.413
       230.000         183.000
  24080542.967    -4718776.55949  -3658217.12745  24080542.647    24080560.962
       208.000         138.000
  20276950.865    -7765849.26649  -6030028.55748  20276950.449    20276959.973
       246.000         219.000
  20741470.434     1382132.08849   1083928.45247  20741470.289    20741480.895
       242.000         205.000
 02  3 20 15 14  0.0000000  0  6G28G27G26G 4G 7G 8
  21363152.485      639861.00849    504215.09447  21363152.487    21363160.994
       244.000         204.000
  22998611.486     7750809.53149   6040498.52946  22998611.782    22998627.474
       220.000         165.000
  22649105.588    -7798268.69349  -6057169.99946  22649106.090    22649116.465
       229.000         184.000
  24061823.222    -4817152.22349  -3734873.43145  24061821.867    24061840.461
       206.000         137.000
  20275543.405    -7773245.28749  -6035791.73748  20275543.134    20275552.945
       246.000         219.000
  20750872.545     1431539.60549   1122427.68847  20750872.440    20750882.517
       241.000         205.000
 02  3 20 15 14 30.0000000  0  6G28G27G26G 4G 7G 8
  21367319.536      661758.96949    521278.34147  21367319.213    21367328.830
       243.000         204.000
  23015062.134     7837257.40249   6107860.19046  23015062.174    23015076.862
       221.000         164.000
  22646238.822    -7813334.09449  -6068909.35646  22646239.325    22646249.647
       229.000         183.000
  24043092.216    -4915582.46249  -3811572.31345  24043091.764    24043107.655
       207.000         133.000
  20274222.217    -7780188.73149  -6041202.26248  20274221.828    20274231.861
       246.000         220.000
  20760355.861     1481374.26849   1161259.75947  20760355.295    20760366.076
       241.000         204.000
 02  3 20 15 15  0.0000000  0  6G28G27G26G 4G 7G 8
  21371504.631      683751.21249    538415.04447  21371503.866    21371513.591
       242.000         203.000
  23031571.969     7924014.30549   6175462.63046  23031572.554    23031587.465
       222.000         164.000
  22643474.703    -7827859.82049  -6080228.18546  22643473.949    22643484.505
       227.000         181.000
  24024351.767    -5014063.35449  -3888310.67345  24024350.868    24024367.069
       207.000         135.000
  20272987.090    -7786679.42349  -6046259.99148  20272986.713    20272996.352
       246.000         220.000
  20769920.553     1531636.67849   1200425.14847  20769920.803    20769931.137
       243.000         204.000
 02  3 20 15 15 30.0000000  0  6G28G27G26G 4G 7G 8
  21375707.437      705836.79649    555624.47547  21375707.076    21375716.124
       243.000         203.000
  23048139.894     8011078.30349   6243304.39945  23048139.835    23048154.254
       221.000         162.000
  22640813.139    -7841846.38749  -6091126.89146  22640812.632    22640823.275
       227.000         179.000
  24005602.099    -5112592.77849  -3965086.84545  24005601.788    24005617.907
       208.000         139.000
  20271837.826    -7792718.82749  -6050966.06848  20271837.459    20271847.387
       246.000         219.000
  20779566.730     1582326.13449   1239923.29447  20779565.786    20779576.822
       240.000         204.000
 02  3 20 15 16  0.0000000  0  6G28G27G26G 4G 7G 8
  21379927.826      728014.51149    572905.71247  21379927.884    21379936.208
       245.000         203.000
  23064765.897     8098446.72349   6311383.39646  23064766.804    23064781.593
       222.000         163.000
  22638254.086    -7855295.23449  -6101606.61446  22638255.342    22638264.306
       227.000         178.000
  23986843.256    -5211169.23449  -4041899.63145  23986842.844    23986859.493
       206.000         142.000
  20270774.057    -7798309.16149  -6055322.22348  20270773.585    20270783.304
       245.000         219.000
  20789293.283     1633440.73449   1279752.72947  20789292.252    20789303.522
       239.000         203.000
 02  3 20 15 16 30.0000000  0  6G28G27G26G 4G 7G 8
  21384165.820      750285.00849    590259.24747  21384165.330    21384174.151
       243.000         202.000
  23081449.779     8186118.98949   6379699.11446  23081449.265    23081464.692
       218.000         163.000
  22635797.529    -7868205.46249  -6111666.60246  22635797.973    22635808.108
       227.000         180.000
  23968076.451    -5309788.93549  -4118746.09045  23968076.406    23968093.616
       210.000         145.000
  20269795.693    -7803450.57649  -6059328.56348  20269795.453    20269805.066
       246.000         219.000
  20799101.173     1684981.16449   1319913.97147  20799101.162    20799112.097
       241.000         203.000
 02  3 20 15 17  0.0000000  0  6G28G27G26G 4G 7G 8
  21388421.524      772648.67549    607685.38847  21388421.574    21388430.690
       245.000         202.000
  23098190.938     8274094.44049   6448251.07445  23098190.485    23098206.028
       218.000         161.000
  22633443.439    -7880576.47949  -6121306.41846  22633443.733    22633454.362
       228.000         181.000
  23949302.522    -5408448.49149  -4195623.62445  23949303.102    23949318.849
       212.000         147.000
  20268902.807    -7808142.94749  -6062985.00948  20268902.311    20268912.230
       246.000         219.000
  20808990.211     1736947.83449   1360407.35447  20808989.486    20809001.063
       239.000         203.000
 02  3 20 15 17 30.0000000  0  6G28G27G26G 4G 7G 8
  21392694.582      795103.26149    625182.37347  21392694.696    21392703.120
       245.000         202.000
  23114989.261     8362369.49649   6517036.48445  23114989.776    23115004.277
       215.000         160.000
  22631191.615    -7892410.71849  -6130527.97846  22631191.482    22631202.728
       227.000         182.000
  23930520.814    -5507147.22749  -4272531.68845  23930521.105    23930536.487
       213.000         149.000
  20268094.742    -7812389.49649  -6066294.05748  20268094.520    20268104.027
       246.000         219.000
  20818959.751     1789337.97549   1401230.70647  20818960.284    20818970.509
       242.000         203.000
 02  3 20 15 18  0.0000000  0  6G28G27G26G 4G 7G 8
  21396985.572      817652.03849    642752.74947  21396985.325    21396994.265
       244.000         202.000
  23131844.873     8450945.82249   6586056.68245  23131845.696    23131860.546
       217.000         160.000
  22629042.303    -7903705.00949  -6139328.79046  22629042.600    22629052.718
       228.000         180.000
  23911732.844    -5605879.04449  -4349465.49945  23911732.992    23911748.905
       214.000         151.000
  20267371.999    -7816187.98549  -6069253.96548  20267371.661    20267381.584
       246.000         219.000
  20829010.743     1842154.67849   1442386.45147  20829010.376    20829021.694
       240.000         204.000
 02  3 20 15 18 30.0000000  0  6G28G27G26G 4G 7G 8
  21401294.063      840293.12849    660395.06147  21401294.242    21401303.615
       245.000         202.000
  23148757.509     8539820.41649   6655309.25345  23148758.548    23148773.582
       219.000         161.000
  22626995.622    -7914461.12149  -6147710.26946  22626995.527    22627005.419
       227.000         179.000
  23892938.927    -5704642.56649  -4426424.01045  23892939.902    23892955.133
       215.000         152.000
  20266734.027    -7819540.98049  -6071866.73948  20266733.852    20266743.147
       246.000         220.000
  20839142.218     1895395.76049   1483872.87647  20839142.222    20839152.673
       241.000         203.000
 02  3 20 15 19  0.0000000  0  6G28G27G26G 4G 7G 8
  21405620.244      863026.58349    678109.35347  21405620.217    21405629.172
       245.000         203.000
  23165726.600     8628991.76849   6724793.07146  23165726.171    23165742.833
       218.000         164.000
  22625051.031    -7924679.21649  -6155672.47146  22625050.204    22625061.440
       226.000         178.000
  23874139.597    -5803435.19449  -4503405.20945  23874139.707    23874155.201
       216.000         152.000
  20266180.605    -7822449.38549  -6074133.07948  20266180.375    20266189.830
       246.000         220.000
  20849354.561     1949060.90449   1525689.74547  20849354.142    20849365.321
       241.000         203.000
 02  3 20 15 19 30.0000000  0  6G28G27G26G 4G 7G 8
  21409964.020      885852.42349    695895.60847  21409963.790    21409972.593
       245.000         203.000
  23182751.840     8718458.77949   6794507.28546  23182753.244    23182767.966
       221.000         166.000
  22623208.949    -7934359.16549  -6163215.37346  22623210.168    22623219.630
       231.000         179.000
  23855335.169    -5902253.55449  -4580406.48645  23855335.315    23855349.892
       215.000         151.000
  20265711.658    -7824913.87449  -6076053.50848  20265711.110    20265721.078
       246.000         219.000
  20859647.478     2003149.87349   1567836.86747  20859647.367    20859657.698
       241.000         202.000
 02  3 20 15 20  0.0000000  0  6G28G27G26G 4G 7G 8
  21414325.098      908769.60149    713753.04847  21414324.841    21414333.513
       244.000         203.000
  23199832.999     8808219.10049   6864450.04746  23199832.840    23199850.069
       215.000         165.000
  22621469.265    -7943502.23749  -6170339.92846  22621470.082    22621479.474
       232.000         181.000
  23836526.153    -6001095.72449  -4657426.30645  23836526.366    23836541.199
       215.000         150.000
  20265326.754    -7826936.32549  -6077629.48948  20265326.416    20265336.160
       245.000         219.000
  20870020.850     2057661.33549   1610313.21247  20870020.366    20870031.007
       240.000         203.000
 02  3 20 15 20 30.0000000  0  6G28G27G26G 4G 7G 8
  21418703.850      931779.86349    731683.02247  21418704.030    21418712.306
       244.000         202.000
  23216969.754     8898272.94449   6934621.51445  23216969.456    23216986.768
       215.000         162.000
  22619832.005    -7952106.92649  -6177044.96046  22619832.946    22619842.724
       233.000         182.000
  23817713.777    -6099956.92349  -4734460.95145  23817713.100    23817728.611
       214.000         151.000
  20265026.198    -7828515.91049  -6078860.38248  20265025.755    20265035.815
       244.000         219.000
  20880474.714     2112596.60649   1653119.78647  20880474.218    20880485.391
       241.000         203.000
 02  3 20 15 21  0.0000000  0  6G28G27G26G 4G 7G 8
  21423099.643      954879.95749    749682.99447  21423099.377    21423108.968
       243.000         202.000
  23234161.859     8988615.79249   7005018.19045  23234161.954    23234178.167
       217.000         160.000
  22618296.638    -7960176.55349  -6183333.04746  22618297.229    22618307.175
       232.000         182.000
  23798897.248    -6198837.61449  -4811510.76145  23798897.196    23798912.120
       210.000         151.000
  20264809.107    -7829656.88749  -6079749.49448  20264808.885    20264818.742
       245.000         219.000
  20891008.514     2167952.10949   1696253.82047  20891008.446    20891019.248
       242.000         203.000
 02  3 20 15 21 30.0000000  0  6G28G27G26G 4G 7G 8
  21427513.429      978073.81349    767756.04247  21427512.322    21427523.187
       242.000         203.000
  23251409.289     9079250.14049   7075642.02245  23251409.614    23251426.062
       216.000         159.000
  22616863.618    -7967707.43549  -6189201.32346  22616864.251    22616874.713
       233.000         183.000
  23780078.275    -6297730.87449  -4888570.37745  23780077.425    23780093.899
       209.000         150.000
  20264676.052    -7830356.15449  -6080294.42448  20264675.807    20264685.702
       244.000         218.000
  20901623.208     2223731.37049   1739718.04847  20901622.928    20901634.059
       241.000         203.000
 02  3 20 15 22  0.0000000  0  6G28G27G26G 4G 7G 8
  21431944.815     1001360.82649    785901.65247  21431944.124    21431954.090
       242.000         202.000
  23268711.641     9170173.95549   7146491.41245  23268711.776    23268728.227
       216.000         159.000
  22615533.056    -7974700.34549  -6194650.41746  22615533.232    22615543.375
       231.000         184.000
  23761257.477    -6396634.27749  -4965637.88145  23761256.245    23761272.320
       208.000         150.000
  20264626.793    -7830615.40449  -6080496.48148  20264626.341    20264636.584
       245.000         218.000
  20912318.011     2279933.24049   1783511.59247  20912317.424    20912328.728
       239.000         202.000
 02  3 20 15 22 30.0000000  0  6G28G27G26G 4G 7G 8
  21436393.576     1024739.22749    804118.47447  21436393.524    21436402.752
       242.000         201.000
  23286068.502     9261383.95049   7217563.78945  23286068.170    23286084.867
       216.000         159.000
  22614304.275    -7981157.52449  -6199682.04846  22614303.813    22614315.122
       229.000         182.000
  23742434.858    -6495546.33249  -5042712.13245  23742434.225    23742450.296
       208.000         150.000
  20264660.749    -7830437.27949  -6080357.72848  20264660.278    20264670.061
       245.000         218.000
  20923092.899     2336555.64349   1827632.81347  20923092.654    20923103.844
       241.000         202.000
 02  3 20 15 23  0.0000000  0  6G28G27G26G 4G 7G 8
  21440860.306     1048211.51249    822408.46647  21440860.251    21440870.489
       242.000         202.000
  23303479.961     9352881.15849   7288859.95245  23303479.757    23303497.254
       216.000         158.000
  22613177.821    -7987076.65849  -6204294.43446  22613177.763    22613188.998
       228.000         180.000
  23723611.604    -6594461.84749  -5119789.08645  23723612.205    23723627.115
       213.000         150.000
  20264778.189    -7829820.25749  -6079876.97748  20264778.006    20264787.591
       245.000         218.000
  20933948.323     2393600.30549   1872083.07047  20933948.319    20933959.248
       241.000         202.000
 02  3 20 15 23 30.0000000  0  6G28G27G26G 4G 7G 8
  21445344.208     1071774.42549    840769.07547  21445343.827    21445352.703
       241.000         202.000
  23320945.132     9444660.69249   7360376.11145  23320945.725    23320963.446
       215.000         157.000
  22612153.145    -7992461.56149  -6208490.54146  22612153.582    22612163.776
       229.000         181.000
  23704787.978    -6693381.29849  -5196869.11245  23704787.697    23704804.324
       213.000         150.000
  20264978.316    -7828768.89849  -6079057.78148  20264977.848    20264987.800
       244.000         217.000
  20944883.368     2451063.79049   1916859.68847  20944883.189    20944894.585
       241.000         202.000
 02  3 20 15 24  0.0000000  0  6G28G27G26G 4G 7G 8
  21449845.777     1095429.48449    859201.48447  21449845.211    21449855.427
       242.000         203.000
  23338464.254     9536722.46349   7432112.19545  23338464.637    23338482.181
       216.000         158.000
  22611230.464    -7997311.15349  -6212269.53646  22611229.891    22611241.320
       225.000         182.000
  23685964.269    -6792300.01749  -5273948.59445  23685964.148    23685979.734
       213.000         149.000
  20265261.107    -7827282.91249  -6077899.91248  20265260.762    20265270.815
       244.000         217.000
  20955898.263     2508946.72949   1961963.15347  20955898.224    20955909.433
       241.000         202.000
 02  3 20 15 24 30.0000000  0  6G28G27G26G 4G 7G 8
  21454364.792     1119176.66049    877705.65447  21454364.582    21454374.144
       243.000         203.000
  23356036.742     9629065.06949   7504067.10245  23356037.901    23356052.721
       218.000         157.000
  22610409.149    -8001625.66449  -6215631.54746  22610409.149    22610420.462
       225.000         181.000
  23667141.514    -6891214.93149  -5351025.10245  23667141.409    23667157.267
       217.000         149.000
  20265626.456    -7825362.91449  -6076403.85848  20265625.939    20265636.014
       245.000         217.000
  20966992.846     2567248.75049   2007393.17547  20966992.283    20967004.106
       240.000         202.000
 02  3 20 15 25  0.0000000  0  6G28G27G26G 4G 7G 8
  21458901.342     1143016.05749    896281.71447  21458901.372    21458910.412
       244.000         203.000
  23373662.408     9721686.87149   7576239.57045  23373663.809    23373679.156
       218.000         157.000
  22609689.890    -8005405.43649  -6218576.90046  22609690.247    22609701.687
       225.000         180.000
  23648319.823    -6990123.03049  -5428096.28145  23648319.179    23648335.080
       217.000         150.000
  20266074.149    -7823010.17149  -6074570.59848  20266074.129    20266083.865
       246.000         217.000
  20978166.987     2625969.35149   2053149.36247  20978166.717    20978177.916
       239.000         201.000
 02  3 20 15 25 30.0000000  0  6G28G27G26G 4G 7G 8
  21463455.526     1166947.35149    914929.37347  21463455.699    21463463.993
       245.000         204.000
  23391340.860     9814586.08449   7648628.19045  23391342.181    23391358.415
       216.000         158.000
  22609072.259    -8008651.30649  -6221106.23646  22609072.735    22609083.630
       226.000         180.000
  23629499.930    -7089021.69849  -5505160.12945  23629499.648    23629515.758
       218.000         151.000
  20266604.095    -7820226.08249  -6072401.22848  20266604.012    20266613.675
       246.000         217.000
  20989420.721     2685107.64949   2099231.02947  20989420.417    20989431.970
       239.000         200.000
 02  3 20 15 26  0.0000000  0  6G28G27G26G 4G 7G 8
  21468027.191     1190970.98949    933648.98947  21468027.234    21468035.624
       245.000         203.000
  23409071.956     9907761.80349   7721232.31045  23409072.626    23409089.003
       217.000         157.000
  22608556.479    -8011363.06549  -6223219.39746  22608557.152    22608567.031
       228.000         180.000
  23610682.572    -7187907.10549  -5582213.63245  23610683.234    23610697.351
       219.000         154.000
  20267216.028    -7817011.13749  -6069896.11948  20267215.709    20267225.343
       246.000         217.000
  21000753.948     2744663.50949   2145638.05747  21000753.591    21000765.152
       239.000         200.000
 02  3 20 15 26 30.0000000  0  6G28G27G26G 4G 7G 8
  21472616.443     1215086.96949    952440.56347  21472616.007    21472626.175
       243.000         203.000
  23426855.358    10001212.26949   7794050.50645  23426853.976    23426873.986
       213.000         156.000
  22608142.077    -8013541.56149  -6224917.01346  22608142.509    22608152.720
       229.000         180.000
  23591868.509    -7286776.51649  -5659254.66345  23591868.050    23591882.852
       221.000         155.000
  20267909.577    -7813366.71249  -6067056.35748  20267909.128    20267918.970
       246.000         216.000
  21012166.410     2804636.24449   2192369.92247  21012166.360    21012177.778
       239.000         200.000
 02  3 20 15 27  0.0000000  0  6G28G27G26G 4G 7G 8
  21477223.084     1239294.94849    971303.81447  21477222.798    21477231.983
       243.000         203.000
  23444690.295    10094935.02649   7867080.85145  23444690.698    23444707.959
       215.000         155.000
  22607828.949    -8015187.70049  -6226199.82746  22607829.465    22607840.429
       229.000         182.000
  23573057.799    -7385627.64749  -5736281.46945  23573057.692    23573073.165
       217.000         154.000
  20268684.499    -7809294.58449  -6063883.31748  20268684.002    20268693.969
       246.000         216.000
  21023658.022     2865024.72849   2239425.76047  21023657.555    21023668.895
       240.000         199.000
 02  3 20 15 27 30.0000000  0  6G28G27G26G 4G 7G 8
  21481847.366     1263595.34149    990239.07647  21481846.737    21481856.804
       242.000         203.000
  23462577.366    10188929.04749   7940322.53345  23462577.546    23462593.667
       211.000         155.000
  22607616.969    -8016301.79249  -6227068.02646  22607617.512    22607628.038
       229.000         182.000
  23554250.838    -7484456.82449  -5813291.20345  23554251.021    23554264.933
       219.000         153.000
  20269540.746    -7804795.20349  -6060377.34848  20269540.029    20269550.301
       245.000         216.000
  21035228.865     2925828.53949   2286805.21047  21035229.004    21035239.625
       240.000         199.000
 02  3 20 15 28  0.0000000  0  6G28G27G26G 4G 7G 8
  21486489.196     1287988.10449   1009246.31947  21486489.083    21486498.352
       243.000         203.000
  23480515.384    10283192.89549   8013774.45745  23480516.017    23480533.618
       214.000         155.000
  22607506.254    -8016884.41249  -6227522.12246  22607506.769    22607517.550
       230.000         182.000
  23535449.202    -7583261.24649  -5890281.62245  23535449.327    23535463.205
       217.000         151.000
  20270477.870    -7799869.96249  -6056539.55748  20270477.750    20270487.418
       246.000         215.000
  21046878.565     2987047.20749   2334507.93247  21046878.429    21046889.266
       240.000         200.000
 02  3 20 15 28 30.0000000  0  6G28G27G26G 4G 7G 8
  21491148.589     1312473.65849   1028325.87047  21491148.817    21491158.032
       243.000         203.000
  23498504.907    10377725.11649   8087435.54545  23498506.113    23498523.019
       216.000         156.000
  22607496.554    -8016935.79949  -6227562.24246  22607495.976    22607507.236
       229.000         182.000
  23516652.573    -7682037.20849  -5967249.87145  23516651.861    23516667.253
       215.000         150.000
  20271496.075    -7794519.81849  -6052370.65348  20271495.785    20271505.569
       245.000         215.000
  21058607.079     3048680.11149   2382533.44547  21058606.820    21058618.008
       239.000         199.000
 02  3 20 15 29  0.0000000  0  6G28G27G26G 4G 7G 8
  21495825.863     1337051.90249   1047477.66147  21495825.220    21495835.990
       242.000         203.000
  23516545.250    10472523.91849   8161304.34045  23516545.464    23516561.945
       213.000         155.000
  22607587.701    -8016456.82549  -6227189.09946  22607588.192    22607599.001
       230.000         182.000
  23497861.917    -7780782.17049  -6044193.95545  23497861.979    23497877.396
       212.000         149.000
  20272594.806    -7788746.07749  -6047871.68148  20272594.105    20272604.559
       244.000         215.000
  21070414.090     3110726.51749   2430881.16247  21070413.546    21070425.520
       238.000         199.000
 02  3 20 15 29 30.0000000  0  6G28G27G26G 4G 7G 8
  21500520.501     1361722.67449   1066701.52347  21500521.169    21500529.028
       244.000         203.000
  23534635.333    10567587.62149   8235379.57645  23534634.761    23534653.093
       210.000         152.000
  22607779.701    -8015448.08149  -6226403.13746  22607779.730    22607791.371
       230.000         183.000
  23479077.761    -7879492.97649  -6121111.40845  23479077.553    23479093.234
       214.000         151.000
  20273773.782    -7782549.94949  -6043043.57648  20273773.309    20273783.604
       245.000         215.000
  21082299.629     3173185.69849   2479550.51847  21082299.568    21082310.541
       240.000         199.000
 02  3 20 15 30  0.0000000  0  6G28G27G26G 4G 7G 8
  21505233.165     1386486.34549   1085997.80047  21505232.258    21505243.165
       241.000         203.000
  23552775.513    10662914.79449   8309660.09945  23552776.012    23552792.807
       212.000         151.000
  22608072.402    -8013910.21649  -6225204.87446  22608072.867    22608084.569
       232.000         186.000
  23460300.779    -7978166.48549  -6197999.78145  23460301.881    23460316.182
       214.000         153.000
  20275033.043    -7775932.69549  -6037887.32348  20275032.857    20275043.035
       245.000         215.000
  21094263.876     3236057.07549   2528541.06147  21094263.625    21094274.942
       239.000         199.000
 02  3 20 15 30 30.0000000  0  6G28G27G26G 4G 7G 8
  21509963.210     1411343.32449   1105366.76647  21509963.492    21509972.889
       243.000         202.000
  23570965.631    10758504.05949   8384144.86645  23570966.010    23570983.615
       213.000         151.000
  22608465.888    -8011843.41349  -6223594.44346  22608466.314    22608476.881
       232.000         187.000
  23441531.883    -8076799.25549  -6274856.38745  23441530.796    23441546.639
       215.000         156.000
  20276372.341    -7768895.03849  -6032403.48648  20276371.790    20276382.268
       245.000         215.000
  21106306.202     3299340.10549   2577852.38947  21106305.599    21106317.701
       238.000         199.000
 02  3 20 15 31  0.0000000  0  6G28G27G26G 4G 7G 8
  21514711.340     1436293.82349   1124808.63647  21514711.065    21514719.849
       242.000         201.000
  23589205.351    10854353.57249   8458832.40945  23589205.263    23589223.487
       215.000         153.000
  22608959.710    -8009248.51449  -6221572.51747  22608960.492    22608970.939
       234.000         188.000
  23422770.880    -8175388.33349  -6351678.96645  23422770.593    23422786.168
       213.000         157.000
  20277791.322    -7761438.25049  -6026593.05348  20277791.037    20277801.156
       246.000         215.000
  21118426.845     3363034.24949   2627484.04847  21118426.897    21118438.599
       240.000         200.000
 02  3 20 15 31 30.0000000  0  6G28G27G26G 4G 7G 8
  21519476.964     1461337.41149   1144323.02147  21519477.136    21519487.232
       243.000         202.000
  23607494.298    10950461.38349   8533721.21845  23607493.982    23607512.705
       214.000         154.000
  22609553.967    -8006126.75249  -6219140.04247  22609553.961    22609565.835
       233.000         189.000
  23404018.743    -8273930.95649  -6428465.31945  23404019.474    23404034.384
       218.000         159.000
  20279289.768    -7753564.29749  -6020457.54848  20279289.190    20279299.569
       245.000         215.000
  21130625.573     3427138.10749   2677434.96347  21130625.662    21130636.963
       240.000         200.000
 02  3 20 15 32  0.0000000  0  6G28G27G26G 4G 7G 8
  21524260.264     1486473.33249   1163909.35547  21524260.175    21524269.186
       242.000         201.000
  23625831.837    11046825.08649   8608809.43945  23625832.736    23625851.657
       214.000         157.000
  22610248.016    -8002479.39849  -6216298.02946  22610248.731    22610259.953
       232.000         187.000
  23385276.183    -8372424.80349  -6505213.64645  23385275.431    23385290.961
       217.000         161.000
  20280867.199    -7745274.70549  -6013998.17548  20280866.968    20280877.175
       246.000         215.000
  21142901.969     3491650.28449   2727704.05747  21142901.924    21142913.295
       239.000         200.000
 02  3 20 15 32 30.0000000  0  6G28G27G26G 4G 7G 8
  21529061.472     1511703.45249   1183569.09447  21529060.931    21529070.427
       241.000         201.000
  23644218.191    11143444.32849   8684096.77245  23644219.128    23644236.776
       215.000         158.000
  22611042.193    -7998306.08849  -6213046.17746  22611042.371    22611053.425
       232.000         185.000
  23366543.223    -8470865.21349  -6581920.35645  23366542.689    23366558.016
       220.000         162.000
  20282523.778    -7736569.73849  -6007215.13148  20282523.711    20282533.823
       247.000         216.000
  21155255.970     3556571.21249   2778291.66347  21155255.681    21155267.443
       239.000         199.000
 02  3 20 15 33  0.0000000  0  6G28G27G26G 4G 7G 8
  21533880.454     1537027.07249   1203301.69147  21533880.725    21533890.358
       243.000         202.000
  23662652.995    11240316.82749   8759581.43745  23662653.696    23662671.816
       213.000         157.000
  22611936.286    -7993608.21849  -6209385.58646  22611936.172    22611947.570
       230.000         183.000
  23347821.293    -8569249.88949  -6658583.61546  23347821.340    23347836.077
       220.000         163.000
  20284259.095    -7727451.36949  -6000109.95248  20284258.670    20284268.908
       247.000         216.000
  21167687.690     3621899.55749   2829196.71747  21167687.415    21167699.316
       239.000         199.000
 02  3 20 15 33 30.0000000  0  6G28G27G26G 4G 7G 8
  21538717.416     1562444.51549   1223107.40147  21538716.767    21538726.296
       241.000         202.000
  23681135.456    11337441.02749   8835262.20445  23681136.650    23681154.207
       214.000         156.000
  22612929.858    -7988386.36249  -6205316.69246  22612930.014    22612941.203
       229.000         181.000
  23329110.353    -8667575.55149  -6735200.91645  23329110.183    23329125.066
       219.000         162.000
  20286072.774    -7717920.48349  -5992683.34448  20286072.534    20286082.547
       247.000         216.000
  21180196.910     3687634.57649   2880418.67047  21180196.675    21180208.549
       239.000         199.000
 02  3 20 15 34  0.0000000  0  6G28G27G26G 4G 7G 8
  21543571.975     1587955.65449   1242986.10947  21543572.475    21543581.213
       243.000         201.000
  23699665.672    11434814.70549   8911137.42545  23699666.882    23699684.809
       213.000         154.000
  22614023.041    -7982641.73749  -6200840.43346  22614022.788    22614034.743
       228.000         181.000
  23310411.201    -8765839.39349  -6811770.03245  23310410.748    23310426.256
       221.000         162.000
  20287964.585    -7707978.92549  -5984936.72048  20287964.285    20287974.306
       247.000         217.000
  21192783.153     3753775.28549   2931956.73647  21192782.982    21192795.097
       238.000         199.000
 02  3 20 15 34 30.0000000  0  6G28G27G26G 4G 7G 8
  21548444.618     1613561.04049   1262938.26647  21548444.193    21548454.248
       241.000         200.000
  23718243.038    11532436.81649   8987206.20145  23718243.522    23718261.522
       212.000         152.000
  22615215.660    -7976374.58349  -6195957.01046  22615216.411    22615227.047
       230.000         181.000
  23291724.562    -8864037.70149  -6888288.09945  23291724.715    23291739.529
       221.000         161.000
  20289934.462    -7697627.33349  -5976870.59148  20289934.101    20289944.519
       247.000         217.000
  21205446.436     3820321.21749   2983810.56947  21205446.065    21205458.137
       239.000         199.000
 02  3 20 15 35  0.0000000  0  6G28G27G26G 4G 7G 8
  21553335.215     1639261.52249   1282964.52847  21553335.666    21553344.407
       242.000         200.000
  23736867.216    11630306.15149   9063467.61945  23736868.218    23736885.514
       213.000         153.000
  22616507.817    -7969585.23549  -6190666.69346  22616508.277    22616520.060
       230.000         183.000
  23273051.279    -8962166.96449  -6964752.33545  23273050.792    23273066.782
       220.000         161.000
  20291982.202    -7686866.57949  -5968485.64748  20291981.953    20291991.841
       248.000         217.000
  21218186.892     3887272.08849   3035979.92947  21218186.585    21218198.641
       239.000         198.000
 02  3 20 15 35 30.0000000  0  6G28G27G26G 4G 7G 8
  21558243.900     1665055.29749   1303063.49247  21558242.399    21558252.956
       239.000         201.000
  23755537.910    11728418.95149   9139918.73845  23755538.363    23755555.987
       213.000         152.000
  22617898.670    -7962276.70649  -6184971.82446  22617899.284    22617910.047
       229.000         183.000
  23254391.056    -9060225.83149  -7041161.74045  23254390.600    23254405.380
       220.000         161.000
  20294107.239    -7675699.88649  -5959784.38148  20294107.062    20294117.015
       247.000         218.000
  21231003.788     3954625.00349   3088462.57447  21231003.852    21231015.592
       239.000         199.000
 02  3 20 15 36  0.0000000  0  6G28G27G26G 4G 7G 8
  21563170.378     1690944.84749   1323237.03747  21563169.189    21563180.952
       238.000         201.000
  23774254.765    11826775.65849   9216559.95045  23774253.747    23774272.178
       210.000         148.000
  22619388.570    -7954447.68949  -6178871.36246  22619388.803    22619399.639
       229.000         182.000
  23235745.337    -9158208.88549  -7117512.05645  23235745.068    23235760.893
       219.000         160.000
  20296309.608    -7664126.63049  -5950766.30648  20296309.218    20296319.420
       247.000         218.000
  21243897.584     4022381.28149   3141259.51547  21243898.045    21243909.415
       240.000         200.000
 02  3 20 15 36 30.0000000  0  6G28G27G26G 4G 7G 8
  21568115.141     1716929.21949   1343484.49547  21568114.565    21568124.494
       239.000         201.000
  23793017.447    11925373.53549   9293389.07745  23793017.247    23793035.670
       208.000         145.000
  22620977.230    -7946100.19249  -6172366.91246  22620977.673    22620988.689
       230.000         183.000
  23217114.402    -9256114.25249  -7193801.85345  23217114.736    23217129.491
       219.000         160.000
  20298588.854    -7652149.09849  -5941433.21948  20298588.630    20298598.869
       247.000         218.000
  21256867.730     4090538.88549   3194369.18247  21256867.547    21256879.541
       239.000         199.000
 02  3 20 15 37  0.0000000  0  6G28G27G26G 4G 7G 8
  21573077.885     1743008.43449   1363805.87647  21573076.730    21573087.267
       237.000         199.000
  23811825.748    12024210.61549   9370404.55945  23811827.455    23811845.914
       212.000         143.000
  22622664.215    -7937235.39849  -6165459.37646  22622663.796    22622675.995
       228.000         183.000
  23198498.861    -9353938.96149  -7270028.79345  23198499.213    23198513.921
       220.000         159.000
  20300944.757    -7639769.06149  -5931786.49048  20300944.519    20300954.481
       247.000         218.000
  21269913.972     4159096.78849   3247790.76647  21269913.765    21269926.065
       239.000         199.000
 02  3 20 15 37 30.0000000  0  6G28G27G26G 4G 7G 8
  21578058.618     1769182.59949   1384201.20747  21578058.951    21578069.705
       239.000         200.000
  23830679.330    12123285.06149   9447605.02645  23830679.334    23830698.077
       212.000         143.000
  22624449.334    -7927854.35749  -6158149.55646  22624449.480    22624462.001
       228.000         183.000
  23179899.236    -9451679.76549  -7346190.37645  23179898.860    23179914.093
       219.000         157.000
  20303376.926    -7626987.69349  -5921827.03448  20303376.585    20303386.533
       247.000         218.000
  21283036.180     4228053.97549   3301523.48747  21283035.411    21283048.167
       238.000         199.000
 02  3 20 15 38  0.0000000  0  6G28G27G26G 4G 7G 8
  21583057.832     1795452.18849   1404670.91347  21583057.061    21583068.302
       238.000         201.000
  23849577.653    12222595.39449   9524989.29345  23849578.520    23849596.906
       213.000         143.000
  22626332.568    -7917957.81449  -6150438.04246  22626332.026    22626344.573
       226.000         182.000
  23161316.405    -9549333.24149  -7422283.89845  23161316.134    23161331.590
       218.000         156.000
  20305885.265    -7613806.30149  -5911555.87348  20305884.888    20305895.227
       247.000         217.000
  21296234.280     4297409.83849   3355566.85547  21296234.883    21296246.594
       241.000         200.000
 02  3 20 15 38 30.0000000  0  6G28G27G26G 4G 7G 8
  21588075.061     1821818.26549   1425215.79047  21588074.387    21588084.965
       237.000         200.000
  23868520.865    12322140.59149   9602556.56745  23868521.117    23868540.603
       212.000         144.000
  22628313.760    -7907546.00049  -6142325.03446  22628314.074    22628326.025
       226.000         180.000
  23142751.095    -9646895.35849  -7498306.24645  23142751.367    23142765.565
       218.000         156.000
  20308469.683    -7600225.35249  -5900973.37248  20308469.609    20308479.702
       247.000         218.000
  21309508.382     4367164.03449   3409920.60247  21309508.404    21309520.221
       240.000         200.000
 02  3 20 15 39  0.0000000  0  6G28G27G26G 4G 7G 8
  21593110.594     1848280.55149   1445835.63647  21593110.211    21593120.846
       236.000         198.000
  23887508.359    12421918.32749   9680305.03945  23887509.491    23887525.949
       216.000         146.000
  22630392.840    -7896620.56149  -6133811.79546  22630392.985    22630404.296
       227.000         179.000
  23124203.405    -9744363.72749  -7574255.52545  23124202.458    23124218.024
       218.000         157.000
  20311129.824    -7586246.86449  -5890081.09648  20311129.638    20311139.634
       247.000         218.000
  21322857.799     4437315.25249   3464583.72947  21322857.713    21322869.727
       240.000         200.000
 02  3 20 15 39 30.0000000  0  6G28G27G26G 4G 7G 8
  21598164.419     1874838.07349   1466529.68847  21598164.592    21598175.926
       238.000         199.000
  23906539.707    12521925.68449   9758232.43145  23906540.706    23906557.417
       214.000         146.000
  22632569.320    -7885183.69949  -6124900.06546  22632568.849    22632580.963
       227.000         179.000
  23105673.987    -9841736.06849  -7650129.97245  23105674.325    23105688.888
       218.000         159.000
  20313865.048    -7571873.46649  -5878881.10248  20313864.824    20313875.295
       246.000         218.000
  21336282.427     4507861.32749   3519554.51947  21336282.629    21336294.629
       241.000         200.000
 02  3 20 15 40  0.0000000  0  6G28G27G26G 4G 7G 8
  21603236.713     1901492.40749   1487299.19947  21603235.671    21603246.120
       236.000         197.000
  23925614.246    12622162.17349   9836338.32645  23925613.802    23925632.576
       210.000         144.000
  22634843.060    -7873235.17249  -6115589.63646  22634843.764    22634854.859
       228.000         180.000
  23087163.630    -9939008.05949  -7725926.24245  23087163.609    23087178.767
       220.000         162.000
  20316675.409    -7557105.40049  -5867373.57048  20316674.899    20316685.265
       246.000         218.000
  21349782.182     4578802.45749   3574833.15247  21349781.474    21349794.141
       239.000         199.000
 02  3 20 15 40 30.0000000  0  6G28G27G26G 4G 7G 8
  21608327.125     1928243.17049   1508143.81447  21608327.526    21608337.569
       238.000         197.000
  23944731.967    12722625.21649   9914620.76945  23944729.679    23944750.717
       204.000         143.000
  22637213.904    -7860776.87449  -6105881.95746  22637213.863    22637226.499
       227.000         181.000
  23068672.837   -10036177.08849  -7801642.27846  23068673.220    23068688.351
       219.000         164.000
  20319560.364    -7541944.59149  -5855560.00848  20319560.011    20319570.117
       246.000         217.000
  21363356.654     4650136.92649   3630418.27647  21363356.376    21363368.724
       239.000         199.000
 02  3 20 15 41  0.0000000  0  6G28G27G26G 4G 7G 8
  21613436.390     1955091.39049   1529064.40447  21613436.619    21613447.922
       238.000         198.000
  23963892.278    12823313.96949   9993079.10245  23963892.892    23963912.394
       203.000         141.000
  22639681.633    -7847809.03549  -6095777.24946  22639681.934    22639693.951
       229.000         182.000
  23050202.395   -10133239.02749  -7877274.88446  23050202.377    23050218.365
       222.000         166.000
  20322520.032    -7526391.83749  -5843441.03148  20322519.832    20322529.839
       246.000         217.000
  21377006.078     4721864.53249   3686309.74047  21377005.777    21377018.329
       239.000         199.000
 02  3 20 15 41 30.0000000  0  6G28G27G26G 4G 7G 8
  21618564.018     1982036.57349   1550060.52347  21618562.920    21618573.720
       236.000         198.000
  23983095.461    12924225.73749  10071711.21645  23983095.798    23983116.287
       208.000         145.000
  22642245.927    -7834333.73549  -6085277.10746  22642246.749    22642258.062
       230.000         184.000
  23031753.098   -10230191.59149  -7952822.25346  23031752.729    23031768.724
       223.000         166.000
  20325553.848    -7510449.31349  -5831018.33448  20325553.372    20325563.727
       245.000         217.000
  21390730.056     4793983.48949   3742506.16647  21390730.575    21390742.138
       240.000         199.000
 02  3 20 15 42  0.0000000  0  6G28G27G26G 4G 7G 8
  21623709.882     2009078.32949   1571131.90947  21623710.627    21623721.619
       241.000         200.000
  24002340.298    13025357.79549  10150514.99145  24002339.446    24002361.753
       204.000         145.000
  22644906.595    -7820352.85049  -6074383.00146  22644907.467    22644918.915
       231.000         185.000
  23013324.929   -10327032.42349  -8028282.58846  23013325.266    23013339.990
       223.000         166.000
  20328661.307    -7494119.26549  -5818293.67648  20328661.051    20328671.443
       245.000         216.000
  21404528.239     4866491.95049   3799006.09847  21404528.433    21404540.034
       239.000         199.000
 02  3 20 15 42 30.0000000  0  6G28G27G26G 4G 7G 8
  21628874.769     2036218.13349   1592279.68647  21628876.111    21628884.524
       245.000         202.000
  24021626.562    13126709.39049  10229489.80745  24021627.194    24021646.915
       205.000         143.000
  22647663.439    -7805866.41749  -6063094.96046  22647664.088    22647674.795
       230.000         184.000
  22994919.102   -10423756.95649  -8103652.30046  22994919.299    22994933.193
       223.000         166.000
  20331842.525    -7477402.04849  -5805267.32648  20331842.149    20331852.926
       244.000         216.000
  21418400.314     4939389.93449   3855809.55547  21418400.490    21418413.118
       239.000         199.000
 02  3 20 15 43  0.0000000  0  6G28G27G26G 4G 7G 8
  21634058.271     2063456.31749   1613504.14247  21634058.443    21634069.441
       242.000         202.000
  24040955.020    13228278.96549  10308634.53945  24040956.342    24040976.408
       207.000         144.000
  22650516.198    -7790875.41949  -6051413.77046  22650516.584    22650528.129
       229.000         183.000
  22976535.637   -10520361.71149  -8178928.68246  22976534.916    22976549.687
       222.000         167.000
  20335097.151    -7460298.86549  -5791940.22548  20335097.055    20335107.338
       244.000         216.000
  21432346.428     5012676.58349   3912915.85947  21432346.715    21432358.644
       239.000         199.000
 02  3 20 15 43 30.0000000  0  6G28G27G26G 4G 7G 8
  21639260.227     2090792.15149   1634804.68347  21639259.422    21639269.493
       240.000         202.000
  24060324.428    13330063.69449  10387946.90445  24060324.944    24060345.857
       210.000         146.000
  22653464.416    -7775382.24349  -6039341.24946  22653464.443    22653475.987
       230.000         182.000
  22958175.319   -10616844.70749  -8254110.18746  22958175.026    22958189.746
       222.000         168.000
  20338424.845    -7442812.34749  -5778314.41148  20338424.512    20338435.450
       245.000         217.000
  21446366.161     5086349.91549   3970323.47047  21446365.520    21446378.309
       237.000         198.000
 02  3 20 15 44  0.0000000  0  6G28G27G26G 4G 7G 8
  21644480.818     2118226.53449   1656181.99947  21644480.638    21644492.700
       242.000         203.000
  24079734.737    13432062.23149  10467425.85145  24079736.865    24079757.157
       210.000         148.000
  22656508.216    -7759387.59649  -6026877.99346  22656508.775    22656520.414
       231.000         184.000
  22939838.983   -10713201.97649  -8329193.70346  22939838.460    22939854.447
       222.000         170.000
  20341825.216    -7424943.50249  -5764390.69248  20341824.878    20341835.554
       244.000         216.000
  21460459.179     5160409.12549   4028031.77647  21460459.363    21460471.884
       238.000         197.000
 02  3 20 15 44 30.0000000  0  6G28G27G26G 4G 7G 8
  21649720.282     2145760.10049   1677636.63347  21649718.881    21649729.002
       239.000         201.000
  24099185.495    13534273.04649  10547070.21245  24099186.231    24099206.216
       207.000         145.000
  22659647.282    -7742892.53749  -6014024.79546  22659648.262    22659659.272
       232.000         185.000
  22921527.392   -10809430.15649  -8404176.62946  22921527.797    22921541.776
       224.000         171.000
  20345298.114    -7406693.47349  -5750169.93348  20345297.464    20345308.091
       244.000         215.000
  21474625.748     5234853.55449   4086040.24747  21474625.366    21474637.739
       237.000         197.000
 02  3 20 15 45  0.0000000  0  6G28G27G26G 4G 7G 8
  21654978.723     2173392.46049   1699168.23847  21654979.040    21654989.993
       242.000         203.000
  24118675.573    13636693.31049  10626877.81045  24118675.918    24118695.956
       204.000         141.000
  22662881.244    -7725898.89849  -6000783.10846  22662881.434    22662892.575
       231.000         185.000
  22903240.999   -10905526.62749  -8479056.93346  22903241.086    22903256.172
       225.000         173.000
  20348843.000    -7388064.66149  -5735654.02848  20348842.420    20348853.341
       244.000         215.000
  21488864.934     5309681.20949   4144347.34247  21488864.579    21488876.711
       237.000         195.000
 02  3 20 15 45 30.0000000  0  6G28G27G26G 4G 7G 8
  21660256.003     2201124.29049   1720777.34647  21660256.227    21660265.860
       242.000         200.000
  24138205.394    13739321.70549  10706847.56345  24138205.238    24138227.640
       203.000         134.000
  22666209.673    -7708407.96849  -5987153.92846  22666209.909    22666221.263
       231.000         184.000
  22884980.199   -11001487.87449  -8553831.85946  22884980.248    22884994.640
       224.000         173.000
  20352459.820    -7369058.11549  -5720843.79148  20352459.535    20352470.263
       245.000         215.000
  21503177.052     5384891.25649   4202952.39447  21503176.970    21503189.301
       236.000         195.000
 02  3 20 15 46  0.0000000  0  6G28G27G26G 4G 7G 8
  21665552.200     2228955.83949   1742464.15547  21665552.060    21665563.407
       240.000         201.000
  24157774.580    13842156.14349  10786977.83045  24157773.142    24157797.315
       201.000         134.000
  22669632.634    -7690421.03549  -5973138.25446  22669633.299    22669644.810
       231.000         184.000
  22866745.778   -11097310.75949  -8628498.97546  22866745.252    22866759.749
       225.000         171.000
  20356148.272    -7349675.50949  -5705740.51048  20356148.122    20356158.365
       245.000         215.000
  21517561.629     5460482.49749   4261854.48947  21517561.552    21517574.345
       236.000         194.000
 02  3 20 15 46 30.0000000  0  6G28G27G26G 4G 7G 8
  21670867.695     2256888.09349   1764229.46247  21670866.601    21670877.737
       239.000         200.000
  24177382.828    13945195.53949  10867267.82645  24177381.787    24177404.342
       203.000         133.000
  22673149.735    -7671938.72349  -5958736.55346  22673150.345    22673161.897
       231.000         184.000
  22848538.231   -11192991.35349  -8703055.21046  22848537.806    22848552.756
       223.000         171.000
  20359908.173    -7329917.75249  -5690344.90248  20359907.879    20359918.518
       245.000         215.000
  21532018.776     5536454.43749   4321053.23647  21532019.193    21532031.060
       237.000         195.000
 02  3 20 15 47  0.0000000  0  6G28G27G26G 4G 7G 8
  21676202.164     2284921.30549   1786073.43147  21676201.108    21676212.401
       238.000         199.000
  24197029.609    14048437.86949  10947715.90945  24197030.664    24197049.742
       206.000         132.000
  22676760.766    -7652962.61349  -5943950.07146  22676760.805    22676773.281
       230.000         184.000
  22830358.276   -11288526.45049  -8777498.05846  22830358.152    22830373.498
       224.000         170.000
  20363739.044    -7309786.66249  -5674658.39148  20363738.747    20363749.396
       245.000         215.000
  21546548.137     5612805.67949   4380547.54247  21546547.855    21546560.914
       236.000         195.000
 02  3 20 15 47 30.0000000  0  6G28G27G26G 4G 7G 8
  21681555.849     2313055.76149   1807996.27347  21681556.601    21681566.688
       242.000         199.000
  24216714.347    14151881.02549  11028320.58145  24216714.707    24216735.787
       208.000         134.000
  22680465.474    -7633494.27249  -5928780.02746  22680466.060    22680478.041
       231.000         184.000
  22812206.766   -11383912.86049  -8851825.03946  22812206.138    22812220.310
       224.000         169.000
  20367640.650    -7289283.64649  -5658682.06448  20367640.336    20367651.056
       246.000         215.000
  21561149.353     5689535.00149   4440336.46747  21561149.337    21561162.886
       236.000         195.000
 02  3 20 15 48  0.0000000  0  6G28G27G26G 4G 7G 8
  21686929.109     2341291.05749   1829997.70447  21686929.451    21686940.585
       241.000         200.000
  24236437.070    14255522.49249  11109079.73745  24236438.653    24236457.928
       210.000         140.000
  22684263.684    -7613535.61549  -5913227.93046  22684263.981    22684275.764
       231.000         184.000
  22794084.025   -11479148.05449  -8926034.21646  22794084.134    22794097.721
       224.000         167.000
  20371612.648    -7268410.96849  -5642417.69648  20371612.526    20371623.517
       247.000         216.000
  21575822.327     5766640.46649   4500418.46747  21575822.349    21575835.126
       236.000         195.000
 02  3 20 15 48 30.0000000  0  6G28G27G26G 4G 7G 8
  21692321.520     2369627.50949   1852077.96547  21692321.878    21692332.313
       241.000         200.000
  24256197.173    14359360.32149  11189991.86945  24256198.273    24256219.886
       213.000         146.000
  22688154.692    -7593088.28049  -5897295.05446  22688155.347    22688166.846
       230.000         183.000
  22775990.693   -11574228.76249  -9000122.99646  22775990.700    22776003.337
       223.000         166.000
  20375654.725    -7247170.25449  -5625866.54848  20375654.628    20375665.003
       247.000         216.000
  21590566.498     5844120.84949   4560792.61947  21590566.442    21590578.824
       236.000         194.000
 02  3 20 15 49  0.0000000  0  5G28G26G 4G 7G 8
  21697734.434     2398071.82149   1874242.24947  21697734.451    21697744.661
       241.000         199.000
  22692139.737    -7572147.79349  -5880977.89646  22692140.608    22692151.955
       232.000         184.000
  22757928.479   -11669145.67249  -9074084.15046  22757928.864    22757941.555
       222.000         165.000
  20379767.667    -7225557.21249  -5609025.27648  20379767.211    20379777.764
       247.000         216.000
  21605382.957     5921981.15949   4621462.81247  21605382.425    21605396.235
       234.000         193.000
 02  3 20 15 49 30.0000000  0  5G28G26G 4G 7G 8
  21703167.046     2426619.68749   1896487.24947  21703167.050    21703178.523
       240.000         198.000
  22696217.488    -7550720.01249  -5864281.04346  22696217.336    22696230.114
       230.000         184.000
  22739897.390   -11763900.11349  -9147918.68546  22739897.217    22739911.794
       223.000         164.000
  20383950.187    -7203577.92749  -5591898.62448  20383949.855    20383960.475
       247.000         216.000
  21620270.475     6000215.31049   4682424.32747  21620269.909    21620283.526
       235.000         192.000
 02  3 20 15 50  0.0000000  0  5G28G26G 4G 7G 8
  21708618.562     2455267.03649   1918809.76247  21708618.116    21708629.836
       239.000         197.000
  22700386.754    -7528810.94549  -5847209.15646  22700387.179    22700399.207
       230.000         183.000
  22721897.032   -11858493.34949  -9221627.60846  22721895.939    22721911.317
       220.000         164.000
  20388201.297    -7181238.37349  -5574491.24848  20388200.852    20388211.575
       247.000         216.000
  21635228.118     6078817.62049   4743672.71347  21635228.473    21635240.660
       236.000         191.000
 02  3 20 15 50 30.0000000  0  5G28G26G 4G 7G 8
  21714089.461     2484015.47049   1941211.04047  21714089.629    21714099.464
       240.000         197.000
  22704647.518    -7506420.73849  -5829762.33946  22704647.620    22704659.762
       229.000         183.000
  22703927.784   -11952920.63849  -9295207.23746  22703926.948    22703941.571
       221.000         164.000
  20392520.865    -7158538.83649  -5556803.36748  20392520.652    20392531.318
       247.000         216.000
  21650255.972     6157788.08449   4805207.96547  21650255.990    21650268.916
       236.000         191.000
 02  3 20 15 51  0.0000000  0  5G28G26G 4G 7G 8
  21719579.569     2512866.21749   1963692.04347  21719578.888    21719589.131
       239.000         194.000
  22708999.586    -7483550.42749  -5811941.43746  22708999.767    22709011.866
       229.000         182.000
  22685990.933   -12047178.08049  -9368654.52146  22685990.306    22686005.045
       218.000         164.000
  20396908.785    -7135480.49649  -5538835.89348  20396908.654    20396919.247
       245.000         216.000
  21665353.722     6237126.24049   4867029.71647  21665354.167    21665366.700
       235.000         192.000
 02  3 20 15 51 30.0000000  0  5G28G26G 4G 7G 8
  21725089.550     2541821.85749   1986254.77247  21725088.354    21725098.921
       238.000         192.000
  22713443.135    -7460199.20649  -5793745.80146  22713443.650    22713456.101
       230.000         182.000
  22668087.385   -12141260.11249  -9441965.12446  22668087.270    22668101.847
       220.000         165.000
  20401365.153    -7112062.43149  -5520588.12048  20401364.919    20401375.457
       246.000         216.000
  21680521.621     6316832.83249   4929138.55947  21680520.908    21680534.496
       234.000         192.000
 02  3 20 15 52  0.0000000  0  5G28G26G 4G 7G 8
  21730619.578     2570882.10949   2008899.01947  21730620.035    21730628.940
       240.000         193.000
  22717977.960    -7436369.35649  -5775177.20046  22717978.851    22717990.880
       231.000         183.000
  22650218.193   -12235164.02649  -9515136.92746  22650217.661    22650232.479
       220.000         165.000
  20405889.537    -7088287.08049  -5502061.94348  20405889.297    20405899.846
       246.000         216.000
  21695758.964     6396906.07549   4991533.11947  21695758.309    21695772.097
       233.000         190.000
 02  3 20 15 52 30.0000000  0  5G28G26G 4G 7G 8
  21736169.388     2600045.89049   2031623.92947  21736169.763    21736180.736
       240.000         193.000
  22722603.222    -7412064.24449  -5756238.26646  22722602.939    22722616.002
       228.000         183.000
  22632382.845   -12328888.64249  -9588169.04146  22632383.217    22632397.432
       222.000         165.000
  20410481.251    -7064157.84649  -5483260.00848  20410481.008    20410491.459
       245.000         215.000
  21711065.657     6477342.81949   5054210.90547  21711065.892    21711078.593
       232.000         189.000
 02  3 20 15 53  0.0000000  0  5G28G26G 4G 7G 8
  21741739.100     2629314.55749   2054430.59047  21741739.067    21741750.078
       240.000         193.000
  22727318.711    -7387284.37449  -5736929.39746  22727318.885    22727331.172
       227.000         181.000
  22614582.812   -12422429.07149  -9661057.64346  22614583.010    22614597.576
       224.000         168.000
  20415140.234    -7039675.24949  -5464182.71948  20415140.143    20415150.578
       246.000         215.000
  21726441.381     6558142.67349   5117171.63247  21726441.138    21726454.707
       231.000         188.000
 02  3 20 15 53 30.0000000  0  5G28G26G 4G 7G 8
  21747328.975     2658688.86549   2077319.53147  21747328.818    21747340.385
       240.000         194.000
  22732124.165    -7362031.16449  -5717251.67246  22732124.827    22732136.419
       228.000         180.000
  22596818.382   -12515782.00949  -9733800.12246  22596818.958    22596833.417
       226.000         171.000
  20419866.196    -7014840.59249  -5444831.10548  20419865.801    20419876.472
       245.000         215.000
  21741886.098     6639304.81049   5180414.66247  21741885.966    21741899.824
       232.000         188.000
 02  3 20 15 54  0.0000000  0  5G28G26G 4G 7G 8
  21752938.779     2688168.86149   2100290.85747  21752937.425    21752949.172
       236.000         192.000
  22737019.565    -7336306.66849  -5697206.72746  22737021.008    22737031.907
       230.000         180.000
  22579090.091   -12608944.74849  -9806394.42046  22579090.461    22579103.691
       227.000         173.000
  20424658.664    -6989656.07949  -5425206.87748  20424658.373    20424668.837
       245.000         215.000
  21757399.350     6720827.17349   5243938.39946  21757398.576    21757412.473
       231.000         187.000
 02  3 20 15 54 30.0000000  0  5G28G26G 4G 7G 8
  21758568.794     2717755.69049   2123345.41347  21758569.236    21758580.090
       240.000         192.000
  22742004.405    -7310111.73449  -5676795.20646  22742004.488    22742017.104
       229.000         180.000
  22561398.912   -12701912.95449  -9878837.14046  22561399.378    22561413.854
       227.000         175.000
  20429517.640    -6964122.43249  -5405310.59048  20429517.259    20429527.520
       244.000         214.000
  21772981.095     6802709.35549   5307742.50246  21772981.668    21772994.661
       233.000         187.000
 02  3 20 15 55  0.0000000  0  5G28G26G 4G 7G 8
  21764219.438     2747448.46349   2146482.54447  21764219.874    21764230.580
       239.000         193.000
  22747078.202    -7283449.62349  -5656019.66246  22747078.175    22747090.380
       229.000         179.000
  22543745.110   -12794684.86449  -9951126.86946  22543745.530    22543759.428
       228.000         176.000
  20434442.345    -6938242.93149  -5385144.80248  20434442.340    20434452.810
       245.000         215.000
  21788631.056     6884948.45049   5371824.72347  21788631.135    21788645.087
       234.000         189.000
 02  3 20 15 55 30.0000000  0  5G28G26G 4G 7G 8
  21769890.159     2777247.05449   2169702.12147  21769890.299    21769901.049
       239.000         194.000
  22752240.464    -7256322.33549  -5634881.62846  22752241.141    22752252.614
       228.000         178.000
  22526128.989   -12887257.71949 -10023261.48946  22526129.095    22526143.179
       229.000         177.000
  20439432.554    -6912019.68249  -5364711.15448  20439431.966    20439442.864
       244.000         215.000
  21804348.391     6967542.70749   5436183.71847  21804348.264    21804362.031
       233.000         189.000
 02  3 20 15 56  0.0000000  0  5G28G26G 4G 7G 8
  21775581.408     2807153.10049   2193005.44647  21775581.079    21775592.086
       238.000         195.000
  22757491.105    -7228730.59049  -5613381.68446  22757491.496    22757502.564
       229.000         177.000
  22508551.769   -12979626.96849 -10095237.43946  22508551.724    22508566.012
       229.000         178.000
  20444488.019    -6885453.10549  -5344009.97848  20444487.846    20444498.561
       244.000         215.000
  21820133.146     7050491.64549   5500819.07447  21820133.506    21820146.968
       234.000         189.000
 02  3 20 15 56 30.0000000  0  5G28G26G 4G 7G 8
  21781292.850     2837167.03449   2216392.79847  21781293.654    21781304.038
       240.000         194.000
  22762829.855    -7200676.12549  -5591521.17146  22762829.451    22762842.368
       227.000         176.000
  22491013.700   -13071789.45749 -10167052.29046  22491014.015    22491027.652
       228.000         178.000
  20449608.499    -6858545.05949  -5323042.71848  20449607.761    20449619.148
       243.000         215.000
  21835985.342     7133793.99149   5565729.79947  21835985.212    21835998.944
       233.000         188.000
 02  3 20 15 57  0.0000000  0  5G28G26G 4G 7G 8
  21787025.165     2867289.62649   2239864.85447  21787024.127    21787036.451
       237.000         194.000
  22768256.179    -7172160.60849  -5569301.40146  22768256.354    22768269.054
       227.000         175.000
  22473515.622   -13163741.54149 -10238703.17546  22473515.699    22473530.124
       229.000         178.000
  20454793.613    -6831296.84649  -5301810.40248  20454793.451    20454804.076
       244.000         215.000
  21851904.303     7217448.35049   5630914.82447  21851904.521    21851917.990
       234.000         188.000
 02  3 20 15 57 30.0000000  0  5G28G26G 4G 7G 8
  21792778.030     2897522.37649   2263422.69647  21792777.834    21792789.038
       236.000         193.000
  22773770.081    -7143184.87249  -5546723.02946  22773769.298    22773782.707
       225.000         174.000
  22456058.475   -13255479.19149 -10310186.98346  22456058.484    22456072.107
       229.000         178.000
  20460043.449    -6803709.53649  -5280313.85148  20460043.507    20460054.105
       245.000         216.000
  21867890.260     7301454.13849   5696373.68747  21867889.875    21867903.911
       233.000         188.000
 02  3 20 15 58  0.0000000  0  5G28G26G 4G 7G 8
  21798552.337     2927865.45949   2287066.55547  21798551.657    21798564.157
       237.000         195.000
  22779371.352    -7113750.84349  -5523787.54146  22779371.309    22779383.489
       227.000         174.000
  22438642.727   -13346999.31049 -10381501.30046  22438642.701    22438657.306
       229.000         176.000
  20465357.443    -6775784.74949  -5258554.33748  20465357.208    20465367.804
       244.000         216.000
  21883942.688     7385809.86849   5762105.22946  21883942.532    21883956.095
       233.000         186.000
 02  3 20 15 58 30.0000000  0  5G28G26G 4G 7G 8
  21804347.056     2958317.68349   2310795.41947  21804347.724    21804358.659
       237.000         194.000
  22785059.005    -7083862.08049  -5500497.70746  22785059.691    22785072.105
       227.000         174.000
  22421268.726   -13438299.91849 -10452644.55346  22421268.649    22421282.287
       228.000         176.000
  20470734.934    -6747525.94849  -5236534.54848  20470734.765    20470745.582
       244.000         217.000
  21900061.284     7470512.29549   5828106.91846  21900061.443    21900075.257
       233.000         186.000
 02  3 20 15 59  0.0000000  0  5G28G26G 4G 7G 8
  21810163.190     2988879.51249   2334609.76747  21810163.548    21810173.105
       238.000         195.000
  22790833.133    -7053520.16349  -5476854.76646  22790832.975    22790845.301
       224.000         175.000
  22403937.017   -13529377.98849 -10523614.39946  22403937.467    22403950.676
       228.000         176.000
  20476175.748    -6718934.75549  -5214255.75048  20476175.579    20476186.272
       245.000         217.000
  21916245.563     7555560.06849   5894377.70446  21916245.379    21916259.255
       232.000         186.000
 02  3 20 15 59 30.0000000  0  5G28G26G 4G 7G 8
  21815999.981     3019551.20749   2358509.66347  21815999.698    21816010.603
       237.000         193.000
  22796692.723    -7022727.56549  -5452860.64846  22796693.557    22796705.302
       227.000         174.000
  22386648.385   -13620230.58949 -10594408.54846  22386647.926    22386662.418
       227.000         177.000
  20481679.383    -6690013.26649  -5191719.58348  20481679.169    20481689.785
       244.000         216.000
  21932495.063     7640951.31749   5960916.12546  21932495.090    21932508.889
       231.000         185.000
 02  3 20 16  0  0.0000000  0  5G28G26G 4G 7G 8
  21821858.096     3050334.80049   2382496.76047  21821858.482    21821868.191
       240.000         195.000
  22802638.206    -6991484.66349  -5428515.65446  22802638.562    22802651.558
       227.000         175.000
  22369403.510   -13710852.59549 -10665023.02946  22369403.025    22369417.761
       226.000         176.000
  20487245.862    -6660761.71849  -5168926.22148  20487245.745    20487256.477
       245.000         217.000
  21948809.928     7726686.04349   6027722.19446  21948809.945    21948823.733
       230.000         184.000
 02  3 20 16  0 30.0000000  0  5G28G26G 4G 7G 8
  21827737.348     3081229.95349   2406570.79847  21827735.943    21827747.420
       235.000         192.000
  22808668.737    -6959794.23449  -5403821.94046  22808668.707    22808680.898
       226.000         175.000
  22352203.002   -13801242.07149 -10735456.28746  22352203.092    22352216.619
       228.000         175.000
  20492874.609    -6631182.88249  -5145877.83548  20492873.899    20492884.951
       245.000         216.000
  21965189.674     7812761.53249   6094793.78746  21965190.035    21965203.192
       232.000         184.000
 02  3 20 16  1  0.0000000  0  5G28G26G 4G 7G 8
  21833637.842     3112238.64049   2430733.30047  21833637.327    21833649.313
       237.000         193.000
  22814784.231    -6927656.62449  -5378779.76946  22814784.383    22814797.870
       225.000         174.000
  22335047.571   -13891393.89949 -10805704.39246  22335047.049    22335061.926
       226.000         175.000
  20498565.477    -6601276.92449  -5122574.55948  20498565.428    20498576.227
       245.000         216.000
  21981634.485     7899178.12849   6162131.17746  21981634.281    21981648.041
       231.000         184.000
 02  3 20 16  1 30.0000000  0  5G28G26G 4G 7G 8
  21839560.167     3143360.32349   2454983.82647  21839560.507    21839571.932
       238.000         194.000
  22820984.429    -6895074.90749  -5353391.54846  22820985.740    22820997.505
       225.000         175.000
  22317937.615   -13981306.06149 -10875765.73646  22317937.204    22317952.245
       226.000         176.000
  20504318.249    -6571046.55049  -5099018.48948  20504318.056    20504328.703
       246.000         216.000
  21998143.486     7985933.07249   6229732.21746  21998143.132    21998157.811
       231.000         184.000
 02  3 20 16  2  0.0000000  0  5G28G26G 4G 7G 8
  21845504.065     3174594.31749   2479321.89647  21845503.952    21845514.234
       239.000         194.000
  22827268.619    -6862052.09749  -5327659.61546  22827268.791    22827282.050
       225.000         176.000
  22300873.699   -14070976.43349 -10945638.66146  22300873.796    22300888.079
       227.000         176.000
  20510132.129    -6540494.64849  -5075211.87748  20510131.391    20510142.377
       244.000         215.000
  22014716.509     8073023.68549   6297594.80846  22014716.619    22014730.719
       232.000         185.000
 02  3 20 16  2 30.0000000  0  5G28G26G 4G 7G 8
  21851469.245     3205941.01349   2503747.77147  21851469.492    21851480.880
       239.000         195.000
  22833636.169    -6828590.52349  -5301585.79246  22833636.712    22833649.587
       226.000         175.000
  22283856.508   -14160401.78049 -11015320.66846  22283856.497    22283870.906
       228.000         176.000
  20516006.656    -6509623.28049  -5051156.33148  20516006.454    20516017.171
       246.000         215.000
  22031353.074     8160448.07249   6365717.49646  22031353.182    22031366.993
       232.000         185.000
 02  3 20 16  3  0.0000000  0  5G28G26G 4G 7G 8
  21857456.130     3237401.42849   2528262.26647  21857456.048    21857467.316
       239.000         197.000
  22840087.185    -6794691.26349  -5275170.92446  22840088.666    22840100.819
       226.000         175.000
  22266886.664   -14249578.36949 -11084808.83646  22266886.895    22266900.272
       230.000         176.000
  20521942.013    -6478433.53049  -5026852.69448  20521941.715    20521952.559
       246.000         216.000
  22048053.008     8248205.32449   6434099.56446  22048053.001    22048066.727
       231.000         185.000
 02  3 20 16  3 30.0000000  0  5G28G26G 4G 7G 8
  21863464.817     3268976.38649   2552866.03147  21863464.009    21863474.728
       236.000         194.000
  22846621.157    -6760356.37949  -5248416.60246  22846621.923    22846634.086
       227.000         176.000
  22249965.042   -14338502.81349 -11154100.51546  22249965.379    22249978.979
       232.000         178.000
  20527937.497    -6446926.94349  -5002302.18148  20527937.175    20527948.595
       246.000         216.000
  22064815.836     8336293.99949   6502739.87746  22064815.086    22064829.358
       229.000         183.000
 02  3 20 16  4  0.0000000  0  5G28G26G 4G 7G 8
  21869495.289     3300666.84549   2577559.74547  21869496.343    21869506.872
       241.000         195.000
  22853237.535    -6725587.44649  -5221324.04146  22853237.653    22853250.493
       224.000         175.000
  22233091.953   -14427171.17449 -11223192.64446  22233092.520    22233106.337
       231.000         180.000
  20533993.082    -6415104.94949  -4977505.89348  20533992.893    20534004.086
       247.000         216.000
  22081641.293     8424712.88149   6571637.49746  22081641.028    22081655.531
       230.000         183.000
 02  3 20 16  4 30.0000000  0  5G28G26G 4G 7G 8
  21875548.274     3332473.67449   2602344.20447  21875547.923    21875560.172
       239.000         198.000
  22859936.029    -6690386.35949  -5193894.72746  22859936.875    22859948.681
       226.000         173.000
  22216268.324   -14515580.10149 -11292082.59846  22216268.887    22216282.259
       233.000         181.000
  20540108.413    -6382968.97549  -4952464.94248  20540107.909    20540119.361
       245.000         215.000
  22098529.490     8513460.64149   6640791.37646  22098529.237    22098544.000
       229.000         183.000
 02  3 20 16  5  0.0000000  0  5G28G26G 4G 7G 8
  21881622.863     3364396.76049   2627219.17747  21881622.948    21881633.538
       239.000         196.000
  22866716.493    -6654755.51649  -5166130.57146  22866717.131    22866729.174
       225.000         173.000
  22199494.575   -14603726.73349 -11360768.15746  22199494.300    22199508.607
       231.000         181.000
  20546282.953    -6350521.55249  -4927181.31448  20546282.525    20546294.015
       246.000         215.000
  22115479.945     8602535.05349   6710199.79146  22115479.472    22115495.300
       228.000         183.000
 02  3 20 16  5 30.0000000  0  5G28G26G 4G 7G 8
  21887720.206     3396436.97049   2652185.48747  21887720.516    21887732.022
       242.000         198.000
  22873578.284    -6618696.71949  -5138032.92946  22873578.451    22873592.013
       224.000         173.000
  22182771.398   -14691607.54949 -11429246.59646  22182771.577    22182784.429
       234.000         181.000
  20552516.570    -6317763.85649  -4901655.91048  20552516.199    20552527.570
       246.000         215.000
  22132492.309     8691934.88949   6779861.76946  22132492.544    22132507.053
       229.000         183.000
 02  3 20 16  6  0.0000000  0  5G28G26G 4G 7G 8
  21893839.465     3428594.17249   2677242.91847  21893837.602    21893850.354
       235.000         196.000
  22880520.926    -6582212.91749  -5109604.11646  22880520.565    22880534.827
       224.000         173.000
  22166099.388   -14779220.17249 -11497516.06246  22166098.979    22166113.004
       233.000         182.000
  20558808.740    -6284698.63749  -4875890.88548  20558808.453    20558819.009
       245.000         214.000
  22149566.213     8781657.62449   6849775.35446  22149567.044    22149581.213
       230.000         182.000
 02  3 20 16  6 30.0000000  0  5G28G26G 4G 7G 8
  21899981.308     3460870.94749   2702393.53847  21899981.938    21899993.476
       240.000         196.000
  22887544.428    -6545303.92649  -5080843.96946  22887545.002    22887557.618
       224.000         173.000
  22149479.096   -14866559.23649 -11565572.36646  22149478.995    22149491.997
       232.000         182.000
  20565159.463    -6251325.46249  -4849885.88548  20565159.406    20565170.050
       245.000         213.000
  22166701.683     8871703.79549   6919940.97946  22166701.562    22166715.870
       230.000         181.000
 02  3 20 16  7  0.0000000  0  5G28G26G 4G 7G 8
  21906146.041     3493265.35549   2727635.83347  21906146.091    21906157.666
       239.000         196.000
  22894648.166    -6507974.66849  -5051756.36046  22894649.454    22894661.803
       226.000         175.000
  22132911.311   -14953623.99049 -11633414.91646  22132910.875    22132924.253
       233.000         183.000
  20571567.998    -6217648.86149  -4823644.45147  20571568.010    20571578.736
       245.000         212.000
  22183897.706     8962068.89649   6990355.12046  22183897.567    22183911.988
       230.000         180.000
 02  3 20 16  7 30.0000000  0  5G28G26G 4G 7G 8
  21912333.010     3525778.38549   2752970.52847  21912333.207    21912345.271
       241.000         196.000
  22901831.540    -6470226.75149  -5022342.51246  22901831.852    22901844.974
       224.000         174.000
  22116396.305   -15040410.73449 -11701040.83146  22116396.028    22116408.893
       232.000         183.000
  20578034.151    -6183669.85549  -4797167.37647  20578034.143    20578045.086
       245.000         212.000
  22201154.265     9052752.02449   7061017.07746  22201154.311    22201169.129
       230.000         181.000
 02  3 20 16  8  0.0000000  0  5G28G26G 4G 7G 8
  21918543.012     3558411.13249   2778398.51447  21918543.558    21918553.870
       242.000         197.000
  22909094.133    -6432061.80649  -4992603.71646  22909095.073    22909107.521
       225.000         174.000
  22099934.883   -15126915.73749 -11768447.20346  22099934.184    22099947.821
       232.000         182.000
  20584557.533    -6149389.92749  -4770455.81847  20584557.357    20584568.385
       244.000         212.000
  22218471.181     9143751.79549   7131925.75246  22218471.432    22218485.501
       230.000         180.000
 02  3 20 16  8 30.0000000  0  5G28G26G 4G 7G 8
  21924775.715     3591162.52749   2803918.98647  21924775.344    21924787.032
       240.000         194.000
  22916435.480    -6393483.51049  -4962542.84646  22916436.901    22916448.637
       225.000         172.000
  22083527.155   -15213137.36049 -11835632.79246  22083527.172    22083540.901
       231.000         183.000
  20591137.514    -6114812.41449  -4743512.36547  20591137.142    20591148.224
       244.000         212.000
  22235847.581     9235064.86149   7203078.55946  22235847.313    22235862.486
       228.000         180.000
 02  3 20 16  9  0.0000000  0  5G28G26G 4G 7G 8
  21931031.040     3624034.56949   2829533.41247  21931031.263    21931043.009
       240.000         196.000
  22923855.381    -6354492.58449  -4932160.43446  22923856.404    22923869.009
       224.000         173.000
  22067174.518   -15299070.81249 -11902593.82346  22067174.873    22067187.801
       233.000         184.000
  20597773.982    -6079937.71149  -4716337.33947  20597773.408    20597784.755
       244.000         211.000
  22253283.622     9326691.18249   7274475.44346  22253283.572    22253299.210
       229.000         180.000
 02  3 20 16  9 30.0000000  0  5G28G26G 4G 7G 8
  21937309.642     3657027.73549   2855242.25347  21937309.487    21937319.756
       240.000         195.000
  22931353.247    -6315091.50649  -4901458.42146  22931354.184    22931367.032
       225.000         173.000
  22050877.325   -15384713.20649 -11969328.04546  22050876.956    22050891.141
       231.000         184.000
  20604466.616    -6044767.70549  -4688932.21347  20604466.275    20604477.607
       243.000         212.000
  22270778.952     9418628.80749   7346114.91446  22270778.141    22270794.498
       227.000         180.000
 02  3 20 16 10  0.0000000  0  5G28G26G 4G 7G 8
  21943611.423     3690142.63249   2881045.96347  21943611.304    21943622.932
       239.000         193.000
  22938928.819    -6275282.32449  -4870438.39746  22938929.729    22938942.411
       225.000         173.000
  22034635.973   -15470061.17849 -12035832.86446  22034636.089    22034649.221
       230.000         183.000
  20611215.131    -6009304.26849  -4661298.44447  20611214.543    20611226.212
       243.000         212.000
  22288333.197     9510875.90249   7417995.51846  22288333.598    22288348.037
       228.000         179.000
 02  3 20 16 10 30.0000000  0  5G28G26G 4G 7G 8
  21949936.186     3723379.63049   2906944.77947  21949934.856    21949947.424
       235.000         192.000
  22946581.542    -6235067.76049  -4839102.50046  22946581.812    22946595.407
       226.000         172.000
  22018451.303   -15555111.86249 -12102106.03046  22018451.343    22018464.825
       232.000         184.000
  20618019.016    -5973549.54449  -4633437.69847  20618018.513    20618030.011
       243.000         212.000
  22305946.016     9603430.42049   7490115.66646  22305946.465    22305961.505
       228.000         179.000
 02  3 20 16 11  0.0000000  0  5G28G26G 4G 7G 8
  21956284.432     3756740.51649   2932940.17047  21956283.861    21956295.701
       236.000         189.000
  22954311.147    -6194448.76849  -4807451.46346  22954311.421    22954324.804
       225.000         172.000
  22002324.115   -15639860.69049 -12168143.99646  22002324.458    22002337.720
       233.000         185.000
  20624878.230    -5937504.10149  -4605350.41848  20624877.884    20624889.888
       243.000         213.000
  22323617.150     9696291.56049   7562474.75546  22323617.371    22323632.267
       230.000         179.000
 02  3 20 16 11 30.0000000  0  5G28G26G 4G 7G 8
  21962656.496     3790225.09449   2959031.91247  21962657.209    21962668.233
       239.000         190.000
  22962117.166    -6153428.13649  -4775487.46246  22962117.986    22962131.331
       225.000         172.000
  21986254.736   -15724305.34249 -12233944.93646  21986254.862    21986267.800
       231.000         186.000
  20631792.400    -5901170.29349  -4577038.44548  20631792.417    20631803.556
       244.000         214.000
  22341346.331     9789457.25049   7635071.13146  22341347.037    22341361.744
       229.000         180.000
 02  3 20 16 12  0.0000000  0  5G28G26G 4G 7G 8
  21969051.980     3823832.84249   2985219.62947  21969049.683    21969064.086
       232.000         190.000
  22969999.040    -6112009.42549  -4743213.27146  22969999.830    22970012.719
       225.000         173.000
  21970243.655   -15808443.71349 -12299507.21846  21970243.667    21970257.173
       233.000         186.000
  20638760.912    -5864551.26549  -4548504.21148  20638760.553    20638772.074
       245.000         214.000
  22359132.867     9882924.60349   7707902.56846  22359133.004    22359147.668
       228.000         179.000
 02  3 20 16 12 30.0000000  0  5G28G26G 4G 7G 8
  21975471.103     3857566.72949   3011505.61247  21975471.987    21975482.699
       237.000         188.000
  22977956.682    -6070192.54549  -4710628.81646  22977957.041    22977969.889
       225.000         172.000
  21954291.986   -15892270.09049 -12364826.39446  21954292.040    21954305.152
       233.000         186.000
  20645783.718    -5827646.40549  -4519747.26148  20645783.881    20645794.614
       245.000         214.000
  22376976.650     9976693.94149   7780969.32946  22376976.681    22376992.087
       228.000         178.000
 02  3 20 16 13  0.0000000  0  5G28G26G 4G 7G 8
  21981914.538     3891425.27049   3037888.81147  21981914.287    21981926.550
       235.000         188.000
  22985989.171    -6027981.95349  -4677737.57546  22985989.591    22986003.375
       225.000         172.000
  21938399.841   -15975783.47149 -12429901.69346  21938399.772    21938412.972
       233.000         187.000
  20652860.310    -5790459.57149  -4490770.57948  20652860.212    20652871.028
       246.000         214.000
  22394877.250    10070761.51349   7854268.47446  22394876.989    22394892.745
       229.000         178.000
 02  3 20 16 13 30.0000000  0  6G28G26G 4G24G 7G 8
  21988381.456     3925409.72249   3064370.07146  21988380.961    21988394.265
       231.000         187.000
  22994096.374    -5985379.04249  -4644540.63046  22994097.627    22994110.485
       227.000         172.000
  21922567.963   -16058980.17749 -12494730.21747  21922568.422    21922581.101
       234.000         188.000
                  -1515436.76049  -1147686.12944                  24263631.119
       209.000         116.000
  20659990.254    -5752991.96449  -4461575.12748  20659990.027    20660001.184
       246.000         215.000
  22412834.441    10165126.00449   7927798.98446  22412834.198    22412850.750
       228.000         178.000
 02  3 20 16 14  0.0000000  0  6G28G26G 4G24G 7G 8
  21994872.214     3959520.09949   3090949.42246  21994871.527    21994884.602
       231.000         185.000
  23002277.647    -5942387.17349  -4611040.60446  23002278.274    23002291.378
       227.000         172.000
  21906796.939   -16141857.40049 -12559309.79447  21906796.310    21906810.114
       232.000         188.000
  24243620.717    -1620488.02649  -1229544.19545  24243619.192    24243641.513
       210.000         138.000
  20667173.131    -5715246.13849  -4432162.87648  20667172.874    20667184.318
       246.000         216.000
  22430847.692    10259785.06049   8001559.00546  22430848.487    22430864.208
       229.000         179.000
 02  3 20 16 14 30.0000000  0  6G28G26G 4G24G 7G 8
  22001386.441     3993751.61449   3117623.19346  22001386.767    22001398.575
       236.000         186.000
  23010531.501    -5899013.89349  -4577243.37546  23010532.760    23010544.565
       227.000         172.000
  21891086.010   -16224417.52449 -12623642.29647  21891086.076    21891099.582
       233.000         188.000
  24223623.177    -1725571.97049  -1311427.75245  24223623.065    24223644.570
       206.000         147.000
  20674407.596    -5677229.32649  -4402539.46348  20674407.376    20674418.481
       246.000         216.000
  22448915.655    10354731.32249   8075542.80646  22448915.419    22448931.349
       228.000         178.000
 02  3 20 16 15  0.0000000  0  7G28G26G 4G 9G24G 7G 8
  22007924.681     4028108.76049   3144394.89946  22007924.101    22007935.691
       233.000         185.000
  23018858.222    -5855257.55649  -4543147.65046  23018858.686    23018872.464
       225.000         172.000
  21875437.039   -16306653.49649 -12687722.19647  21875436.850    21875450.865
       233.000         188.000
                  -1342077.49449  -1024020.22144                  23681118.666
       214.000         122.000
  24203621.122    -1830682.26449  -1393331.75545  24203621.841    24203642.698
       209.000         149.000
  20681694.006    -5638939.36849  -4372703.20348  20681693.831    20681705.094
       246.000         216.000
  22467038.441    10449967.10049   8149752.24446  22467038.173    22467053.826
       228.000         176.000
 02  3 20 16 15 30.0000000  0  7G28G26G 4G 9G24G 7G 8
  22014487.141     4062594.89849   3171267.03746  22014487.577    22014499.098
       233.000         184.000
  23027257.654    -5811118.21449  -4508753.47146  23027258.810    23027271.693
       226.000         172.000
  21859850.752   -16388559.37649 -12751544.89047  21859850.850    21859864.785
       233.000         189.000
  23662712.971    -1438718.38249  -1099324.78745  23662712.845    23662728.794
       215.000         150.000
  24183615.610    -1935813.28449  -1475251.97145  24183614.412    24183635.991
       205.000         147.000
  20689032.568    -5600375.41249  -4342653.44848  20689032.271    20689043.866
       246.000         216.000
  22485216.708    10545492.96549   8224187.70746  22485217.198    22485231.291
       229.000         175.000
 02  3 20 16 16  0.0000000  0  7G28G26G 4G 9G24G 7G 8
  22021074.409     4097209.62649   3198239.43547  22021075.427    22021087.382
       239.000         191.000
  23035729.541    -5766598.73049  -4474063.10346  23035729.656    23035743.285
       225.000         172.000
  21844327.881   -16470132.90449 -12815108.59347  21844328.136    21844341.321
       233.000         190.000
  23644354.887    -1535192.15849  -1174499.13245  23644355.443    23644370.525
       217.000         156.000
  24163606.454    -2040962.99649  -1557186.67745  24163606.024    24163627.277
       206.000         149.000
  20696422.767    -5561540.05449  -4312392.21648  20696422.575    20696433.767
       246.000         216.000
  22503449.699    10641306.41549   8298847.26146  22503450.036    22503464.584
       228.000         174.000
 02  3 20 16 16 30.0000000  0  7G28G26G 4G 9G24G 7G 8
  22027686.481     4131954.51349   3225313.23247  22027685.730    22027698.169
       233.000         191.000
  23044273.368    -5721700.88649  -4439077.88846  23044272.572    23044286.619
       224.000         171.000
  21828868.889   -16551370.25749 -12878410.36047  21828869.038    21828882.228
       234.000         190.000
  23626029.132    -1631495.88049  -1249540.97245  23626029.280    23626044.786
       220.000         160.000
  24143593.867    -2146128.13149  -1639133.43745  24143594.337    24143614.866
       206.000         150.000
  20703864.331    -5522434.62149  -4281920.52648  20703863.783    20703875.403
       245.000         216.000
  22521737.049    10737406.05649   8373729.82346  22521736.926    22521751.900
       228.000         173.000
 02  3 20 16 17  0.0000000  0  7G28G26G 4G 9G24G 7G 8
  22034322.964     4166830.41349   3252489.13547  22034323.106    22034335.525
       236.000         189.000
  23052888.749    -5676426.48849  -4403799.26646  23052889.357    23052901.329
       226.000         171.000
  21813474.630   -16632267.63749 -12941447.20447  21813473.856    21813487.838
       233.000         189.000
  23607736.311    -1727626.20649  -1324447.69146  23607736.664    23607751.852
       220.000         163.000
  24123579.279    -2251305.10949  -1721089.39045  24123579.413    24123600.598
       208.000         151.000
  20711357.004    -5483060.21149  -4251239.24448  20711356.376    20711368.073
       247.000         215.000
  22540078.731    10833790.69249   8448834.47146  22540078.828    22540094.222
       227.000         172.000
 02  3 20 16 17 30.0000000  0  7G28G26G 4G 9G24G 7G 8
  22040984.979     4201838.51749   3279768.05247  22040985.034    22040997.378
       236.000         191.000
  23061575.546    -5630777.80149  -4368229.00346  23061575.064    23061588.783
       226.000         171.000
  21798145.345   -16712821.95649 -13004216.73147  21798145.048    21798159.164
       233.000         189.000
  23589476.999    -1823580.35349  -1399217.12146  23589477.175    23589492.780
       221.000         165.000
  24103563.031    -2356491.29549  -1803052.49045  24103562.841    24103583.455
       207.000         151.000
  20718900.599    -5443418.51149  -4220349.68848  20718900.204    20718911.658
       245.000         215.000
  22558474.222    10930458.92249   8524160.08346  22558473.524    22558490.063
       224.000         170.000
 02  3 20 16 18  0.0000000  0  7G28G26G 4G 9G24G 7G 8
  22047672.245     4236979.20749   3307150.28247  22047672.354    22047685.109
       238.000         194.000
  23070333.011    -5584757.43049  -4332369.10046  23070333.291    23070346.972
       224.000         172.000
  21782882.276   -16793030.00249 -13066716.42047  21782882.464    21782895.619
       235.000         190.000
  23571251.486    -1919356.07749  -1473847.52546  23571251.262    23571266.860
       221.000         167.000
  24083545.542    -2461683.88449  -1885020.63245  24083546.028    24083565.972
       209.000         151.000
  20726494.668    -5403511.52549  -4189253.42548  20726494.486    20726506.042
       244.000         214.000
  22576923.140    11027408.25949   8599704.74546  22576923.171    22576938.767
       224.000         170.000
 02  3 20 16 18 30.0000000  0  7G28G26G 4G 9G24G 7G 8
  22054384.646     4272252.97649   3334636.18747  22054384.228    22054397.365
       237.000         194.000
  23079160.738    -5538367.93349  -4296221.56446  23079160.530    23079174.422
       225.000         172.000
  21767685.677   -16872888.62149 -13128943.84147  21767685.805    21767698.881
       234.000         191.000
  23553060.381    -2014951.11249  -1548337.12446  23553059.856    23553075.341
       222.000         168.000
  24063527.377    -2566880.31649  -1966991.74245  24063527.417    24063547.946
       212.000         151.000
  20734138.936    -5363341.21149  -4157951.95948  20734138.744    20734150.409
       245.000         214.000
  22595425.455    11124636.88649   8675467.01046  22595424.503    22595441.661
       222.000         171.000
 02  3 20 16 19  0.0000000  0  7G28G26G 4G 9G24G 7G 8
  22061122.591     4307659.89149   3362225.85247  22061123.682    22061134.188
       240.000         194.000
  23088058.006    -5491612.23249  -4259788.69246  23088059.149    23088072.211
       223.000         171.000
  21752556.002   -16952395.66049 -13190897.30447  21752555.699    21752569.208
       236.000         191.000
  23534903.945    -2110363.55049  -1622684.44346  23534903.615    23534919.418
       221.000         169.000
  24043508.955    -2672078.08149  -2048963.90745  24043508.775    24043529.827
       212.000         151.000
  20741832.897    -5322909.89249  -4126447.11148  20741832.858    20741844.109
       245.000         214.000
  22613980.049    11222142.37249   8751445.05146  22613979.378    22613997.449
       223.000         171.000
 02  3 20 16 19 30.0000000  0  7G28G26G 4G 9G24G 7G 8
  22067885.948     4343200.08149   3389919.42247  22067884.961    22067898.505
       235.000         193.000
  23097024.509    -5444493.24649  -4223072.74146  23097025.402    23097037.910
       226.000         172.000
  21737493.742   -17031548.12849 -13252574.48447  21737493.646    21737507.162
       236.000         191.000
  23516782.643    -2205591.23449  -1696887.79046  23516782.031    23516797.643
       221.000         170.000
  24023490.600    -2777274.79849  -2130935.24545  24023491.423    24023510.879
       215.000         151.000
  20749576.029    -5282219.85249  -4094740.66348  20749575.658    20749587.550
       243.000         213.000
  22632587.142    11319922.35449   8827636.93246  22632587.466    22632604.895
       224.000         171.000
 02  3 20 16 20  0.0000000  0  7G28G26G 4G 9G24G 7G 8
  22074674.317     4378874.32849   3417717.38747  22074673.551    22074687.483
       235.000         192.000
  23106059.849    -5397013.59249  -4186075.74046  23106060.187    23106073.527
       225.000         173.000
  21722499.610   -17110343.14149 -13313973.10947  21722499.467    21722512.648
       236.000         191.000
  23498696.973    -2300631.74749  -1770945.29146  23498696.541    23498711.932
       220.000         170.000
  24003473.105    -2882467.50549  -2212903.50045  24003473.021    24003492.949
       215.000         151.000
  20757367.954    -5241272.88549  -4062834.02447  20757367.384    20757379.419
       242.000         212.000
  22651246.222    11417974.93849   8904041.27746  22651246.548    22651261.645
       225.000         171.000
 02  3 20 16 20 30.0000000  0  7G28G26G 4G 9G24G 7G 8
  22081488.488     4414682.97949   3445620.09847  22081488.733    22081500.948
       237.000         192.000
  23115163.071    -5349175.71749  -4148799.59246  23115163.445    23115178.264
       226.000         174.000
  21707573.882   -17188777.70049 -13375090.87147  21707573.310    21707586.793
       234.000         191.000
  23480647.436    -2395482.54849  -1844854.96146  23480647.206    23480662.185
       219.000         168.000
  23983457.159    -2987653.68449  -2294866.63045  23983456.269    23983476.496
       215.000         151.000
  20765208.461    -5200070.91949  -4030728.67647  20765208.335    20765219.907
       243.000         210.000
  22669956.728    11516297.92149   8980656.32546  22669957.975    22669973.041
       228.000         172.000
 02  3 20 16 21  0.0000000  0  7G28G26G 4G 9G24G 7G 8
  22088328.467     4450626.00649   3473627.53247  22088328.289    22088340.969
       237.000         192.000
  23124334.029    -5300982.94749  -4111246.93446  23124334.247    23124348.118
       226.000         174.000
  21692717.164   -17266849.47249 -13435925.95447  21692717.364    21692730.338
       236.000         191.000
  23462634.403    -2490142.13849  -1918615.63346  23462633.787    23462649.640
       217.000         167.000
  23963442.502    -3092831.66149  -2376823.37845  23963441.764    23963462.226
       216.000         152.000
  20773097.108    -5158616.68549  -3998426.75547  20773097.074    20773108.767
       244.000         211.000
  22688718.341    11614888.47949   9057479.85646  22688719.556    22688734.473
       228.000         173.000
 02  3 20 16 21 30.0000000  0  7G28G26G 4G 9G24G 7G 8
  22095194.098     4486704.59349   3501740.61347  22095192.996    22095206.180
       234.000         190.000
  23133572.124    -5252437.38149  -4073419.35546  23133572.771    23133586.488
       226.000         175.000
  21677930.312   -17344554.76849 -13496475.46247  21677930.251    21677943.352
       236.000         191.000
  23444658.366    -2584607.20149  -1992224.72246  23444658.830    23444673.041
       215.000         164.000
  23943430.067    -3197997.86749  -2458770.96245  23943429.329    23943448.696
       213.000         152.000
  20781033.481    -5116911.38749  -3965929.20347  20781033.210    20781044.581
       242.000         210.000
  22707530.478    11713745.44349   9134510.97746  22707530.604    22707546.446
       228.000         173.000
 02  3 20 16 22  0.0000000  0  7G28G26G 4G 9G24G 7G 8
  22102085.398     4522919.66549   3529960.00147  22102085.495    22102098.844
       236.000         189.000
  23142876.836    -5203540.95549  -4035318.38046  23142877.130    23142891.120
       226.000         175.000
  21663213.723   -17421890.38349 -13556736.90547  21663213.559    21663227.285
       237.000         192.000
  23426719.816    -2678875.02749  -2065680.11645  23426720.269    23426735.149
       212.000         161.000
  23923420.570    -3303148.89149  -2540706.70145  23923420.101    23923439.352
       212.000         152.000
  20789017.232    -5074956.53849  -3933237.20147  20789016.893    20789028.341
       242.000         209.000
  22726393.047    11812867.23049   9211748.43546  22726393.305    22726409.671
       228.000         173.000
 02  3 20 16 22 30.0000000  0  7G28G26G 4G 9G24G 7G 8
  22109003.209     4559271.22849   3558285.74947  22109003.385    22109016.198
       238.000         193.000
  23152247.760    -5154297.11049  -3996946.70146  23152248.432    23152262.726
       227.000         176.000
  21648568.043   -17498853.80849 -13616708.34347  21648568.458    21648580.851
       236.000         194.000
  23408819.193    -2772943.77249  -2138980.36345  23408818.852    23408834.167
       209.000         156.000
  23903414.368    -3408282.52749  -2622628.89045  23903413.901    23903433.184
       214.000         151.000
  20797048.055    -5032754.72249  -3900352.74947  20797047.584    20797059.505
       243.000         209.000
  22745305.521    11912251.08449   9289190.11746  22745304.783    22745322.077
       226.000         172.000
 02  3 20 16 23  0.0000000  0  7G28G26G 4G 9G24G 7G 8
  22115947.074     4595760.17349   3586718.55347  22115946.998    22115959.432
       237.000         193.000
  23161684.311    -5104708.06549  -3958306.03346  23161684.160    23161698.019
       225.000         176.000
  21633993.782   -17575442.00149 -13676387.39747  21633994.197    21634007.042
       239.000         194.000
  23390956.932    -2866810.84049  -2212123.46145  23390956.498    23390971.765
       209.000         153.000
  23883411.874    -3513395.91449  -2704535.30445  23883411.868    23883431.137
       211.000         152.000
  20805125.488    -4990307.57449  -3867277.13547  20805125.311    20805136.684
       244.000         209.000
  22764267.225    12011895.10249   9366834.54546  22764266.656    22764284.122
       225.000         171.000
 02  3 20 16 23 30.0000000  0  7G28G26G 4G 9G24G 7G 8
  22122917.083     4632387.47849   3615259.17746  22122916.634    22122928.408
       234.000         187.000
  23171186.204    -5054776.01249  -3919398.09946  23171187.131    23171201.015
       227.000         176.000
  21619491.797   -17651651.09749 -13735771.04347  21619491.617    21619505.307
       238.000         195.000
  23373133.648    -2960472.94049  -2285106.83945  23373133.117    23373148.289
       213.000         151.000
  23863413.749    -3618485.99949  -2786423.53645  23863413.463    23863432.510
       212.000         152.000
  20813249.430    -4947616.49149  -3834011.44047  20813249.327    20813260.527
       245.000         209.000
  22783278.123    12111797.91049   9444680.60646  22783277.815    22783294.986
       223.000         171.000
 02  3 20 16 24  0.0000000  0  7G28G26G 4G 9G24G 7G 8
  22129913.611     4669154.13049   3643908.39846  22129913.400    22129924.366
       233.000         183.000
  23180753.061    -5004503.35249  -3880224.75846  23180753.688    23180766.135
       226.000         176.000
  21605062.288   -17727478.22349 -13794857.05747  21605062.606    21605075.632
       238.000         195.000
  23355349.826    -3053927.56449  -2357928.57245  23355349.758    23355365.064
       217.000         152.000
  23843420.620    -3723549.61049  -2868291.10845  23843420.244    23843439.617
       213.000         151.000
  20821419.512    -4904682.88349  -3800556.77147  20821419.451    20821430.433
       245.000         210.000
  22802337.962    12211957.48149   9522726.72646  22802337.450    22802356.300
       222.000         171.000
 02  3 20 16 24 30.0000000  0  7G28G26G 4G 9G24G 7G 8
  22136936.776     4706060.45749   3672666.43346  22136937.207    22136949.865
       234.000         186.000
  23190383.983    -4953892.93749  -3840788.21346  23190384.581    23190398.679
       226.000         175.000
  21590706.090   -17802920.63849 -13853643.29447  21590705.665    21590718.878
       237.000         195.000
  23337605.909    -3147172.52849  -2430586.95845  23337605.312    23337621.441
       220.000         153.000
  23823433.277    -3828583.97349  -2950135.88445  23823432.601    23823451.159
       213.000         150.000
  20829635.323    -4861509.14049  -3766914.98047  20829635.174    20829646.791
       245.000         211.000
  22821446.391    12312371.83849   9600971.38846  22821446.491    22821463.790
       222.000         170.000
 02  3 20 16 25  0.0000000  0  7G28G26G 4G 9G24G 7G 8
  22143986.550     4743106.60849   3701533.41047  22143986.197    22144000.047
       230.000         188.000
  23200078.646    -4902947.76249  -3801090.83246  23200079.269    23200093.545
       227.000         176.000
  21576423.439   -17877975.58449 -13912127.61947  21576423.223    21576436.507
       238.000         195.000
  23319902.300    -3240205.76049  -2503080.35845  23319901.068    23319916.274
       223.000         155.000
  23803451.752    -3933586.74049  -3031956.03145  23803450.534    23803470.507
       213.000         149.000
  20837896.331    -4818097.44349  -3733087.76747  20837895.925    20837908.099
       244.000         211.000
  22840602.813    12413038.27849   9679412.47446  22840601.521    22840619.622
       219.000         168.000
 02  3 20 16 25 30.0000000  0  7G28G26G 4G 9G24G 7G 8
  22151062.797     4780293.69049   3730510.18346  22151061.929    22151075.940
       229.000         185.000
  23209836.551    -4851670.08749  -3761134.34246  23209837.484    23209851.180
       225.000         176.000
  21562215.332   -17952639.96749 -13970307.61047  21562215.609    21562228.284
       239.000         196.000
  23302239.468    -3333024.40449  -2575406.53645  23302239.485    23302252.792
       224.000         158.000
  23783476.768    -4038554.75749  -3113749.08145  23783476.382    23783494.757
       216.000         149.000
  20846202.336    -4774449.28049  -3699076.30947  20846201.765    20846214.174
       244.000         211.000
  22859806.633    12513955.21349   9758048.76446  22859806.795    22859822.497
       219.000         164.000
 02  3 20 16 26  0.0000000  0  7G28G26G 4G 9G24G 7G 8
  22158166.131     4817621.90349   3759596.98346  22158165.721    22158179.075
       230.000         183.000
  23219657.336    -4800062.86249  -3720921.08046  23219657.576    23219671.792
       225.000         175.000
  21548082.001   -18026911.04349 -14028181.12247  21548081.683    21548094.844
       238.000         196.000
  23284617.922    -3425626.17749  -2647563.71345  23284617.055    23284631.511
       223.000         161.000
  23763508.982    -4143485.60649  -3195513.15445  23763508.465    23763526.107
       217.000         150.000
  20854552.918    -4730566.78649  -3664882.25547  20854552.754    20854564.759
       245.000         211.000
  22879057.982    12615120.34749   9836878.42145  22879058.477    22879075.125
       219.000         162.000
 02  3 20 16 26 30.0000000  0  7G28G26G 4G 9G24G 7G 8
  22165296.660     4855092.05649   3788794.39946  22165298.143    22165310.427
       236.000         186.000
  23229540.195    -4748128.50949  -3680452.90546  23229539.784    23229554.722
       223.000         174.000
  21534024.150   -18100785.73049 -14085745.75847  21534024.085    21534036.660
       238.000         195.000
  23267038.088    -3518008.25349  -2719549.69146  23267037.615    23267052.190
       222.000         163.000
  23743549.029    -4248376.34549  -3277245.94945  23743548.104    23743567.367
       218.000         151.000
  20862947.850    -4686451.65049  -3630506.91647  20862947.782    20862959.646
       246.000         212.000
  22898356.391    12716531.73449   9915899.97145  22898356.957    22898372.871
       219.000         162.000
 02  3 20 16 27  0.0000000  0  7G28G26G 4G 9G24G 7G 8
  22172454.574     4892704.73549   3818102.82347  22172454.669    22172467.642
       234.000         188.000
  23239484.681    -4695869.92149  -3639732.07846  23239484.620    23239499.758
       223.000         172.000
  21520042.212   -18174261.28349 -14142999.38147  21520042.035    21520055.016
       238.000         195.000
  23249500.479    -3610168.49949  -2791362.79746  23249500.086    23249514.460
       221.000         164.000
  23723597.028    -4353224.10649  -3358945.27645  23723596.226    23723615.390
       219.000         153.000
  20871386.720    -4642105.86849  -3595951.83747  20871386.430    20871397.911
       245.000         212.000
  22917701.039    12818187.13149   9995111.65645  22917701.216    22917718.510
       219.000         162.000
 02  3 20 16 27 30.0000000  0  7G28G26G 4G 9G24G 7G 8
  22179639.403     4930460.75849   3847522.96246  22179639.405    22179650.616
       232.000         184.000
  23249490.558    -4643289.46849  -3598760.44946  23249490.073    23249504.729
       223.000         171.000
  21506136.778   -18247334.40649 -14199939.43247  21506136.641    21506149.320
       237.000         195.000
  23232005.581    -3702104.14949  -2863000.88946  23232004.948    23232020.301
       219.000         165.000
  23703653.813    -4458025.39849  -3440608.37445  23703652.323    23703671.803
       218.000         154.000
  20879869.056    -4597530.91049  -3561218.18747  20879868.458    20879880.362
       244.000         211.000
  22937091.527    12920084.56149  10074511.92446  22937092.182    22937109.470
       219.000         163.000
 02  3 20 16 28  0.0000000  0  7G28G26G 4G 9G24G 7G 8
  22186851.773     4968361.46149   3877055.86246  22186852.232    22186864.265
       234.000         181.000
  23259557.292    -4590389.19649  -3557539.61646  23259558.423    23259572.071
       225.000         171.000
  21492308.482   -18320001.84449 -14256563.34347  21492308.025    21492321.151
       237.000         195.000
  23214554.045    -3793812.01249  -2934461.47946  23214553.669    23214569.087
       216.000         164.000
  23683719.943    -4562777.42449  -3522233.07145  23683719.272    23683738.977
       219.000         156.000
  20888394.743    -4552728.41449  -3526307.23347  20888394.405    20888406.241
       245.000         212.000
  22956527.881    13022222.84149  10154099.87246  22956528.596    22956545.638
       219.000         164.000
 02  3 20 16 28 30.0000000  0  7G28G26G 4G 9G24G 7G 8
  22194091.784     5006406.60549   3906701.29946  22194091.710    22194104.660
       233.000         184.000
  23269684.401    -4537172.40349  -3516072.12846  23269684.333    23269699.581
       221.000         171.000
  21478557.885   -18392261.00249 -14312869.12647  21478557.534    21478571.041
       237.000         195.000
  23197146.131    -3885290.03149  -3005742.95746  23197144.901    23197160.666
       215.000         163.000
  23663795.979    -4667477.39849  -3603817.23245  23663795.305    23663813.388
       222.000         156.000
  20896963.405    -4507700.44949  -3491220.58748  20896963.463    20896975.000
       247.000         213.000
  22976009.944    13124599.19249  10233873.31346  22976009.799    22976027.878
       220.000         165.000
 02  3 20 16 29  0.0000000  0  7G28G26G 4G 9G24G 7G 8
  22201359.173     5044596.88649   3936459.84246  22201358.439    22201372.303
       231.000         183.000
  23279870.943    -4483641.93549  -3474360.21946  23279872.510    23279885.275
       223.000         170.000
  21464885.471   -18464109.38749 -14368854.81947  21464886.009    21464898.471
       239.000         196.000
  23179782.427    -3976536.00749  -3076843.62746  23179782.091    23179797.136
       217.000         163.000
  23643882.596    -4772123.00449  -3685359.04445  23643880.572    23643901.425
       219.000         156.000
  20905574.551    -4462449.13249  -3455959.89748  20905574.102    20905586.275
       245.000         213.000
  22995536.555    13227211.34949  10313830.50746  22995536.931    22995555.409
       221.000         167.000
 02  3 20 16 29 30.0000000  0  7G28G26G 4G 9G24G 7G 8
  22208654.385     5082934.05649   3966332.81446  22208653.769    22208666.733
       231.000         180.000
  23290116.961    -4429799.51449  -3432405.25046  23290116.688    23290130.896
       221.000         168.000
  21451292.176   -18535543.03949 -14424517.35547  21451292.309    21451305.065
       239.000         196.000
  23162463.569    -4067546.27049  -3147760.63646  23162463.320    23162477.889
       219.000         165.000
  23623979.999    -4876710.31549  -3766855.41645  23623978.820    23623997.678
       213.000         154.000
  20914227.987    -4416975.30549  -3420525.82247  20914227.522    20914239.450
       244.000         212.000
  23015107.918    13330058.11149  10393970.49346  23015108.552    23015126.295
       221.000         168.000
 02  3 20 16 30  0.0000000  0  7G28G26G 4G 9G24G 7G 8
  22215977.770     5121417.90949   3996320.09246  22215978.688    22215991.482
       237.000         186.000
  23300421.722    -4375648.60649  -3390209.90246  23300423.013    23300436.179
       222.000         168.000
  21437778.258   -18606559.82749 -14479855.04447  21437778.085    21437791.241
       239.000         197.000
  23145190.120    -4158318.98049  -3218492.55746  23145190.928    23145204.887
       222.000         167.000
  23604088.810    -4981237.13849  -3848304.68645  23604087.620    23604108.378
       212.000         153.000
  20922923.355    -4371281.46849  -3384920.31048  20922922.972    20922934.955
       244.000         213.000
  23034723.566    13433136.90949  10474291.25846  23034723.912    23034741.997
       222.000         167.000
 02  3 20 16 30 30.0000000  0  7G28G26G 4G 9G24G 7G 8
  22223329.195     5160048.15749   4026421.41446  22223328.340    22223341.569
       233.000         186.000
  23310784.366    -4321192.65049  -3347776.84546  23310784.350    23310798.790
       222.000         167.000
  21424343.767   -18677157.79749 -14534866.39347  21424343.725    21424356.833
       238.000         197.000
  23127962.247    -4248852.64949  -3289038.21246  23127962.455    23127976.639
       224.000         169.000
  23584209.862    -5085701.61749  -3929705.38245  23584209.432    23584226.588
       215.000         153.000
  20931660.043    -4325370.35749  -3349145.49748  20931659.404    20931671.566
       244.000         213.000
  23054382.624    13536444.57849  10554790.40146  23054383.073    23054401.601
       223.000         166.000
 02  3 20 16 31  0.0000000  0  7G28G26G 4G 9G24G 7G 8
  22230708.200     5198825.84449   4056637.66846  22230708.631    22230721.211
       235.000         183.000
  23321204.815    -4266434.07949  -3305108.01546  23321205.525    23321219.077
       224.000         168.000
  21410989.682   -18747333.66549 -14589548.82047  21410989.740    21411002.737
       240.000         197.000
  23110780.410    -4339144.34149  -3359395.32146  23110780.540    23110795.292
       223.000         170.000
  23564343.472    -5190100.32349  -4011054.82845  23564342.305    23564361.350
       214.000         154.000
  20940437.713    -4279243.49349  -3313202.55947  20940437.357    20940449.074
       244.000         212.000
  23074084.954    13639979.39849  10635466.54246  23074085.223    23074103.188
       223.000         166.000
 02  3 20 16 31 30.0000000  0  7G28G26G 4G 9G24G 7G 8
  22238115.817     5237752.11949   4086969.69646  22238116.203    22238128.603
       237.000         185.000
  23331682.481    -4211375.17949  -3262205.13846  23331683.242    23331696.914
       224.000         170.000
  21397716.581   -18817084.31949 -14643899.92747  21397716.999    21397729.324
       240.000         197.000
  23093645.121    -4429191.01649  -3429561.50746  23093645.032    23093660.071
       222.000         170.000
  23544489.935    -5294429.66349  -4092350.24145  23544489.149    23544508.387
       214.000         155.000
  20949256.209    -4232902.14749  -3277092.48948  20949255.632    20949267.934
       243.000         213.000
  23093830.154    13743739.72649  10716318.42046  23093831.083    23093847.170
       223.000         164.000
 02  3 20 16 32  0.0000000  0  7G28G26G 4G 9G24G 7G 8
  22245551.908     5276827.83749   4117418.15146  22245551.685    22245565.092
       235.000         187.000
  23342216.688    -4156018.51149  -3219070.24446  23342217.259    23342230.940
       224.000         171.000
  21384524.955   -18886406.82549 -14697917.41347  21384525.141    21384537.529
       240.000         197.000
  23076556.861    -4518990.10249  -3499534.74946  23076557.282    23076571.202
       222.000         169.000
  23524650.327    -5398686.81049  -4173589.39345  23524649.124    23524668.005
       214.000         156.000
  20958115.170    -4186348.10849  -3240816.69947  20958114.679    20958126.796
       242.000         212.000
  23113617.776    13847723.61949  10797344.48646  23113617.536    23113637.235
       222.000         166.000
 02  3 20 16 32 30.0000000  0  7G28G26G 4G 9G24G 7G 8
  22253016.390     5316053.30249   4147983.29947  22253016.667    22253029.868
       236.000         188.000
  23352806.710    -4100367.37149  -3175705.87446  23352806.528    23352822.063
       222.000         171.000
  21371415.136   -18955298.59849 -14751599.27147  21371415.157    21371428.208
       240.000         198.000
  23059516.174    -4608539.38249  -3569313.34446  23059515.430    23059531.347
       223.000         169.000
  23504824.993    -5502869.27149  -4254770.35845  23504823.609    23504842.445
       214.000         156.000
  20967014.055    -4139583.65149  -3204376.92747  20967013.149    20967026.230
       240.000         210.000
  23133447.658    13951928.49849  10878542.72246  23133448.747    23133466.891
       224.000         167.000
 02  3 20 16 33  0.0000000  0  7G28G26G 4G 9G24G 7G 8
  22260509.394     5355428.68549   4178665.29447  22260509.140    22260523.675
       235.000         189.000
  23363452.467    -4044424.40949  -3132114.12346  23363452.788    23363467.194
       223.000         171.000
  21358387.896   -19023757.04449 -14804943.46047  21358387.556    21358400.654
       240.000         198.000
  23042523.471    -4697836.37649  -3638895.35246  23042523.163    23042538.055
       223.000         168.000
  23485014.486    -5606974.22849  -4335890.90745  23485013.144    23485032.148
       215.000         155.000
  20975952.695    -4092610.48949  -3167774.55147  20975952.150    20975965.024
       241.000         209.000
  23153319.316    14056352.04549  10959911.35246  23153318.781    23153337.478
       223.000         167.000
 02  3 20 16 33 30.0000000  0  7G28G26G 4G 9G24G 7G 8
  22268031.176     5394955.77449   4209465.48746  22268030.393    22268043.678
       230.000         185.000
  23374153.176    -3988191.71549  -3088296.61546  23374153.670    23374168.194
       223.000         171.000
  21345443.833   -19091778.66849 -14857947.28747  21345444.166    21345456.031
       241.000         198.000
  23025579.382    -4786877.80449  -3708278.23046  23025579.523    23025593.657
       221.000         167.000
  23465219.122    -5710998.31949  -4416948.44745  23465217.638    23465236.565
       213.000         155.000
  20984930.997    -4045429.85849  -3131010.50747  20984930.935    20984943.379
       242.000         209.000
  23173231.964    14160993.00649  11041449.37346  23173231.446    23173250.741
       221.000         167.000
 02  3 20 16 34  0.0000000  0  7G28G26G 4G 9G24G 7G 8
  22275581.927     5434636.34249   4240385.27146  22275581.326    22275595.149
       230.000         182.000
  23384908.888    -3931670.76349  -3044254.49446  23384909.864    23384924.656
       222.000         171.000
  21332583.641   -19159359.47249 -14910607.61847  21332583.460    21332596.265
       240.000         198.000
  23008684.507    -4875660.18949  -3777459.23946  23008683.190    23008699.380
       220.000         166.000
  23445439.888    -5814937.32749  -4497939.67845  23445439.520    23445456.941
       215.000         156.000
  20993948.766    -3998042.26249  -3094085.18347  20993948.272    20993960.887
       242.000         210.000
  23193186.023    14265850.40549  11123156.04046  23193186.441    23193206.085
       219.000         165.000
 02  3 20 16 34 30.0000000  0  7G28G26G 4G 9G24G 7G 8
  22283161.974     5474469.46649   4271423.93046  22283162.298    22283175.264
       232.000         184.000
  23395718.546    -3874865.75749  -2999991.03146  23395718.821    23395733.265
       222.000         169.000
  21319807.439   -19226498.08349 -14962923.37347  21319807.834    21319820.238
       240.000         199.000
  22991839.272    -4964181.98549  -3846437.18346  22991838.002    22991854.467
       221.000         167.000
  23425677.289    -5918789.42149  -4578863.17745  23425676.602    23425693.823
       217.000         157.000
  21003005.201    -3950450.85649  -3057001.05847  21003004.822    21003017.004
       243.000         209.000
  23213180.601    14370920.75149  11205028.66545  23213180.589    23213200.653
       218.000         162.000
 02  3 20 16 35  0.0000000  0  7G28G26G 4G 9G24G 7G 8
  22290771.352     5514455.88949   4302582.03846  22290771.810    22290784.880
       234.000         185.000
  23406581.803    -3817779.72049  -2955508.58646  23406583.120    23406597.254
       223.000         168.000
  21307115.939   -19293192.07049 -15014892.66547  21307115.581    21307128.665
       240.000         198.000
  22975044.144    -5052441.01249  -3915210.37546  22975043.298    22975059.148
       224.000         171.000
  23405931.766    -6022552.21749  -4659717.07245  23405931.251    23405949.106
       221.000         160.000
  21012099.979    -3902657.87749  -3019759.86047  21012099.506    21012112.068
       241.000         209.000
  23233214.978    14476201.53349  11287065.24445  23233215.510    23233232.743
       217.000         158.000
 02  3 20 16 35 30.0000000  0  7G28G26G 4G 9G24G 7G 8
  22298409.827     5554595.19049   4333859.28347  22298410.372    22298423.889
       234.000         188.000
  23417497.958    -3760416.35549  -2910810.01746  23417497.993    23417513.972
       220.000         168.000
  21294509.291   -19359439.55349 -15066514.04847  21294509.128    21294522.021
       240.000         198.000
  22958299.313    -5140435.45149  -3983777.39146  22958299.650    22958313.952
       225.000         173.000
  23386203.617    -6126223.82349  -4740499.92045  23386202.299    23386220.712
       221.000         161.000
  21021232.549    -3854665.73849  -2982363.48147  21021231.934    21021244.632
       241.000         207.000
  23253288.993    14581689.75449  11369263.47645  23253289.673    23253306.686
       217.000         156.000
 02  3 20 16 36  0.0000000  0  7G28G26G 4G 9G24G 7G 8
  22306077.581     5594888.45449   4365256.48847  22306077.414    22306092.009
       233.000         188.000
  23428466.276    -3702778.02549  -2865897.21946  23428467.429    23428482.017
       224.000         168.000
  21281988.362   -19425237.61749 -15117785.24247  21281988.416    21282001.404
       240.000         199.000
  22941605.246    -5228162.56649  -4052136.09846  22941605.077    22941619.827
       223.000         173.000
  23366493.443    -6229800.62349  -4821208.88445  23366492.534    23366511.013
       221.000         161.000
  21030402.737    -3806476.07349  -2944813.19447  21030402.495    21030414.810
       241.000         207.000
  23273402.421    14687383.66649  11451621.94845  23273402.269    23273421.421
       218.000         157.000
 02  3 20 16 36 30.0000000  0  7G28G26G 4G 9G24G 7G 8
  22313774.986     5635337.84049   4396775.34747  22313774.615    22313789.229
       233.000         188.000
  23439486.925    -3644865.84549  -2820771.02746  23439485.822    23439502.563
       221.000         167.000
  21269553.847   -19490581.52549 -15168702.54047  21269553.864    21269566.527
       240.000         200.000
  22924962.867    -5315618.07249  -4120283.15546  22924962.159    22924976.429
       222.000         171.000
  23346801.977    -6333278.24449  -4901840.55945  23346801.416    23346819.637
       222.000         161.000
  21039610.641    -3758088.94249  -2907109.03847  21039610.471    21039622.277
       242.000         207.000
  23293554.593    14793282.80149  11534140.35145  23293554.588    23293573.904
       216.000         159.000
 02  3 20 16 37  0.0000000  0  7G28G26G 4G 9G24G 7G 8
  22321502.180     5675943.58449   4428416.04347  22321502.006    22321516.395
       233.000         188.000
  23450558.673    -3586683.23049  -2775434.11246  23450559.466    23450573.948
       221.000         165.000
  21257206.032   -19555469.62949 -15219264.67247  21257206.072    21257218.744
       242.000         200.000
  22908372.660    -5402800.10149  -4188217.10846  22908372.094    22908386.699
       223.000         168.000
  23327130.037    -6436654.17749  -4982393.00545  23327129.125    23327147.059
       221.000         160.000
  21048855.639    -3709506.74749  -2869252.87847  21048855.321    21048867.360
       243.000         206.000
  23313745.006    14899384.35249  11616816.48345  23313744.890    23313764.051
       214.000         159.000
 02  3 20 16 37 30.0000000  0  7G28G26G 4G 9G24G 7G 8
  22329259.067     5716706.06749   4460178.84646  22329259.016    22329273.065
       230.000         186.000
  23461681.442    -3528233.19149  -2729888.79546  23461681.196    23461695.698
       218.000         164.000
  21244945.570   -19619899.25949 -15269469.55547  21244945.940    21244958.470
       241.000         201.000
  22891834.948    -5489706.24749  -4255936.10346  22891835.062    22891849.174
       225.000         168.000
  23307477.812    -6539926.00949  -5062864.30445  23307477.189    23307495.758
       221.000         161.000
  21058137.292    -3660731.59449  -2831246.36047  21058136.625    21058149.140
       243.000         206.000
  23333973.734    15005685.92949  11699648.45845  23333973.566    23333992.647
       212.000         156.000
 02  3 20 16 38  0.0000000  0  7G28G26G 4G 9G24G 7G 8
  22337045.783     5757625.93649   4492064.29046  22337045.525    22337058.630
       227.000         181.000
  23472854.201    -3469518.50949  -2684137.26245  23472853.981    23472868.901
       219.000         162.000
  21232772.773   -19683867.88049 -15319315.21547  21232772.657    21232785.578
       242.000         201.000
  22875350.276    -5576333.99449  -4323438.18146  22875349.865    22875364.616
       227.000         169.000
  23287846.046    -6643090.46049  -5143251.95545  23287845.160    23287864.414
       222.000         161.000
  21067455.508    -3611764.89849  -2793090.59247  21067455.434    21067467.729
       245.000         207.000
  23354240.146    15112185.42149  11782634.64745  23354239.297    23354259.676
       211.000         154.000
 02  3 20 16 38 30.0000000  0  7G28G26G 4G 9G24G 7G 8
  22344862.866     5798704.16549   4524073.17546  22344863.633    22344875.095
       230.000         178.000
  23484077.119    -3410541.68949  -2638181.49345  23484077.761    23484092.739
       219.000         162.000
  21220688.232   -19747372.29749 -15368799.15647  21220688.503    21220701.266
       241.000         202.000
  22858919.017    -5662680.53749  -4390721.15046  22858918.630    22858932.369
       226.000         170.000
  23268235.441    -6746144.38649  -5223553.46845  23268233.607    23268252.969
       218.000         161.000
  21076809.947    -3562608.27349  -2754786.83847  21076810.098    21076822.152
       245.000         208.000
  23374543.799    15218880.98549  11865773.59445  23374544.240    23374564.042
       211.000         153.000
 02  3 20 16 39  0.0000000  0  7G28G26G 4G 9G24G 7G 8
  22352710.160     5839940.70049   4556205.44046  22352710.041    22352723.002
       233.000         180.000
  23495349.301    -3351306.29849  -2592024.19845  23495349.898    23495364.636
       222.000         162.000
  21208692.413   -19810410.88349 -15417920.10747  21208692.488    21208705.329
       241.000         203.000
  22842541.756    -5748743.97549  -4457783.51646  22842541.388    22842555.235
       226.000         171.000
  23248645.896    -6849085.46349  -5303767.06645  23248644.568    23248662.521
       217.000         160.000
  21086199.873    -3513264.36849  -2716337.14647  21086199.328    21086211.792
       244.000         208.000
  23394884.187    15325769.49749  11949062.90145  23394885.098    23394904.589
       215.000         155.000
 02  3 20 16 39 30.0000000  0  7G28G26G 4G 9G24G 7G 8
  22360587.661     5881335.84749   4588461.27946  22360587.447    22360601.651
       233.000         183.000
  23506670.283    -3291815.48649  -2545667.89246  23506671.350    23506686.273
       223.000         163.000
  21196785.687   -19872981.32649 -15466676.27547  21196785.751    21196798.100
       241.000         202.000
  22826218.728    -5834521.88349  -4524623.36946  22826218.468    22826232.272
       224.000         170.000
  23229078.512    -6951911.12549  -5383890.74645  23229077.264    23229095.499
       217.000         158.000
  21095625.022    -3463735.18749  -2677743.08647  21095624.173    21095636.788
       243.000         208.000
  23415261.209    15432848.58649  12032500.70245  23415262.261    23415283.044
       216.000         159.000
 02  3 20 16 40  0.0000000  0  7G28G26G 4G 9G24G 7G 8
  22368495.318     5922890.34549   4620841.24546  22368495.103    22368509.863
       231.000         185.000
  23518039.345    -3232072.09749  -2499114.78446  23518040.619    23518055.338
       222.000         164.000
  21184968.412   -19935081.15749 -15515065.73147  21184968.621    21184981.310
       241.000         203.000
  22809950.444    -5920011.92849  -4591238.91146  22809949.211    22809964.193
       222.000         169.000
  23209533.967    -7054618.58549  -5463922.33045  23209533.254    23209551.896
       219.000         157.000
  21105085.139    -3414022.44449  -2639005.99647  21105084.904    21105096.923
       244.000         208.000
  23435673.965    15540115.98249  12116085.23945  23435674.560    23435695.030
       215.000         160.000
 02  3 20 16 40 30.0000000  0  7G28G26G 4G 9G24G 7G 8
  22376433.481     5964605.84149   4653346.65746  22376432.498    22376447.475
       227.000         183.000
  23529456.121    -3172078.01649  -2452366.34146  23529456.027    23529471.387
       224.000         163.000
  21173241.466   -19996706.63349 -15563085.55347  21173241.460    21173254.245
       241.000         203.000
  22793737.358    -6005210.57149  -4657627.38246  22793737.034    22793751.274
       222.000         168.000
  23190012.332    -7157203.67849  -5543858.58045  23190011.729    23190029.373
       216.000         157.000
  21114580.040    -3364127.05349  -2600126.58047  21114579.841    21114592.395
       244.000         208.000
  23456121.924    15647570.38549  12199815.51345  23456122.864    23456142.188
       218.000         159.000
 02  3 20 16 41  0.0000000  0  7G28G26G 4G 9G24G 7G 8
  22384402.517     6006483.66549   4685978.56546  22384402.660    22384416.943
       231.000         182.000
  23540920.194    -3111835.33749  -2405424.16945  23540920.690    23540936.790
       221.000         162.000
  21161605.355   -20057854.63949 -15610733.31347  21161604.776    21161617.911
       239.000         202.000
  22777580.556    -6090114.72949  -4723786.39546  22777580.319    22777594.714
       225.000         170.000
  23170514.615    -7259663.12149  -5623696.92645  23170514.157    23170531.759
       219.000         159.000
  21124109.515    -3314049.97149  -2561105.57947  21124108.894    21124121.574
       244.000         208.000
  23476605.728    15755210.49249  12283690.47445  23476606.543    23476626.465
       218.000         158.000
 02  3 20 16 41 30.0000000  0  7G28G26G 4G 9G24G 7G 8
  22392402.415     6048521.94849   4718735.53446  22392402.892    22392416.322
       233.000         184.000
  23552430.184    -3051349.39249  -2358292.40545  23552430.262    23552446.764
       220.000         162.000
  21150060.002   -20118525.12049 -15658008.97847  21150059.918    21150073.245
       240.000         202.000
  22761479.911    -6174724.29749  -4789715.86946  22761479.725    22761493.936
       225.000         174.000
  23151041.184    -7361996.42849  -5703436.96745  23151041.288    23151057.761
       221.000         162.000
  21133672.682    -3263795.32949  -2521946.22547  21133672.363    21133684.645
       244.000         207.000
  23497124.040    15863031.67249  12367706.52045  23497124.969    23497144.676
       218.000         157.000
 02  3 20 16 42  0.0000000  0  7G28G26G 4G 9G24G 7G 8
  22400433.106     6090722.02649   4751618.57546  22400433.403    22400446.849
       235.000         186.000
  23563986.440    -2990622.26949  -2310972.74245  23563988.730    23564002.262
       222.000         162.000
  21138606.238   -20178714.73049 -15704909.94047  21138606.227    21138619.244
       241.000         203.000
  22745436.074    -6259035.73549  -4855413.02246  22745435.762    22745450.112
       226.000         176.000
  23131592.555    -7464199.97049  -5783075.90546  23131592.102    23131609.482
       221.000         164.000
  21143269.356    -3213364.33049  -2482649.43047  21143268.780    21143280.810
       242.000         205.000
  23517676.135    15971032.22549  12451862.36445  23517676.042    23517696.057
       215.000         155.000
 02  3 20 16 42 30.0000000  0  7G28G26G 4G 9G24G 7G 8
  22408494.631     6133084.42349   4784628.10546  22408493.922    22408508.014
       230.000         184.000
  23575588.066    -2929656.97149  -2263467.49245  23575589.649    23575604.010
       225.000         162.000
  21127244.382   -20238421.33249 -15751434.53247  21127244.483    21127257.046
       241.000         204.000
  22729449.327    -6343046.81349  -4920876.13846  22729449.300    22729463.559
       226.000         178.000
  23112169.206    -7566270.83249  -5862611.42846  23112168.549    23112185.291
       221.000         166.000
  21152899.379    -3162758.60949  -2443216.50347  21152899.492    21152911.181
       244.000         206.000
  23538261.821    16079209.75749  12536156.11445  23538262.880    23538282.599
       217.000         154.000
 02  3 20 16 43  0.0000000  0  7G28G26G 4G 9G24G 7G 8
  22416587.101     6175611.50149   4817765.97646  22416586.010    22416599.929
       227.000         179.000
  23587234.921    -2868454.70849  -2215777.58446  23587234.248    23587250.266
       223.000         163.000
  21115975.393   -20297640.52849 -15797579.31647  21115975.794    21115988.164
       243.000         205.000
  22713520.628    -6426753.05849  -4986101.71846  22713520.367    22713533.911
       228.000         178.000
  23092771.769    -7668204.17649  -5942039.81146  23092771.197    23092788.062
       222.000         167.000
  21162562.708    -3111978.37449  -2403647.58647  21162562.493    21162574.598
       243.000         207.000
  23558881.423    16187564.00049  12620587.55845  23558881.286    23558902.196
       217.000         153.000
 02  3 20 16 43 30.0000000  0  7G28G26G 4G 9G24G 7G 8
  22424711.184     6218304.58849   4851033.18846  22424710.806    22424725.166
       229.000         177.000
  23598925.861    -2807017.83249  -2167904.85645  23598926.933    23598942.140
       224.000         162.000
  21104799.767   -20356369.45049 -15843342.06447  21104799.651    21104812.436
       243.000         206.000
  22697650.399    -6510151.82549  -5051087.71746  22697650.074    22697664.989
       227.000         177.000
  23073401.067    -7769997.04049  -6021358.73246  23073400.707    23073418.446
       224.000         169.000
  21172258.850    -3061024.94549  -2363943.71047  21172258.171    21172270.655
       242.000         206.000
  23579534.186    16296092.86649  12705155.04545  23579535.008    23579554.997
       213.000         153.000
 02  3 20 16 44  0.0000000  0  7G28G26G 4G 9G24G 7G 8
  22432866.916     6261162.87249   4884429.12046  22432865.910    22432880.672
       229.000         176.000
  23610660.940    -2745350.38249  -2119852.46945  23610661.739    23610676.717
       222.000         162.000
  21093717.508   -20414606.90649 -15888721.85147  21093717.673    21093729.784
       243.000         206.000
  22681838.921    -6593241.59849  -5115832.93446  22681838.270    22681853.232
       224.000         175.000
  23054057.796    -7871647.14949  -6100566.42846  23054057.078    23054074.560
       224.000         170.000
  21181987.413    -3009901.15249  -2324107.09447  21181987.036    21181999.370
       242.000         206.000
  23600219.374    16404793.28049  12789856.21345  23600219.668    23600241.276
       215.000         153.000
 02  3 20 16 44 30.0000000  0  7G28G26G 4G 9G24G 7G 8
  22441054.115     6304187.13649   4917954.38246  22441054.561    22441068.300
       230.000         179.000
  23622439.202    -2683455.23349  -2071622.67045  23622438.876    23622455.726
       221.000         162.000
  21082729.276   -20472350.36449 -15933716.71347  21082729.350    21082742.036
       243.000         206.000
  22666086.602    -6676019.88249  -5180335.42446  22666085.855    22666100.694
       224.000         172.000
  23034742.023    -7973151.60649  -6179660.63246  23034741.630    23034758.641
       224.000         171.000
  21191748.108    -2958608.59549  -2284138.96147  21191747.498    21191760.016
       241.000         206.000
  23620937.105    16513662.94249  12874689.25245  23620937.066    23620959.079
       213.000         154.000
 02  3 20 16 45  0.0000000  0  7G28G26G 4G 9G24G 7G 8
  22449273.193     6347378.03049   4951609.47146  22449273.252    22449288.592
       230.000         181.000
  23634260.369    -2621335.18449  -2023217.63245  23634260.382    23634276.629
       220.000         162.000
  21071835.525   -20529597.23449 -15978324.61347  21071835.492    21071848.440
       243.000         207.000
  22650394.011    -6758483.93749  -5244593.07446  22650393.309    22650407.604
       225.000         172.000
  23015454.448    -8074507.76449  -6258639.28546  23015452.684    23015471.229
       224.000         170.000
  21201540.651    -2907148.93449  -2244040.63247  21201540.279    21201552.882
       241.000         205.000
  23641686.438    16622699.51849  12959652.32945  23641687.171    23641708.602
       209.000         153.000
 02  3 20 16 45 30.0000000  0  7G28G26G 4G 9G24G 7G 8
  22457524.063     6390736.21049   4985394.92646  22457523.900    22457538.590
       230.000         181.000
  23646123.613    -2558993.10549  -1974639.53445  23646124.459    23646140.073
       220.000         161.000
  21061036.637   -20586345.51149 -16022543.99747  21061036.578    21061049.091
       243.000         207.000
  22634761.782    -6840631.45249  -5308604.07646  22634761.890    22634776.040
       228.000         175.000
  22996195.816    -8175712.28649  -6337499.76346  22996195.035    22996212.640
       222.000         169.000
  21211364.609    -2855524.13949  -2203813.61447  21211364.208    21211377.171
       242.000         206.000
  23662466.805    16731900.93049  13044743.84945  23662467.045    23662489.650
       208.000         150.000
 02  3 20 16 46  0.0000000  0  7G28G26G 4G 9G24G 7G 8
  22465807.030     6434262.57349   5019311.41146  22465807.915    22465822.098
       233.000         181.000
  23658028.772    -2496431.74649  -1925890.61745  23658028.887    23658045.085
       220.000         162.000
  21050333.176   -20642592.47149 -16066372.74647  21050333.118    21050345.489
       243.000         206.000
  22619190.344    -6922459.64449  -5372366.25246  22619190.250    22619204.876
       227.000         177.000
  22976966.267    -8276762.34949  -6416239.89246  22976964.309    22976983.113
       221.000         168.000
  21221219.808    -2803735.62649  -2163459.02947  21221219.346    21221232.272
       241.000         207.000
  23683278.366    16841265.06249  13129962.13945  23683279.837    23683300.088
       210.000         150.000
 02  3 20 16 46 30.0000000  0  7G28G26G 4G 9G24G 7G 8
  22474122.100     6477957.07449   5053358.92846  22474122.569    22474137.212
       232.000         182.000
  23669975.044    -2433654.56949  -1876973.52946  23669976.276    23669992.129
       220.000         163.000
  21039725.351   -20698336.38849 -16109809.51847  21039725.141    21039738.365
       242.000         207.000
  22603679.977    -7003966.64549  -5435878.15046  22603679.169    22603693.291
       225.000         174.000
  22957766.658    -8377655.80749  -6494857.98346  22957766.289    22957783.356
       222.000         167.000
  21231105.654    -2751785.46849  -2122978.48947  21231105.392    21231118.012
       241.000         207.000
  23704120.643    16950789.05849  13215304.98945  23704120.839    23704142.953
       209.000         150.000
 02  3 20 16 47  0.0000000  0  7G28G26G 4G 9G24G 7G 8
  22482468.925     6521819.68549   5087537.44046  22482469.091    22482483.541
       231.000         180.000
  23681961.811    -2370665.21649  -1827891.09145  23681961.469    23681978.392
       218.000         162.000
  21029213.555   -20753575.51949 -16152852.94547  21029213.488    21029226.314
       242.000         206.000
  22588231.212    -7085150.56749  -5499138.30746  22588230.593    22588244.839
       226.000         173.000
  22938597.369    -8478389.96549  -6573351.95446  22938596.300    22938613.749
       223.000         166.000
  21241021.787    -2699676.39249  -2082374.11147  21241021.237    21241033.842
       241.000         206.000
  23724992.674    17060469.83249  13300770.01745  23724993.259    23725015.001
       214.000         152.000
 02  3 20 16 47 30.0000000  0  7G28G26G 4G 9G24G 7G 8
  22490848.190     6565852.25949   5121848.40246  22490848.769    22490863.207
       233.000         181.000
  23693988.337    -2307465.34349  -1778644.62845  23693989.952    23694005.290
       219.000         162.000
  21018798.534   -20808306.54249 -16195500.45447  21018798.848    21018811.241
       243.000         206.000
  22572844.658    -7166007.69749  -5562143.81546  22572844.105    22572859.451
       226.000         174.000
  22919459.114    -8578960.93549  -6651718.78446  22919458.509    22919475.292
       223.000         164.000
  21250968.097    -2647408.73449  -2041646.16647  21250967.481    21250979.941
       240.000         205.000
  23745894.402    17170306.50849  13386356.53245  23745893.860    23745915.506
       212.000         151.000
 02  3 20 16 48  0.0000000  0  7G28G26G 4G 9G24G 7G 8
  22499259.906     6610055.18349   5156292.10446  22499259.657    22499274.632
       230.000         182.000
  23706054.697    -2244057.87249  -1729236.40745  23706055.249    23706071.429
       217.000         162.000
  21008480.764   -20862527.16249 -16237750.24247  21008480.861    21008493.536
       243.000         207.000
  22557520.597    -7246535.70749  -5624892.84646  22557520.034    22557534.409
       225.000         176.000
  22900352.672    -8679365.46349  -6729955.91746  22900351.806    22900369.616
       223.000         163.000
  21260944.176    -2594984.20049  -2000795.97747  21260943.645    21260956.180
       239.000         204.000
  23766825.074    17280296.78849  13472062.73145  23766824.890    23766847.715
       212.000         150.000
 02  3 20 16 48 30.0000000  0  7G28G26G 4G 9G24G 7G 8
  22507704.078     6654430.09349   5190869.81046  22507703.731    22507718.176
       228.000         179.000
  23718159.745    -2180445.00849  -1679668.13345  23718160.539    23718175.796
       215.000         160.000
  20998260.596   -20916234.44649 -16279600.03647  20998261.026    20998273.317
       244.000         207.000
  22542259.758    -7326730.99249  -5687382.59446  22542259.728    22542274.038
       224.000         176.000
  22881278.650    -8779599.98849  -6808060.56246  22881277.931    22881295.216
       222.000         164.000
  21270949.876    -2542403.80749  -1959824.35347  21270949.518    21270962.564
       239.000         203.000
  23787784.522    17390439.05249  13557887.35245  23787785.569    23787807.672
       211.000         149.000
 02  3 20 16 49  0.0000000  0  7G28G26G 4G 9G24G 7G 8
  22516181.178     6698977.59349   5225582.01846  22516181.742    22516196.105
       231.000         178.000
  23730303.359    -2116629.61049  -1629942.02945  23730304.022    23730320.127
       213.000         158.000
  20988138.641   -20969426.01549 -16321047.97247  20988138.954    20988151.283
       244.000         207.000
  22527062.822    -7406590.99249  -5749611.11246  22527062.649    22527077.200
       227.000         176.000
  22862237.263    -8879661.68749  -6886030.54446  22862236.223    22862253.957
       221.000         165.000
  21280984.979    -2489669.17549  -1918732.51947  21280984.861    21280997.260
       240.000         204.000
  23808772.870    17500731.12549  13643828.70445  23808774.518    23808796.389
       215.000         149.000
 02  3 20 16 49 30.0000000  0  7G28G26G 4G 9G24G 7G 8
  22524691.194     6743696.59749   5260427.84446  22524691.141    22524705.637
       230.000         178.000
  23742484.811    -2052616.49849  -1580061.88745  23742485.819    23742502.417
       215.000         158.000
  20978114.818   -21022101.49349 -16362093.76447  20978114.883    20978127.245
       244.000         207.000
  22511929.903    -7486115.50549  -5811578.23146  22511929.935    22511944.766
       230.000         178.000
  22843229.039    -8979549.30049  -6963864.88846  22843228.542    22843245.418
       223.000         166.000
  21291048.802    -2436783.73749  -1877523.18647  21291048.294    21291061.381
       240.000         205.000
  23829789.039    17611168.72349  13729883.45545  23829789.010    23829812.329
       211.000         150.000
 02  3 20 16 50  0.0000000  0  7G28G26G 4G 9G24G 7G 8
  22533233.916     6788588.10449   5295408.08146  22533233.937    22533248.656
       228.000         178.000
  23754703.606    -1988407.86949  -1530029.37245  23754704.340    23754720.876
       214.000         159.000
  20968189.780   -21074258.22849 -16402735.34847  20968190.164    20968202.117
       245.000         207.000
  22496861.479    -7565301.13849  -5873281.29546  22496861.557    22496876.165
       231.000         181.000
  22824254.798    -9079259.34049  -7041560.86046  22824254.617    22824271.347
       224.000         168.000
  21301141.146    -2383748.67149  -1836197.27647  21301140.567    21301153.490
       239.000         205.000
  23850832.006    17721750.45449  13816050.50645  23850831.563    23850855.284
       210.000         148.000
 02  3 20 16 50 30.0000000  0  7G28G26G 4G 9G24G 7G 8
  22541809.620     6833653.68449   5330523.95946  22541808.361    22541824.715
       227.000         178.000
  23766959.176    -1924005.88049  -1479846.19945  23766959.346    23766974.908
       214.000         158.000
  20958364.088   -21125893.02449 -16442970.22147  20958364.106    20958376.387
       244.000         208.000
  22481858.137    -7644144.47749  -5934717.60946  22481857.484    22481872.379
       226.000         180.000
  22805315.158    -9178788.08249  -7119115.57846  22805314.809    22805331.502
       225.000         170.000
  21311261.707    -2330564.63049  -1794755.27447  21311261.411    21311274.227
       240.000         205.000
  23871902.615    17832474.84349  13902328.74345  23871904.874    23871925.740
       217.000         150.000
 02  3 20 16 51  0.0000000  0  7G28G26G 4G 9G24G 7G 8
  22550418.451     6878893.14449   5365775.34446  22550418.730    22550433.442
       229.000         179.000
  23779250.694    -1859414.16049  -1429515.19045  23779251.916    23779267.278
       215.000         160.000
  20948637.799   -21177004.46949 -16482797.29747  20948637.730    20948649.714
       243.000         207.000
  22466919.935    -7722643.98349  -5995885.98546  22466918.166    22466934.036
       224.000         178.000
  22786410.454    -9278133.38049  -7196527.32946  22786409.477    22786427.432
       225.000         172.000
  21321410.338    -2277234.22749  -1753199.23147  21321410.225    21321423.113
       241.000         205.000
  23893000.070    17943338.71349  13988715.65845  23893000.640    23893023.306
       215.000         151.000
 02  3 20 16 51 30.0000000  0  7G28G26G 4G 9G24G 7G 8
  22559060.825     6924307.65849   5401163.11946  22559060.427    22559075.082
       230.000         179.000
  23791577.910    -1794635.22049  -1379038.29445  23791579.322    23791594.427
       218.000         160.000
  20939011.622   -21227590.12049 -16522214.66447  20939011.604    20939024.139
       244.000         207.000
  22452047.684    -7800796.92549  -6056784.30946  22452047.501    22452061.410
       225.000         177.000
  22767540.932    -9377292.27349  -7273793.85146  22767540.690    22767558.146
       225.000         175.000
  21331586.487    -2223758.64149  -1711530.06147  21331585.720    21331599.593
       239.000         205.000
  23914123.073    18054340.20549  14075209.79045  23914123.477    23914146.842
       210.000         149.000
 02  3 20 16 52  0.0000000  0  7G28G26G 4G 9G24G 7G 8
  22567736.452     6969897.42249   5436687.43646  22567736.301    22567750.501
       230.000         180.000
  23803940.519    -1729672.07749  -1328417.87845  23803939.376    23803957.289
       215.000         160.000
  20929485.909   -21277648.05449 -16561220.82347  20929485.489    20929498.237
       243.000         206.000
  22437242.079    -7878600.67449  -6117410.58246  22437241.321    22437254.584
       228.000         177.000
  22748707.575    -9476261.34949  -7350912.45846  22748706.528    22748724.928
       227.000         176.000
  21341789.901    -2170139.71149  -1669749.19247  21341789.966    21341803.337
       242.000         205.000
  23935272.100    18165476.86049  14161809.24645  23935274.314    23935295.221
       217.000         150.000
 02  3 20 16 52 30.0000000  0  7G28G26G 4G 9G24G 7G 8
  22576445.532     7015662.88949   5472348.66646  22576446.261    22576459.570
       230.000         179.000
  23816336.916    -1664528.00249  -1277656.45245  23816337.892    23816353.925
       217.000         160.000
  20920060.837   -21327176.49749 -16599814.39547  20920060.913    20920073.416
       244.000         206.000
  22422503.254    -7956053.19449  -6177763.16446  22422503.044    22422517.426
       229.000         179.000
  22729910.828    -9575038.41049  -7427881.44246  22729910.201    22729927.043
       226.000         176.000
  21352020.304    -2116379.29049  -1627858.06047  21352019.964    21352033.571
       241.000         205.000
  23956446.909    18276746.16949  14248512.07345  23956448.806    23956470.184
       216.000         150.000
 02  3 20 16 53  0.0000000  0  7G28G26G 4G 9G24G 7G 8
  22585188.235     7061604.83049   5508147.41046  22585188.449    22585203.094
       227.000         178.000
  23828767.725    -1599205.80149  -1226756.23845  23828767.947    23828784.039
       215.000         160.000
  20910737.089   -21376173.07249 -16637993.52347  20910736.588    20910749.648
       242.000         206.000
  22407831.873    -8033151.96449  -6237840.07946  22407832.221    22407846.246
       231.000         183.000
  22711150.986    -9673620.26149  -7504698.33446  22711150.807    22711167.882
       224.000         176.000
  21362277.294    -2062478.91549  -1585857.88547  21362276.913    21362290.438
       241.000         205.000
  23977646.070    18388146.02449  14335316.64045  23977645.901    23977669.545
       207.000         148.000
 02  3 20 16 53 30.0000000  0  7G28G26G 4G 9G24G 7G 8
  22593964.503     7107724.39549   5544084.58446  22593964.544    22593979.025
       227.000         177.000
  23841231.390    -1533707.75349  -1175718.99845  23841231.039    23841248.911
       213.000         159.000
  20901514.853   -21424635.17449 -16675756.18547  20901515.422    20901527.503
       243.000         206.000
  22393228.558    -8109893.60149  -6297638.72446  22393228.491    22393242.903
       231.000         185.000
  22692429.280    -9772003.29549  -7581360.30046  22692428.918    22692446.594
       227.000         176.000
  21372560.765    -2008439.51849  -1543749.37347  21372561.084    21372573.681
       244.000         205.000
  23998869.264    18499674.67249  14422221.52345  23998870.248    23998893.515
       214.000         146.000
 02  3 20 16 54  0.0000000  0  7G28G26G 4G 9G24G 7G 8
  22602774.801     7154022.34549   5580160.74146  22602774.245    22602789.518
       226.000         177.000
  23853728.269    -1468036.68749  -1124546.94845  23853729.237    23853745.048
       213.000         159.000
  20892395.018   -21472560.68049 -16713100.71847  20892394.836    20892407.440
       243.000         206.000
  22378693.498    -8186275.84049  -6357157.29846  22378692.484    22378707.874
       227.000         183.000
  22673746.096    -9870184.34349  -7657864.86646  22673746.092    22673762.695
       225.000         177.000
  21382870.392    -1954262.75749  -1501533.82147  21382869.657    21382882.841
       242.000         204.000
  24020117.369    18611329.96549  14509225.09645  24020118.818    24020141.123
       211.000         147.000
 02  3 20 16 54 30.0000000  0  7G28G26G 4G 9G24G 7G 8
  22611619.079     7200498.89549   5616376.06746  22611620.011    22611633.706
       230.000         178.000
  23866257.624    -1402196.04349  -1073242.75945  23866257.324    23866275.000
       214.000         157.000
  20883377.469   -21519948.12349 -16750025.97947  20883377.439    20883390.020
       242.000         205.000
  22364227.107    -8262296.62849  -6416394.21946  22364226.388    22364240.979
       228.000         182.000
  22655101.592    -9968160.93149  -7734210.13246  22655101.100    22655117.785
       227.000         177.000
  21393205.764    -1899950.53049  -1459212.72347  21393205.212    21393218.435
       242.000         204.000
  24041389.057    18723109.09049  14596325.18045  24041390.921    24041411.405
       213.000         147.000
 02  3 20 16 55  0.0000000  0  7G28G26G 4G 9G24G 7G 8
  22620497.671     7247154.62049   5652731.00546  22620497.136    22620513.029
       228.000         179.000
  23878818.484    -1336188.73949  -1021808.70445  23878820.097    23878835.624
       216.000         156.000
  20874462.755   -21566795.34649 -16786530.29047  20874463.080    20874475.514
       244.000         206.000
  22349830.134    -8337953.41749  -6475347.52846  22349830.115    22349843.927
       230.000         183.000
  22636496.736   -10065930.10749  -7810393.77546  22636495.290    22636513.431
       226.000         176.000
  21403566.591    -1845504.60249  -1416787.44547  21403566.609    21403579.409
       243.000         204.000
  24062683.226    18835009.92049  14683520.09045  24062684.070    24062705.954
       210.000         144.000
 02  3 20 16 55 30.0000000  0  7G28G26G 4G 9G24G 7G 8
  22629410.500     7293991.33049   5689226.98046  22629409.306    22629424.922
       228.000         177.000
  23891410.929    -1270016.25249   -970245.93945  23891411.470    23891427.967
       216.000         156.000
  20865651.547   -21613099.20449 -16822611.20347  20865651.790    20865663.645
       243.000         206.000
  22335503.096    -8413242.53649  -6534014.34146  22335503.003    22335517.227
       230.000         184.000
  22617931.899   -10163487.97649  -7886412.73546  22617931.422    22617948.384
       225.000         176.000
  21413952.884    -1790925.14149  -1374258.11047  21413952.769    21413965.848
       244.000         203.000
  24084000.352    18947031.28449  14770808.91045  24083999.944    24084024.840
       210.000         143.000
 02  3 20 16 56  0.0000000  0  7G28G26G 4G 9G24G 7G 8
  22638357.726     7341008.30449   5725863.40746  22638357.991    22638372.307
       229.000         177.000
  23904033.790    -1203683.04449   -918557.95045  23904035.041    23904050.532
       216.000         157.000
  20856943.626   -21658859.12749 -16858268.27947  20856943.838    20856955.888
       243.000         205.000
  22321246.211    -8488163.00549  -6592393.87446  22321246.013    22321260.107
       230.000         185.000
  22599407.526   -10260832.96149  -7962265.84346  22599407.156    22599424.214
       225.000         176.000
  21424363.919    -1736215.30149  -1331627.17847  21424363.392    21424376.909
       241.000         203.000
  24105340.081    19059169.63549  14858188.90145  24105341.030    24105364.672
       212.000         146.000
 02  3 20 16 56 30.0000000  0  7G28G26G 4G 9G24G 7G 8
  22647339.359     7388205.76649   5762640.47446  22647339.323    22647353.582
       229.000         177.000
  23916686.796    -1137192.23349   -866747.16345  23916687.242    23916704.264
       217.000         158.000
  20848339.616   -21704073.49849 -16893500.23247  20848339.735    20848352.112
       243.000         205.000
  22307059.945    -8562712.45949  -6650484.31846  22307059.894    22307073.862
       231.000         185.000
  22580924.318   -10357962.41249  -8037950.99546  22580923.812    22580940.271
       227.000         177.000
  21434799.403    -1681376.76549  -1288895.97747  21434799.077    21434812.070
       240.000         201.000
  24126701.446    19171422.28849  14945657.96045  24126702.112    24126724.979
       213.000         145.000
 02  3 20 16 57  0.0000000  0  7G28G26G 4G 9G24G 7G 8
  22656355.399     7435585.04549   5799559.23846  22656355.342    22656370.574
       230.000         179.000
  23929369.188    -1070546.37449   -814815.53645  23929369.272    23929387.249
       216.000         160.000
  20839839.901   -21748739.62849 -16928304.99847  20839839.689    20839852.580
       241.000         205.000
  22292944.905    -8636888.00849  -6708283.40346  22292944.556    22292958.618
       231.000         185.000
  22562483.066   -10454872.57649  -8113465.28846  22562482.259    22562498.972
       228.000         176.000
  21445259.109    -1626410.59449  -1246065.31847  21445258.776    21445271.998
       241.000         201.000
  24148084.353    19283787.71949  15033214.89245  24148084.449    24148106.865
       206.000         140.000
 02  3 20 16 57 30.0000000  0  7G28G26G 4G 9G24G 7G 8
  22665406.202     7483146.69349   5836620.08446  22665406.346    22665421.360
       229.000         181.000
  23942080.426    -1003747.89549   -762764.98645  23942080.802    23942098.119
       215.000         161.000
  20831444.784   -21792855.65349 -16962681.10447  20831444.931    20831457.329
       242.000         204.000
  22278901.318    -8710687.09549  -6765789.13146  22278901.018    22278915.585
       228.000         182.000
  22544083.982   -10551560.20749  -8188806.18346  22544083.126    22544099.710
       227.000         175.000
  21455742.996    -1571318.09249  -1203136.22347  21455742.698    21455756.079
       240.000         201.000
  24169488.140    19396263.66549  15120857.87845  24169489.631    24169512.697
       205.000         139.000
 02  3 20 16 58  0.0000000  0  7G28G26G 4G 9G24G 7G 8
  22674491.776     7530891.51449   5873823.66246  22674491.526    22674506.436
       228.000         179.000
  23954820.478     -936799.76249   -710597.82645  23954821.502    23954838.207
       217.000         162.000
  20823154.825   -21836419.69949 -16996627.09947  20823154.620    20823167.597
       241.000         204.000
  22264929.805    -8784107.40149  -6822999.71646  22264929.100    22264943.523
       230.000         180.000
  22525727.590   -10648022.53949  -8263971.52346  22525726.384    22525742.479
       227.000         175.000
  21466250.610    -1516100.91549  -1160109.97847  21466250.214    21466263.345
       240.000         200.000
  24190912.486    19508847.89149  15208585.31645  24190913.879    24190937.546
       208.000         142.000
 02  3 20 16 58 30.0000000  0  7G28G26G 4G 9G24G 7G 8
  22683612.347     7578820.06449   5911170.42646  22683612.592    22683627.511
       228.000         177.000
  23967588.347     -869704.96249   -658316.36045  23967589.453    23967606.296
       217.000         161.000
  20814970.196   -21879429.71249 -17030141.38047  20814970.076    20814982.612
       242.000         204.000
  22251030.887    -8857146.21449  -6879913.02246  22251030.122    22251044.826
       231.000         183.000
  22507414.713   -10744256.87849  -8338959.19346  22507413.802    22507430.038
       227.000         175.000
  21476781.648    -1460760.37049  -1116987.59547  21476781.593    21476794.345
       241.000         199.000
  24212357.016    19621538.15549  15296395.34945  24212357.883    24212380.694
       205.000         144.000
 02  3 20 16 59  0.0000000  0  7G28G26G 4G 9G24G 7G 8
  22692768.115     7626933.00649   5948660.84946  22692768.433    22692783.899
       228.000         178.000
  23980383.585     -802466.43349   -605922.93045  23980383.666    23980401.304
       215.000         159.000
  20806891.434   -21921884.13649 -17063222.73647  20806891.689    20806903.870
       242.000         204.000
  22237204.967    -8929801.39049  -6936527.38546  22237204.234    22237218.689
       231.000         184.000
  22489145.587   -10840260.49149  -8413767.08846  22489144.389    22489161.912
       229.000         175.000
  21487335.803    -1405298.20449  -1073770.44147  21487335.517    21487348.969
       241.000         199.000
  24233820.976    19734332.19549  15384286.22745  24233819.366    24233847.697
       200.000         142.000
 02  3 20 16 59 30.0000000  0  7G28G26G 4G 9G24G 7G 8
  22701958.904     7675230.47949   5986295.03546  22701958.631    22701973.399
       228.000         176.000
  23993205.371     -735087.50649   -553420.10645  23993205.939    23993223.397
       217.000         159.000
  20798918.674   -21963781.37849 -17095869.92247  20798918.858    20798931.197
       242.000         204.000
  22223452.484    -9002070.74949  -6992841.12046  22223452.244    22223465.648
       232.000         182.000
  22470921.290   -10936030.18649  -8488392.71146  22470922.014    22470937.517
       229.000         176.000
  21497912.798    -1349716.40049  -1030460.06547  21497912.075    21497926.000
       240.000         199.000
  24255304.783    19847227.22349  15472255.78045  24255306.271    24255331.630
       212.000         145.000
 02  3 20 17  0  0.0000000  0  7G28G26G 4G 9G24G 7G 8
  22711184.955     7723712.44549   6024073.01646  22711185.314    22711200.034
       230.000         175.000
  24006053.402     -667571.61049   -500810.55345  24006054.534    24006070.437
       219.000         159.000
  20791052.142   -22005120.31749 -17128082.05647  20791052.064    20791064.492
       242.000         205.000
  22209773.916    -9073952.52249  -7048852.85946  22209773.494    22209787.683
       232.000         182.000
  22452741.997   -11031563.96549  -8562834.51946  22452742.090    22452757.040
       231.000         177.000
  21508512.085    -1294016.98349   -987058.05547  21508511.567    21508525.254
       239.000         198.000
  24276807.526    19960220.38349  15560301.84045  24276809.245    24276833.815
       215.000         149.000
 02  3 20 17  0 30.0000000  0  7G28G26G 4G 9G24G 7G 8
  22720446.195     7772379.72549   6061995.39146  22720446.412    22720461.321
       230.000         176.000
  24018927.036     -599921.65849   -448096.55245  24018927.143    24018945.269
       216.000         159.000
  20783292.087   -22045899.30849 -17159857.87147  20783292.236    20783304.840
       242.000         205.000
  22196169.430    -9145444.31649  -7104560.69046  22196169.212    22196183.366
       231.000         182.000
  22434608.104   -11126858.93249  -8637090.24046  22434608.064    22434624.126
       229.000         178.000
  21519133.490    -1238201.28149   -943565.41547  21519133.154    21519146.858
       240.000         198.000
  24298328.631    20073309.45449  15648422.61745  24298329.247    24298353.878
       213.000         151.000
 02  3 20 17  1  0.0000000  0  7G28G26G 4G 9G24G 7G 8
  22729743.005     7821234.10149   6100063.52246  22729743.456    22729758.838
       229.000         175.000
  24031825.464     -532139.15149   -395279.24745  24031827.032    24031844.547
       218.000         160.000
  20775639.410   -22086114.92849 -17191194.70847  20775639.674    20775652.263
       243.000         205.000
  22182640.012    -9216542.23149  -7159961.61246  22182639.968    22182653.820
       234.000         184.000
  22416520.251   -11221910.84949  -8711156.55246  22416520.086    22416535.465
       230.000         179.000
  21529777.105    -1182269.51849   -899982.35347  21529776.536    21529790.545
       238.000         198.000
  24319866.806    20186493.64249  15736617.49245  24319866.637    24319892.809
       207.000         146.000
 02  3 20 17  1 30.0000000  0  7G28G26G 4G 9G24G 7G 8
  22739075.633     7870276.19149   6138277.94346  22739076.145    22739091.921
       230.000         175.000
  24044749.181     -464226.86249   -342360.82145  24044749.976    24044767.321
       216.000         160.000
  20768094.153   -22125765.53549 -17222091.27347  20768094.198    20768106.769
       243.000         206.000
  22169185.991    -9287243.78849  -7215053.68446  22169185.612    22169199.282
       234.000         185.000
  22398479.220   -11316716.54949  -8785031.00946  22398477.946    22398494.399
       229.000         179.000
  21540442.534    -1126223.11949   -856309.96547  21540442.282    21540455.877
       238.000         197.000
  24341422.887    20299770.62949  15824884.68845  24341424.802    24341448.328
       211.000         145.000
 02  3 20 17  2  0.0000000  0  7G28G26G 4G 9G24G 7G 8
  22748443.925     7919505.57649   6176638.32146  22748443.910    22748459.862
       229.000         174.000
  24057696.607     -396188.85149   -289344.39245  24057697.023    24057714.250
       215.000         158.000
  20760656.548   -22164850.67849 -17252547.20847  20760657.006    20760669.196
       243.000         206.000
  22155807.581    -9357547.86449  -7269836.05746  22155807.763    22155820.483
       233.000         185.000
  22380485.253   -11411274.32849  -8858712.29246  22380484.523    22380500.120
       228.000         179.000
  21551129.237    -1070064.62049   -812550.22347  21551128.804    21551142.329
       237.000         196.000
  24362996.322    20413136.97249  15913221.57145  24362997.448    24363021.370
       210.000         143.000
 02  3 20 17  2 30.0000000  0  7G28G26G 4G 9G24G 7G 8
  22757847.999     7968923.73849   6215145.80446  22757847.380    22757863.795
       228.000         172.000
  24070667.308     -328027.36049   -236231.76145  24070668.743    24070685.061
       216.000         158.000
  20753327.015   -22203367.73549 -17282560.48747  20753327.081    20753339.491
       243.000         206.000
  22142505.281    -9427451.39549  -7324306.29346  22142504.803    22142518.803
       231.000         185.000
  22362539.119   -11505580.46249  -8932197.49346  22362538.437    22362554.585
       229.000         179.000
  21561836.996    -1013794.95949   -768703.86447  21561836.671    21561850.131
       237.000         195.000
  24384586.131    20526591.06349  16001626.80645  24384585.023    24384611.765
       202.000         136.000
 02  3 20 17  3  0.0000000  0  7G28G26G 4G 9G24G 7G 8
  22767288.097     8018531.08249   6253800.69646  22767288.564    22767303.908
       229.000         172.000
  24083661.187     -259745.03749   -183024.98545  24083662.168    24083680.057
       217.000         158.000
  20746105.801   -22241315.20749 -17312129.93447  20746106.100    20746117.879
       243.000         206.000
  22129279.775    -9496951.71249  -7378462.32846  22129279.519    22129293.295
       232.000         186.000
  22344641.726   -11599631.94949  -9005484.23446  22344640.887    22344656.733
       229.000         180.000
  21572565.766     -957415.25749   -724771.75247  21572566.093    21572578.865
       238.000         195.000
  24406191.910    20640131.02549  16090098.89844  24406190.736    24406218.306
       199.000         129.000
 02  3 20 17  3 30.0000000  0  7G28G26G 4G 9G24G 7G 8
  22776764.333     8068327.54949   6292602.94046  22776764.284    22776779.857
       227.000         171.000
  24096677.512     -191345.48949   -129726.86745  24096677.777    24096695.663
       218.000         156.000
  20738993.287   -22278692.05449 -17341254.73047  20738993.104    20739005.944
       243.000         206.000
  22116131.374    -9566047.33849  -7432303.02746  22116131.131    22116144.665
       232.000         187.000
  22326793.129   -11693426.38149  -9078570.69146  22326792.653    22326808.530
       230.000         181.000
  21583315.153     -900927.74649   -680755.61347  21583314.252    21583329.340
       238.000         195.000
  24427814.198    20753753.68649  16178635.45044  24427816.624    24427842.086
       206.000         129.000
 02  3 20 17  4  0.0000000  0  7G28G26G 4G 9G24G 7G 8
  22786276.202     8118312.83149   6331552.29246  22786276.039    22786291.439
       227.000         170.000
  24109715.319     -122832.67149    -76340.52545  24109715.601    24109734.050
       219.000         157.000
  20731989.326   -22315497.47649 -17369934.27647  20731989.412    20732001.553
       243.000         206.000
  22103060.197    -9634736.82449  -7485827.26247  22103059.850    22103073.779
       232.000         188.000
  22308993.800   -11786961.75049  -9151455.27846  22308993.315    22309009.500
       231.000         182.000
  21594084.510     -844334.85149   -636657.37847  21594083.457    21594097.971
       236.000         196.000
  24449451.949    20867455.83949  16267234.02044  24449453.755    24449479.044
       201.000         127.000
 02  3 20 17  4 30.0000000  0  7G28G26G 4G 9G24G 7G 8
  22795824.471     8168488.52349   6370650.05146  22795824.489    22795840.945
       229.000         172.000
  24122774.371      -54208.44149    -22867.33845  24122774.411    24122791.972
       218.000         157.000
  20725094.680   -22351729.19149 -17398166.77347  20725095.115    20725107.415
       243.000         206.000
  22090066.775    -9703016.84949  -7539032.44346  22090066.006    22090080.387
       230.000         187.000
  22291244.530   -11880234.69549  -9224135.38346  22291243.653    22291259.906
       231.000         183.000
  21604873.819     -787636.83349   -592477.24047  21604873.617    21604887.903
       238.000         197.000
  24471103.984    20981236.40548  16355893.62144  24471104.107    24471130.862
       194.000         126.000
 02  3 20 17  5  0.0000000  0  7G28G26G 4G 9G24G 7G 8
  22805409.267     8218855.84049   6409897.12146  22805409.334    22805425.252
       226.000         172.000
  24135854.315       14525.08249     30690.97545  24135857.953    24135871.775
       218.000         156.000
  20718309.740   -22387384.71949 -17425950.29347  20718309.793    20718322.521
       244.000         207.000
  22077151.854    -9770884.28349  -7591916.11546  22077151.366    22077165.473
       230.000         186.000
  22273545.781   -11973241.07849  -9296607.75146  22273544.776    22273561.225
       230.000         183.000
  21615683.067     -730834.65649   -548215.93447  21615683.234    21615696.240
       239.000         198.000
  24492770.309    21095093.62749  16444612.92444  24492769.958    24492799.009
       198.000         125.000
 02  3 20 17  5 30.0000000  0  6G28G26G 4G 9G24G 7
  22815031.276     8269419.26449   6449296.98346  22815031.502    22815047.988
       226.000         171.000
  24148955.023       83368.95849     84335.33845  24148954.597    24148972.210
       214.000         154.000
  20711635.383   -22422458.62649 -17453280.60947  20711635.273    20711647.527
       243.000         206.000
  22064316.740    -9838332.90349  -7644473.43346  22064316.412    22064330.346
       231.000         187.000
  22255899.093   -12065974.20949  -9368867.18946  22255898.362    22255914.720
       234.000         184.000
  21626512.626     -673925.57749   -503871.34247  21626512.877    21626526.021
       239.000         199.000
 02  3 20 17  6  0.0000000  0  6G28G26G 4G 9G24G 7
  22824690.877     8320180.08849   6488850.66046  22824689.946    22824706.630
       222.000         168.000
  24162075.991      152320.76649    138063.77545  24162077.142    24162093.934
       217.000         154.000
  20705072.092   -22456948.99849 -17480156.21747  20705072.067    20705084.177
       243.000         206.000
  22051562.004    -9905359.73249  -7696702.10247  22051562.251    22051575.418
       233.000         190.000
  22238305.210   -12158430.77149  -9440911.12946  22238304.862    22238320.731
       233.000         186.000
  21637362.341     -616910.72749   -459444.31947  21637361.856    21637376.056
       239.000         201.000
 02  3 20 17  6 30.0000000  0  6G28G26G 4G 9G24G 7
  22834386.094     8371129.56149   6528551.33046  22834386.523    22834400.944
       223.000         165.000
  24175215.675      221368.73649    191867.13745  24175216.536    24175233.861
       218.000         157.000
  20698618.457   -22490863.22549 -17506582.88347  20698618.734    20698630.919
       244.000         206.000
  22038886.171    -9971971.58549  -7748607.40747  22038886.097    22038899.952
       233.000         190.000
  22220762.577   -12250617.04249  -9512744.45046  22220762.057    22220777.943
       233.000         187.000
  21648230.172     -559800.30649   -414942.81847  21648229.603    21648244.055
       238.000         200.000
 02  3 20 17  7  0.0000000  0  6G28G26G 4G 9G24G 7
  22844117.925     8422269.99349   6568400.80146  22844117.547    22844134.550
       223.000         164.000
  24188373.289      290511.47549    245744.36345  24188374.307    24188392.806
       221.000         159.000
  20692274.998   -22524198.42249 -17532558.35647  20692275.096    20692287.366
       242.000         207.000
  22026290.061   -10038164.67349  -7800186.38547  22026289.657    22026304.405
       234.000         190.000
  22203272.427   -12342528.40349  -9584363.54546  22203271.835    22203287.645
       232.000         187.000
  21659116.194     -502594.27849   -370366.83547  21659116.296    21659129.775
       239.000         201.000
 02  3 20 17  7 30.0000000  0  6G28G26G 4G 9G24G 7
  22853886.206     8473601.94549   6608399.48946  22853886.194    22853902.239
       225.000         167.000
  24201548.587      359746.18549    299693.23245  24201550.036    24201566.493
       221.000         160.000
  20686041.922   -22556952.96849 -17558081.37947  20686042.171    20686054.278
       243.000         207.000
  22013774.013   -10103936.62549  -7851437.19747  22013773.472    22013787.939
       232.000         190.000
  22185835.036   -12434161.92749  -9655766.14146  22185834.107    22185849.987
       231.000         186.000
  21670020.171     -445293.96049   -325717.37547  21670020.047    21670034.219
       239.000         202.000
 02  3 20 17  8  0.0000000  0  6G28G26G 4G 9G24G 7
  22863691.324     8525127.02249   6648548.70046  22863689.947    22863706.741
       223.000         167.000
  24214740.889      429070.97249    353712.30245  24214740.574    24214760.235
       218.000         158.000
  20679919.930   -22589124.58449 -17583150.16947  20679920.199    20679932.075
       243.000         206.000
  22001338.682   -10169283.92749  -7902357.12047  22001338.800    22001351.894
       234.000         188.000
  22168451.242   -12525513.76749  -9726949.25046  22168450.851    22168466.454
       232.000         185.000
  21680942.155     -387899.56549   -280994.58947  21680941.696    21680956.578
       240.000         202.000
 02  3 20 17  8 30.0000000  0  6G28G26G 4G 9G24G 7
  22873533.382     8576846.79649   6688849.58446  22873534.262    22873549.658
       223.000         167.000
  24227949.908      498484.20649    407800.27345  24227949.370    24227969.020
       215.000         155.000
  20673909.277   -22620710.78449 -17607762.77947  20673909.121    20673921.751
       243.000         206.000
  21988984.988   -10234203.30049  -7952943.62247  21988985.072    21988997.972
       238.000         189.000
  22151121.952   -12616579.63949  -9797909.51846  22151121.108    22151137.163
       230.000         184.000
  21691881.819     -330411.60649   -236198.89147  21691881.333    21691896.797
       238.000         201.000
 02  3 20 17  9  0.0000000  0  6G28G26G 4G 9G24G 7
  22883412.504     8628761.43249   6729302.32846  22883411.734    22883429.901
       221.000         167.000
  24241175.226      567982.38149    461954.42645  24241175.553    24241192.708
       216.000         153.000
  20668010.115   -22651710.66049 -17631918.52847  20668009.954    20668022.899
       242.000         206.000
  21976713.078   -10298693.02349  -8003195.31847  21976712.918    21976725.935
       237.000         190.000
  22133847.281   -12707357.48449  -9868645.34546  22133846.377    22133862.963
       229.000         183.000
  21702839.071     -272831.60349   -191331.48447  21702838.298    21702853.105
       237.000         200.000
 02  3 20 17  9 30.0000000  0  6G28G26G 4G 9G24G 7
  22893328.906     8680871.80649   6769907.58446  22893329.048    22893345.225
       224.000         168.000
  24254416.107      637563.13249    516172.94545  24254416.727    24254435.037
       214.000         151.000
  20662222.883   -22682122.51649 -17655616.07647  20662223.031    20662235.588
       243.000         207.000
  21964523.286   -10362750.47349  -8053110.16347  21964523.207    21964536.645
       235.000         189.000
  22116627.964   -12797844.39249  -9939154.47546  22116627.947    22116643.541
       230.000         183.000
  21713813.594     -215160.69949   -146393.25547  21713812.470    21713827.827
       236.000         198.000
 02  3 20 17 10  0.0000000  0  6G28G26G 4G 9G24G 7
  22903282.740     8733178.26549   6810665.63446  22903283.207    22903298.401
       224.000         168.000
  24267672.290      707223.38649    570453.38445  24267673.759    24267692.334
       216.000         152.000
  20656547.879   -22711945.27649 -17678854.58247  20656547.899    20656560.530
       243.000         207.000
  21952416.089   -10426373.89349  -8102686.80847  21952415.819    21952429.175
       236.000         188.000
  22099464.812   -12888037.47449 -10009434.65946  22099464.019    22099480.149
       229.000         184.000
  21724805.098     -157400.44449   -101385.40247  21724803.641    21724818.476
       234.000         197.000
 02  3 20 17 10 30.0000000  0  6G28G26G 4G 9G24G 7
  22913274.021     8785681.12949   6851576.71746  22913273.761    22913290.652
       222.000         167.000
  24280942.940      776959.91849    624793.30145  24280943.862    24280962.716
       216.000         155.000
  20650985.175   -22741177.85749 -17701633.21047  20650985.370    20650997.411
       243.000         208.000
  21940392.032   -10489561.07449  -8151923.54047  21940392.402    21940405.458
       239.000         190.000
  22082357.986   -12977933.92249 -10079483.70146  22082356.992    22082373.326
       231.000         184.000
  21735813.215      -99552.29849    -56309.06447  21735813.220    21735826.572
       237.000         196.000
 02  3 20 17 11  0.0000000  0  6G28G26G 4G 9G24G 7
  22923302.469     8838381.10849   6892641.41246  22923302.598    22923318.932
       222.000         166.000
  24294227.843      846770.36749    679190.79245  24294229.195    24294247.343
       214.000         155.000
  20645534.949   -22769818.67949 -17723950.73747  20645534.994    20645547.542
       242.000         208.000
  21928451.644   -10552309.21849  -8200818.17247  21928451.519    21928465.288
       238.000         191.000
  22065308.242   -13067530.48449 -10149299.06246  22065307.466    22065323.328
       231.000         183.000
  21746837.983      -41617.48149    -11165.19447  21746838.177    21746852.357
       236.000         195.000
 02  3 20 17 11 30.0000000  0  6G28G26G 4G 9G24G 7
  22933368.885     8891279.06149   6933860.35546  22933369.329    22933385.432
       222.000         167.000
  24307525.823      916651.92249    733643.71945  24307525.860    24307545.562
       212.000         153.000
  20640197.684   -22797866.26149 -17745805.99847  20640197.878    20640210.208
       243.000         208.000
  21916595.090   -10614616.08749  -8249368.92447  21916594.307    21916608.546
       235.000         191.000
  22048315.977   -13156824.74549 -10218878.88646  22048314.869    22048330.778
       231.000         184.000
  21757878.886       16403.08749     34045.51447  21757878.544    21757893.727
       236.000         193.000
 02  3 20 17 12  0.0000000  0  6G28G26G 4G 9G24G 7
  22943473.075     8944375.82649   6975234.20446  22943473.144    22943488.962
       223.000         166.000
  24320836.904      986602.23749    788150.18945  24320838.834    24320856.023
       212.000         152.000
  20634973.632   -22825319.29049 -17767197.96847  20634973.815    20634986.062
       242.000         208.000
  21904822.840   -10676479.00149  -8297573.75247  21904822.357    21904835.925
       236.000         190.000
  22031381.923   -13245812.83049 -10288220.12646  22031380.553    22031397.244
       231.000         184.000
  21768936.070       74508.33149     79322.19547  21768935.400    21768949.352
       234.000         192.000
 02  3 20 17 12 30.0000000  0  6G28G26G 4G 9G24G 7
  22953614.906     8997670.72349   7016762.45446  22953615.033    22953631.886
       223.000         166.000
  24334160.657     1056617.26949    842707.09645  24334161.850    24334179.334
       212.000         149.000
  20629862.563   -22852177.51649 -17788126.45047  20629862.893    20629874.694
       245.000         207.000
  21893135.159   -10737897.12749  -8345432.00147  21893134.019    21893148.885
       232.000         190.000
  22014506.384   -13334493.02349 -10357321.43646  22014505.325    22014521.436
       231.000         185.000
  21780008.906      132695.89749    124663.00747  21780007.784    21780021.768
       234.000         193.000
 02  3 20 17 13  0.0000000  0  6G28G26G 4G 9G24G 7
  22963794.641     9051164.98849   7058446.06846  22963794.966    22963811.003
       225.000         166.000
  24347496.304     1126694.86049    897312.75245  24347497.248    24347514.920
       213.000         150.000
  20624865.195   -22878439.22149 -17808590.11247  20624865.203    20624877.780
       244.000         207.000
  21881532.534   -10798867.61049  -8392941.42747  21881532.410    21881546.347
       234.000         189.000
  21997690.095   -13422862.38749 -10426180.53946  21997689.307    21997705.496
       232.000         185.000
  21791097.319      190965.06649    170067.45447  21791096.298    21791111.798
       235.000         194.000
 02  3 20 17 13 30.0000000  0  6G28G26G 4G 9G24G 7
  22974012.540     9104858.32449   7100284.79546  22974012.852    22974029.575
       225.000         167.000
  24360843.094     1196831.39849    951964.31545  24360844.099    24360861.576
       212.000         150.000
  20619981.237   -22904104.30049 -17828588.88247  20619981.314    20619994.223
       245.000         208.000
  21870015.617   -10859389.04449  -8440100.97747  21870015.763    21870028.849
       235.000         190.000
  21980933.430   -13510918.33249 -10494795.45746  21980932.887    21980948.413
       234.000         186.000
  21802200.725      249313.76749    215533.85547  21802200.701    21802214.913
       237.000         195.000
 02  3 20 17 14  0.0000000  0  6G28G26G 4G 9G24G 7
  22984268.335     9158751.69249   7142279.39146  22984268.122    22984284.779
       224.000         166.000
  24374200.302     1267024.46949   1006659.94345  24374200.332    24374219.520
       215.000         151.000
  20615211.204   -22929170.83249 -17848121.24147  20615211.166    20615224.094
       244.000         208.000
  21858584.791   -10919458.41749  -8486908.26747  21858584.287    21858598.372
       233.000         190.000
  21964237.036   -13598657.91349 -10563163.85347  21964237.205    21964252.554
       235.000         188.000
  21813319.243      307741.51749    261061.82747  21813319.313    21813333.690
       238.000         196.000
 02  3 20 17 14 30.0000000  0  6G28G26G 4G 9G24G 7
  22994562.310     9212845.69749   7184430.30946  22994562.396    22994580.051
       224.000         166.000
  24387568.146     1337271.60249   1061397.68845  24387568.378    24387588.476
       212.000         154.000
  20610555.288   -22953637.72149 -17867186.34847  20610555.479    20610567.908
       245.000         208.000
  21847240.226   -10979073.99649  -8533361.91847  21847239.631    21847254.141
       232.000         190.000
  21947601.640   -13686078.42049 -10631283.60647  21947601.332    21947617.030
       237.000         190.000
  21824452.467      366246.91449    306650.30947  21824452.916    21824466.937
       239.000         195.000
 02  3 20 17 15  0.0000000  0  6G28G26G 4G 9G24G 7
  23004894.603     9267140.61449   7226737.75746  23004894.443    23004911.102
       223.000         165.000
  24400945.445     1407569.38849   1116174.93145  24400946.376    24400965.509
       212.000         154.000
  20606013.598   -22977504.36049 -17885783.73547  20606013.774    20606026.109
       244.000         208.000
  21835982.413   -11038233.89149  -8579460.50447  21835982.004    21835996.103
       233.000         191.000
  21931027.368   -13773177.27049 -10699152.72447  21931027.066    21931042.196
       237.000         191.000
  21835600.406      424828.23349    352297.94347  21835601.058    21835615.754
       239.000         197.000
 02  3 20 17 15 30.0000000  0  6G28G26G 4G 9G24G 7
  23015265.000     9321636.88549   7269202.15446  23015265.703    23015282.285
       223.000         165.000
  24414331.960     1477915.26549   1170989.64245  24414332.649    24414353.245
       212.000         154.000
  20601586.492   -23000769.54649 -17903912.44347  20601586.738    20601598.978
       245.000         208.000
  21824811.796   -11096935.70549  -8625202.16847  21824811.617    21824825.373
       235.000         193.000
  21914514.782   -13859951.37049 -10766768.80547  21914513.808    21914529.469
       236.000         191.000
  21846762.600      483484.57449    398004.08347  21846763.440    21846777.292
       239.000         197.000
 02  3 20 17 16  0.0000000  0  6G28G26G 4G 9G24G 7
  23025674.061     9376335.76049   7311824.40146  23025673.868    23025690.756
       224.000         166.000
  24427727.314     1548306.95749   1225840.03745  24427728.216    24427746.941
       213.000         153.000
  20597274.105   -23023431.76349 -17921571.31647  20597273.894    20597286.630
       243.000         208.000
  21813728.936   -11155176.63449  -8670584.68247  21813728.530    21813743.055
       234.000         194.000
  21898064.447   -13946397.36949 -10834129.21647  21898063.116    21898079.387
       234.000         189.000
  21857938.859      542215.34649    443768.14947  21857939.343    21857952.355
       239.000         197.000
 02  3 20 17 16 30.0000000  0  6G28G26G 4G 9G24G 7
  23036121.408     9431235.97749   7354603.52946  23036121.815    23036137.513
       225.000         166.000
  24441130.596     1618740.13649   1280722.76445  24441132.116    24441149.395
       214.000         152.000
  20593076.105   -23045491.67049 -17938760.86447  20593076.140    20593088.583
       244.000         208.000
  21802733.872   -11212956.30949  -8715607.77447  21802733.761    21802747.623
       236.000         195.000
  21881676.749   -14032514.51149 -10901233.37447  21881676.041    21881692.026
       235.000         189.000
  21869128.645      601017.55149    489587.93047  21869128.527    21869143.525
       238.000         197.000
 02  3 20 17 17  0.0000000  0  6G28G26G 4G 9G24G 7
  23046607.366     9486338.34149   7397540.19546  23046608.795    23046623.979
       228.000         167.000
  24454541.476     1689212.13249   1335635.71945  24454542.822    24454562.923
       214.000         151.000
  20588993.067   -23066948.07349 -17955480.13447  20588993.087    20589005.687
       245.000         208.000
  21791827.099   -11270272.26049  -8760269.53047  21791827.432    21791840.570
       239.000         196.000
  21865352.265   -14118299.39449 -10968078.63547  21865351.952    21865367.023
       235.000         190.000
  21880331.898      659890.31649    535462.66947  21880331.472    21880344.791
       237.000         196.000
 02  3 20 17 17 30.0000000  0  6G28G26G 4G 9G24G 7
  23057131.934     9541643.50649   7440634.87746  23057131.780    23057147.421
       227.000         167.000
  24467958.807     1759720.38749   1390576.97445  24467959.344    24467978.421
       213.000         150.000
  20585025.101   -23087799.83149 -17971728.26747  20585025.274    20585037.738
       244.000         208.000
  21781008.996   -11327122.38049  -8804568.29447  21781008.552    21781022.771
       238.000         198.000
  21849091.685   -14203748.98649 -11034662.63847  21849091.689    21849105.919
       236.000         189.000
  21891548.331      718832.59249    581391.56147  21891547.757    21891563.211
       237.000         197.000
 02  3 20 17 18  0.0000000  0  6G28G26G 4G 9G24G 7
  23067695.375     9597153.53349   7483889.19846  23067696.046    23067711.386
       227.000         166.000
  24481382.776     1830263.76349   1445545.57945  24481382.791    24481403.240
       210.000         148.000
  20581172.719   -23108044.54349 -17987503.37047  20581172.761    20581185.012
       244.000         208.000
  21770280.120   -11383503.01949  -8848501.23547  21770280.179    21770294.107
       239.000         198.000
  21832895.735   -14288859.36949 -11100982.32547  21832895.131    21832910.714
       235.000         190.000
  21902778.022      777844.79249    627374.96247  21902777.683    21902792.314
       235.000         196.000
 02  3 20 17 18 30.0000000  0  6G28G26G 4G 9G24G 7
  23078297.677     9652867.89449   7527302.74146  23078297.607    23078315.712
       224.000         164.000
  24494812.808     1900838.47949   1500538.63045  24494813.493    24494833.661
       207.000         146.000
  20577435.767   -23127682.24549 -18002805.47947  20577435.968    20577448.117
       245.000         208.000
  21759640.837   -11439413.08649  -8892067.48547  21759640.694    21759654.550
       238.000         197.000
  21816764.602   -14373628.47649 -11167036.07147  21816764.228    21816779.858
       236.000         192.000
  21914020.663      836924.79649    673411.16247  21914020.319    21914034.924
       236.000         195.000
 02  3 20 17 19  0.0000000  0  6G28G26G 4G 9G24G 7
  23088938.884     9708787.22849   7570875.98445  23088937.991    23088956.549
       222.000         162.000
  24508248.270     1971441.81349   1555553.97445  24508249.712    24508268.883
       214.000         147.000
  20573814.584   -23146712.00749 -18017633.86947  20573815.014    20573827.266
       245.000         209.000
  21749091.345   -11494850.60949  -8935265.53347  21749091.297    21749104.775
       239.000         196.000
  21800698.998   -14458053.59249 -11232821.77247  21800698.500    21800714.376
       235.000         192.000
  21925276.148      896071.46149    719499.32847  21925275.817    21925290.960
       236.000         195.000
 02  3 20 17 19 30.0000000  0  6G28G26G 4G 9G24G 7
  23099619.023     9764911.09149   7614608.61245  23099619.086    23099635.779
       224.000         162.000
  24521689.039     2042070.26049   1610588.86245  24521689.138    24521708.790
       210.000         147.000
  20570309.038   -23165134.06349 -18031988.72847  20570309.301    20570321.662
       245.000         209.000
  21738632.199   -11549814.30949  -8978094.36747  21738632.378    21738645.873
       239.000         197.000
  21784699.159   -14542132.79149 -11298337.91747  21784698.427    21784714.019
       234.000         191.000
  21936543.789      955282.87149    765637.94847  21936544.027    21936557.200
       236.000         192.000
 02  3 20 17 20  0.0000000  0  6G28G26G 4G 9G24G 7
  23110338.305     9821239.88949   7658500.90545  23110338.915    23110356.058
       221.000         162.000
  24535133.634     2112721.05849   1665641.17245  24535133.960    24535155.420
       210.000         147.000
  20566919.334   -23182947.47749 -18045869.31447  20566919.398    20566931.528
       245.000         209.000
  21728263.627   -11604301.96549  -9020552.24447  21728263.576    21728277.246
       238.000         197.000
  21768765.487   -14625863.41449 -11363582.45947  21768764.938    21768780.545
       234.000         191.000
  21947823.573     1014557.79649    811826.05647  21947822.758    21947837.618
       235.000         192.000
 02  3 20 17 20 30.0000000  0  6G28G26G 4G 9G24G 7
  23121096.551     9877774.29549   7702553.43745  23121096.188    23121113.980
       221.000         162.000
  24548581.969     2183391.56349   1720708.86745  24548582.410    24548603.416
       213.000         146.000
  20563645.560   -23200151.18349 -18059274.80447  20563645.514    20563658.081
       245.000         209.000
  21717986.089   -11658311.39649  -9062637.47147  21717985.881    21717999.065
       239.000         196.000
  21752898.850   -14709242.21949 -11428552.83747  21752898.272    21752914.649
       236.000         193.000
  21959115.091     1073895.45749    858063.06347  21959115.431    21959128.376
       237.000         189.000
 02  3 20 17 21  0.0000000  0  6G28G26G 4G 9G24G 7
  23131894.150     9934515.13649   7746766.82546  23131894.862    23131911.208
       225.000         163.000
  24562033.601     2254079.17449   1775789.85345  24562032.239    24562051.822
       211.000         142.000
  20560487.985   -23216744.32649 -18072204.53847  20560487.890    20560500.185
       244.000         209.000
  21707799.823   -11711840.43849  -9104348.40047  21707798.904    21707812.464
       237.000         194.000
  21737099.891   -14792266.75249 -11493247.17147  21737099.329    21737115.131
       236.000         194.000
  21970418.595     1133294.94549    904348.21347  21970417.606    21970433.058
       234.000         190.000
 02  3 20 17 21 30.0000000  0  6G28G26G 4G 9G24G 7
  23142731.006     9991462.09149   7791140.80946  23142732.240    23142748.577
       225.000         165.000
  24575487.859     2324780.94549   1830881.84545  24575488.034    24575506.746
       212.000         140.000
  20557446.499   -23232726.82249 -18084658.43347  20557445.956    20557459.000
       244.000         209.000
  21697705.142   -11764887.78249  -9145683.97047  21697704.532    21697718.316
       236.000         193.000
  21721368.759   -14874934.52349 -11557663.51847  21721368.619    21721383.818
       237.000         195.000
  21981733.605     1192754.42749    950680.17947  21981732.853    21981748.405
       235.000         190.000
 02  3 20 17 22  0.0000000  0  6G28G26G 4G 9G24G 7
  23153607.056    10048615.01049   7835675.30246  23153607.751    23153625.289
       224.000         166.000
  24588944.077     2395493.20949   1885982.06745  24588945.327    24588964.279
       211.000         141.000
  20554521.248   -23248098.38549 -18096636.29147  20554521.451    20554533.756
       245.000         209.000
  21687702.566   -11817451.87249  -9186642.98447  21687702.886    21687715.658
       237.000         193.000
  21705706.004   -14957243.23349 -11621800.09747  21705706.112    21705720.566
       239.000         195.000
  21993059.643     1252272.43649    997057.67147  21993059.582    21993073.952
       236.000         191.000
 02  3 20 17 22 30.0000000  0  6G28G26G 4G 9G24G 7
  23164522.627    10105975.47849   7880371.50346  23164521.995    23164540.562
       222.000         165.000
  24602401.988     2466214.40749   1941089.26545  24602402.231    24602424.006
       209.000         142.000
  20551712.729   -23262857.69749 -18108137.05947  20551713.085    20551725.520
       246.000         210.000
  21677792.526   -11869529.90649  -9227223.25347  21677792.197    21677805.395
       236.000         193.000
  21690112.170   -15039189.68949 -11685654.39447  21690111.508    21690126.763
       237.000         196.000
  22004396.692     1311848.79049   1043480.67247  22004395.934    22004411.573
       235.000         188.000
 02  3 20 17 23  0.0000000  0  6G28G26G 4G 9G24G 7
  23175477.707    10163544.03649   7925229.82046  23175477.970    23175495.010
       223.000         163.000
  24615861.252     2536941.85549   1996201.32045  24615861.923    24615882.566
       212.000         144.000
  20549020.934   -23277003.84249 -18119160.03447  20549021.219    20549033.646
       246.000         211.000
  21667975.220   -11921119.70649  -9267423.07247  21667974.383    21667988.105
       235.000         192.000
  21674587.560   -15120770.79649 -11749223.99847  21674587.086    21674602.528
       236.000         196.000
  22015744.804     1371482.44449   1089948.30647  22015744.277    22015757.031
       235.000         188.000
 02  3 20 17 23 30.0000000  0  6G28G26G 4G 9G24G 7
  23186472.270    10221320.05949   7970249.83545  23186472.259    23186489.167
       220.000         161.000
  24629321.130     2607671.91449   2051315.35945  24629322.125    24629342.949
       211.000         145.000
  20546445.596   -23290537.34149 -18129705.63147  20546445.672    20546458.404
       246.000         212.000
  21658250.966   -11972220.34349  -9307241.73747  21658250.255    21658263.948
       236.000         192.000
  21659132.970   -15201984.94349 -11812507.65047  21659132.395    21659147.540
       237.000         196.000
  22027103.411     1431171.33549   1136458.96847  22027103.024    22027119.155
       237.000         190.000
